     2              OBSERVATION DATA    GPS                 RINEX VERSION / TYPE
teqc 1997Sep10 19971010 23:14:23UTC                         PGM / RUN BY / DATE
                                                            COMMENT
Original Marker Name: 1111                                  COMMENT
Campaign Name: NGS Salton Trough 1991                       COMMENT
4-Character Station Name: 1111                              COMMENT
6-Character Antenna Code: TRMSST                            COMMENT
Vertical Measurement Point: BGP                             COMMENT
Vertical Offset to Rinex Ref. Point: 0.0597                 COMMENT
Radial Measurement Point: NGP                               COMMENT
Radial Offset to Rinex Ref. Point: 0.2334                   COMMENT
Antenna Height from Field Measurement: 1.6530 m             COMMENT
Original XYZ: -2300693.9552 -4819423.6552 3475361.1955      COMMENT
New XYZ position is based on association with SCEC monument COMMENT
E1D0I6I9+0011. Position of that monument is believed to be  COMMENT
valid to within 1 m horizontally; vertical accuracy         COMMENT
should be no worse than 3-times this value.                 COMMENT
                                                            COMMENT
Revised Rinex header created by UCSD GPS archive for        COMMENT
GSAC on 12-Apr-1999 (1999:102) 05:51:01 GMT                 COMMENT
For assistance contact dagnew@ucsd.edu or hjohnson@ucsd.edu COMMENT
                                                            COMMENT
HPGN CALIF STA 11 11 1990                                   MARKER NAME
unknown NATIONAL GEODETIC SURVEY                            OBSERVER / AGENCY
483 TRIMBLE 4000 SST NP 4.30 / SP 4.20                      REC # / TYPE / VERS
19 TR 4000SST L1/L2 GEO                                     ANT # / TYPE
 -2300691.0000 -4819423.0000  3475363.0000                  APPROX POSITION XYZ
        1.5767        0.0000        0.0000                  ANTENNA: DELTA H/E/N
     1     1     0                                          WAVELENGTH FACT L1/2
     3    C1    L1    L2                                    # / TYPES OF OBSERV
     0                                                      INTERVAL
  1991     3    22    22     3   45.000000                  TIME OF FIRST OBS
  1991     3    23     3    33   60.000000                  TIME OF LAST OBS
     0                                                      # OF SATELLITES
                                                            END OF HEADER
 91  3 22 22  3 45.0000000  0  4G18G11G19G 2
  20705466.047          -0.63618        -0.38933
  23676137.3204         -0.95156        -0.04271
  21111843.8594         -0.29256        -0.43272
  24105921.1174         -0.18856        -0.37371
 91  3 22 22  4  0.0000000  0  4G18G11G19G 2
  20708353.563       15168.906 8     11820.01023
  23670353.5634     -30396.29146    -23684.56561
  21110931.0394      -4820.22146     -3756.21062
  24097119.805      -46248.148 5    -36037.49921
 91  3 22 22  4 15.0000000  0  4G18G11G19G 2
  20711251.539       30403.638 8     23691.20523
  23664579.5234     -60743.76946    -47331.79861
  21110007.4304      -9651.84946     -7521.10762
  24088315.8204     -92501.17345    -72078.54761
 91  3 22 22  4 30.0000000  0  4G18G11G19G 2
  20714164.617       45706.493 8     35615.48223
  23658812.6254     -91040.17746    -70939.23361
  21109086.6564     -14492.37346    -11292.94162
  24079513.9144    -138756.32945   -108121.29061
 91  3 22 22  4 45.0000000  0  4G18G11G19G 2
  20717091.7424      61090.86748     47603.27963
  23653062.3834    -121271.15546    -94495.69261
  21108164.6024     -19327.83946    -15060.82562
  24070714.5394    -184999.51645   -144154.68161
 91  3 22 22  5  0.0000000  0  4G18G11G19G 2
  20720037.102       76564.374 8     59660.53423
  23647323.8134    -151429.36846   -117995.45161
  21107249.7734     -24151.38346    -18819.42662
  24061916.5084    -231223.68645   -180173.26361
 91  3 22 22  5 15.0000000  0  4G18G11G19G 2
  20722997.9694      92127.48948     71787.60763
  23641596.117     -181513.745 6   -141437.67121
  21106331.6884     -28962.06046    -22567.99162
  24053125.000     -277427.968 5   -216176.34721
 91  3 22 22  5 30.0000000  0  4G18G11G19G 2
  20725977.250      107785.799 8     83988.86223
  23635886.2274    -211518.83346   -164818.11461
  21105422.0474     -33754.90446    -26302.67462
  24044337.172     -323606.967 5   -252159.70921
 91  3 22 22  5 45.0000000  0  4G18G11G19G 2
  20728976.9844     123544.64748     96268.45663
  23630193.328     -241438.296 6   -188131.83821
  21104510.9774     -38523.98046    -30018.82862
  24035554.9694    -369754.56545   -288118.61761
 91  3 22 22  6  0.0000000  0  4G18G11G19G 2
  20731994.375      139405.170 8    108627.28423
  23624516.9924    -271270.65346   -211377.67561
  21103611.0944     -43268.06946    -33715.50962
  24026780.531     -415869.616 5   -324052.15921
 91  3 22 22  6 15.0000000  0  4G18G11G19G 2
  20735032.1414     155366.43848    121064.60163
  23618854.9454    -301016.84146   -234556.37561
  21102710.7974     -47988.53246    -37393.78362
  24018010.2274    -461953.26245   -359961.22861
 91  3 22 22  6 30.0000000  0  4G18G11G19G 2
  20738088.5474     171425.95448    133578.48262
  23613211.945     -330678.248 6   -257669.01621
  21101820.195      -52687.175 6    -41055.05022
  24009245.8914    -508007.19345   -395847.14961
 91  3 22 22  6 45.0000000  0  4G18G11G19G 2
  20741163.7664     187587.97048    146172.23563
  23607583.4924    -360251.08146   -280712.63761
  21100928.8674     -57360.49546    -44696.58962
  24000487.977     -554027.708 5   -431707.03521
 91  3 22 22  7  0.0000000  0  4G18G11G19G 2
  20744257.7664     203848.97948    158843.12263
  23601974.4384    -389738.00146   -303689.30661
  21100044.2274     -62011.66546    -48320.86662
  23991736.781     -600017.666 5   -467543.11821
 91  3 22 22  7 15.0000000  0  4G18G11G19G 2
  20747372.188      220209.707 8    171591.71723
  23596378.2504    -419137.69646   -326598.01561
  21099161.0234     -66639.56346    -51927.01162
  23982990.563     -645975.824 5   -503354.40621
 91  3 22 22  7 30.0000000  0  4G18G11G19G 2
  20750503.3364     236670.35948    184418.16763
  23590800.5394    -448450.13546   -349438.72761
  21098288.1414     -71244.63246    -55515.36962
  23974251.891     -691902.543 5   -539141.20421
 91  3 22 22  7 45.0000000  0  4G18G11G19G 2
  20753654.8054     253229.93148    197321.70363
  23585237.711     -477675.870 6   -372211.88421
  21097413.6804     -75827.62546    -59086.51962
  23965518.023     -737798.394 5   -574903.94121
 91  3 22 22  8  0.0000000  0  4G18G11G19G 2
  20756825.938      269893.933 8    210306.61023
  23579694.953     -506808.985 6   -394912.86621
  21096549.3754     -80382.89646    -62636.07762
  23956790.602     -783657.591 5   -610638.13621
 91  3 22 22  8 15.0000000  0  4G18G11G19G 2
  20760016.7584     286659.28448    223370.49163
  23574168.281     -535851.987 6   -417543.63421
  21095683.6094     -84913.54846    -66166.44362
  23948071.8364    -829483.01245   -646345.99961
 91  3 22 22  8 30.0000000  0  4G18G11G19G 2
  20763227.1484     303532.10848    236518.11863
  23568658.1564    -564798.52946   -440099.22761
  21094829.5314     -89413.48646    -69672.88362
  23939357.6094    -875268.24745   -682022.56361
 91  3 22 22  8 45.0000000  0  4G18G11G19G 2
  20766457.703      320507.480 8    249745.65423
  23563167.172     -593653.196 6   -462583.25121
  21093976.5864     -93887.63846    -73159.22262
  23930651.805     -921018.313 5   -717671.69421
 91  3 22 22  9  0.0000000  0  4G18G11G19G 2
  20769707.7504     337587.47848    263054.71363
  23557695.4304    -622413.41346   -484993.65961
  21093132.7274     -98333.76746    -76623.72762
  23921953.2194    -966730.84545   -753291.59461
 91  3 22 22  9 15.0000000  0  4G18G11G19G 2
  20772977.2194     354771.36548    276444.72263
  23552240.164     -651079.591 6   -507330.79821
  21092289.4384    -102752.44046    -80066.83662
  23913260.352    -1012406.488 5   -788882.75121
 91  3 22 22  9 30.0000000  0  4G18G11G19G 2
  20776266.9144     372056.84548    289913.89963
  23546802.172     -679653.680 6   -529596.17521
  21091456.2034    -107146.14646    -83490.49762
  23904575.164    -1058047.430 5   -824446.88221
 91  3 22 22  9 45.0000000  0  4G18G11G19G 2
  20779576.0164     389442.99048    303461.51363
  23541382.734     -708136.252 6   -551790.24021
  21090621.4304    -111515.67146    -86895.31462
  23895896.5554   -1103654.17445   -859984.35161
 91  3 22 22 10  0.0000000  0  4G18G11G19G 2
  20782904.2424     406934.36648    317091.12863
  23535981.773     -736522.102 6   -573908.94221
  21089797.3754    -115856.46346    -90277.73662
  23887225.719    -1149222.026 5   -895491.51921
 91  3 22 22 10 15.0000000  0  4G18G11G19G 2
  20786252.6484     424530.08548    330802.04863
  23530597.539     -764812.124 6   -595952.96621
  21088975.2584    -120169.67946    -93638.65163
  23878561.8524   -1194751.86646   -930969.06461
 91  3 22 22 10 30.0000000  0  4G18G11G19G 2
  20789621.0474     442233.64148    344596.99463
  23525233.008     -793002.355 6   -617919.24121
  21088165.2664    -124451.60246    -96975.20663
  23869903.2504   -1240239.96146   -966414.09361
 91  3 22 22 10 45.0000000  0  4G18G11G19G 2
  20793009.7814     460038.32648    358470.74663
  23519886.680     -821098.840 6   -639812.46021
  21087349.6884    -128708.56246   -100292.30863
  23861254.7114   -1285692.45746  -1001831.38561
 91  3 22 22 11  0.0000000  0  4G18G11G19G 2
  20796418.8594     477949.82848    372427.73063
  23514557.836     -849095.764 6   -661628.10621
  21086547.6094    -132934.92546   -103585.57363
  23852612.6644   -1331103.76746  -1037216.58661
 91  3 22 22 11 15.0000000  0  4G18G11G19G 2
  20799846.6484     495967.20648    386467.21163
  23509249.1564    -876993.70546   -683366.62861
  21085747.0634    -137131.77646   -106855.83263
  23843980.016    -1376474.746 6  -1072570.35221
 91  3 22 22 11 30.0000000  0  4G18G11G19G 2
  20803295.0394     514090.08548    400588.90163
  23503957.7664    -904792.74946   -705028.07961
  21084955.8674    -141299.60246   -110103.48063
  23835352.719    -1421805.565 6  -1107892.83121
 91  3 22 22 11 45.0000000  0  4G18G11G19G 2
  20806764.0634     532318.52848    414792.85063
  23498688.359     -932492.351 6   -726612.04921
  21084166.2114    -145438.09846   -113328.27463
  23826736.031    -1467095.919 6  -1143183.79321
 91  3 22 22 12  0.0000000  0  4G18G11G19G 2
  20810253.1254     550651.55948    429078.29463
  23493436.1884    -960092.95746   -748118.88061
  21083386.8204    -149548.12446   -116530.88363
  23818124.6414   -1512346.49346  -1178443.73961
 91  3 22 22 12 15.0000000  0  4G18G11G19G 2
  20813762.4844     569091.78048    443447.27463
  23488202.9774    -987591.95546   -769546.54061
  21082608.9384    -153627.33546   -119709.47463
  23809521.586    -1557554.864 6  -1213670.80621
 91  3 22 22 12 30.0000000  0  4G18G11G19G 2
  20817291.1484     587638.12048    457898.92863
  23482988.375    -1014989.400 6   -790895.06721
  21081841.2424    -157676.35746   -122864.55063
  23800925.7194   -1602721.29846  -1248865.20061
 91  3 22 22 12 45.0000000  0  4G18G11G19G 2
  20820840.7894     606291.86148    472434.27763
  23477795.8364   -1042283.95046   -812163.41061
  21081074.8284    -161693.91046   -125995.10063
  23792338.430    -1647844.661 6  -1284026.03521
 91  3 22 22 13  0.0000000  0  4G18G11G19G 2
  20824411.2814     625054.81048    487054.72363
  23472621.555    -1069473.730 6   -833350.12321
  21080315.0944    -165678.45846   -129099.93163
  23783760.852    -1692923.233 6  -1319151.97021
 91  3 22 22 13 15.0000000  0  4G18G11G19G 2
  20828002.0084     643923.54848    501757.60463
  23467466.4304   -1096561.74746   -854457.54661
  21079562.0394    -169633.30746   -132181.61863
  23775189.414    -1737960.113 6  -1354245.42121
 91  3 22 22 13 30.0000000  0  4G18G11G19G 2
  20831613.4844     662899.13148    516543.74163
  23462330.9454   -1123546.09846   -875484.18261
  21078817.2114    -173556.90746   -135238.96163
  23766629.273    -1782953.631 6  -1389305.07321
 91  3 22 22 13 45.0000000  0  4G18G11G19G 2
  20835244.0234     681979.63448    531411.63163
  23457214.8204   -1150428.79946   -896431.62061
  21078075.6484    -177451.68746   -138273.84163
  23758073.8134   -1827906.00346  -1424332.68461
 91  3 22 22 14  0.0000000  0  4G18G11G19G 2
  20838895.8444     701172.20248    546366.84663
  23452120.2034   -1177202.09446   -917293.79961
  21077345.859     -181310.268 6   -141280.51623
  23749527.320    -1872809.745 6  -1459322.40421
 91  3 22 22 14 15.0000000  0  4G18G11G19G 2
  20842571.9384     720488.28248    561418.30263
  23447048.9534   -1203854.41446   -938061.72161
  21076616.1174    -185121.26546   -144250.11863
  23740994.484    -1917653.393 6  -1494265.28621
 91  3 22 22 14 30.0000000  0  4G18G11G19G 2
  20846267.7664     739910.93547    576552.80963
  23441997.7034   -1230402.09046   -958748.10261
  21075897.6414    -188901.31446   -147195.59863
  23732469.1884   -1962453.45046  -1529174.20361
 91  3 22 22 14 45.0000000  0  4G18G11G19G 2
  20849983.8914     759439.28747    591769.67463
  23436964.3984   -1256845.30546   -979353.07961
  21075182.9774    -192650.74646   -150117.22363
  23723951.9924   -2007210.26346  -1564049.43161
 91  3 22 22 15  0.0000000  0  4G18G11G19G 2
  20853721.8754     779078.94548    607073.26763
  23431953.7274   -1283178.42846   -999872.27261
  21074477.4454    -196364.58346   -153011.11563
  23715444.844    -2051918.403 6  -1598886.72421
 91  3 22 22 15 15.0000000  0  4G18G11G19G 2
  20857479.9384     798826.39148    622460.85363
  23426962.7114   -1309404.91946  -1020308.38461
  21073776.3984    -200046.36946   -155880.03063
  23706943.570    -2096581.554 6  -1633688.97121
 91  3 22 22 15 30.0000000  0  4G18G11G19G 2
  20861257.5784     818679.96448    637931.13363
  23421992.9144   -1335525.60046  -1040662.04061
  21073083.2584    -203697.26946   -158724.87963
  23698453.102    -2141200.704 6  -1668456.92321
 91  3 22 22 15 45.0000000  0  4G18G11G19G 2
  20865056.0704     838641.20048    653485.30763
  23417043.1414   -1361538.73546  -1060931.90261
  21072392.7734    -207315.67246   -161544.40563
  23689973.039    -2185774.171 6  -1703189.28621
 91  3 22 22 16  0.0000000  0  4G18G11G19G 2
  20868875.9454     858712.51348    669125.25763
  23412112.9694   -1387441.85546  -1081116.03561
  21071711.4694    -210899.67346   -164337.12563
  23681500.000    -2230299.758 6  -1737884.34221
 91  3 22 22 16 15.0000000  0  4G18G11G19G 2
  20872715.2974     878891.01748    684848.72963
  23407205.3444   -1413236.76146  -1101215.83861
  21071034.6884    -214451.34746   -167104.65763
  23673034.3674   -2274779.62146  -1772543.76261
 91  3 22 22 16 30.0000000  0  4G18G11G19G 2
  20876575.8204     899176.36948    700655.46163
  23402317.2664   -1438923.86246  -1121231.65061
  21070367.6094    -217971.38146   -169847.53463
  23664578.656    -2319214.244 6  -1807167.94821
 91  3 22 22 16 45.0000000  0  4G18G11G19G 2
  20880456.3284     919571.98548    716548.10962
  23397449.5784   -1464499.29346  -1141160.44061
  21069700.9774    -221456.26746   -172563.02463
  23656133.6094   -2363599.86046  -1841753.93261
 91  3 22 22 17  0.0000000  0  4G18G11G19G 2
  20884362.9534     940095.38948    732540.33462
  23392606.078    -1489944.933 6  -1160988.09721
  21069049.4384    -224888.15346   -175237.21663
  23647698.102    -2407918.594 6  -1876287.80621
 91  3 22 22 17 15.0000000  0  4G18G11G19G 2
  20888288.3284     960725.20848    748615.48163
  23387784.5784   -1515282.08546  -1180731.21261
  21068400.9224    -228288.75546   -177887.03463
  23639273.8364   -2452191.91546  -1910786.30561
 91  3 22 22 17 30.0000000  0  4G18G11G19G 2
  20892234.8594     981463.06848    764774.81563
  23382983.648    -1540508.672 6  -1200388.17921
  21067762.4924    -231656.30946   -180511.09863
  23630858.313    -2496417.950 6  -1945247.94521
 91  3 22 22 17 45.0000000  0  4G18G11G19G 2
  20896201.8674    1002311.88748    781020.61263
  23378205.1804   -1565621.48146  -1219956.47961
  21067126.8594    -234987.76546   -183107.02663
  23622451.3204   -2540593.54846  -1979670.27461
 91  3 22 22 18  0.0000000  0  4G18G11G19G 2
  20900190.4224    1023272.21648    797353.29962
  23373450.289    -1590619.521 6  -1239435.36621
  21066501.3054    -238282.26046   -185674.15863
  23614054.2194   -2584718.01346  -2014052.79161
 91  3 22 22 18 15.0000000  0  4G18G11G19G 2
  20904199.4224    1044341.06448    813770.55062
  23368714.367    -1615505.318 6  -1258826.78321
  21065879.9384    -241542.78746   -188214.81963
  23605666.070    -2628793.686 6  -2048397.27421
 91  3 22 22 18 30.0000000  0  4G18G11G19G 2
  20908229.9454    1065520.37848    830273.87662
  23363999.1094   -1640276.49746  -1278128.88161
  21065268.3444    -244767.27846   -190727.40363
  23597289.391    -2672818.811 6  -2082702.36521
 91  3 22 22 18 45.0000000  0  4G18G11G19G 2
  20912280.8754    1086806.20348    846860.19662
  23359305.484    -1664936.737 6  -1297344.54121
  21064658.3364    -247959.70146   -193214.99963
  23588920.484    -2716797.168 6  -2116971.01321
 91  3 22 22 19  0.0000000  0  4G18G11G19G 2
  20916352.3674    1108202.92648    863532.93462
  23354636.375    -1689481.251 6  -1316470.02521
  21064059.8204    -251115.40946   -195673.98563
  23580560.336    -2760723.917 6  -2151199.45221
 91  3 22 22 19 15.0000000  0  4G18G11G19G 2
  20920444.9694    1129707.97248    880290.07363
  23349986.125    -1713912.463 6  -1335507.22821
  21063462.3754    -254237.14046   -198106.49463
  23572212.039    -2804601.684 6  -2185389.72721
 91  3 22 22 19 30.0000000  0  4G18G11G19G 2
  20924557.7114    1151321.04148    897131.38863
  23345358.148    -1738230.012 6  -1354455.85821
  21062877.1724    -257325.17246   -200512.74663
  23563869.953    -2848430.363 6  -2219541.74021
 91  3 22 22 19 45.0000000  0  4G18G11G19G 2
  20928691.3054    1173046.04248    914059.92262
  23340753.070    -1762429.681 6  -1373312.63321
  21062296.1024    -260375.30546   -202889.46263
  23555541.234    -2892206.096 6  -2253652.51421
 91  3 22 22 20  0.0000000  0  4G18G11G19G 2
  20932846.1174    1194879.35548    931072.85563
  23336170.875    -1786514.695 6  -1392080.07121
  21061723.5784    -263391.04546   -205239.38263
  23547218.609    -2935932.182 6  -2287724.59321
 91  3 22 22 20 15.0000000  0  4G18G11G19G 2
  20937022.4774    1216821.39448    948170.51363
  23331609.563    -1810484.300 6  -1410757.58321
  21061154.6094    -266371.86346   -207562.08863
  23538908.547    -2979608.001 6  -2321757.50221
 91  3 22 22 20 30.0000000  0  4G18G11G19G 2
  20941217.5704    1238870.79748    965351.82663
  23327069.430    -1834339.419 6  -1429345.88421
  21060596.7274    -269318.98646   -209858.53963
  23530606.391    -3023234.556 6  -2355752.01921
 91  3 22 22 20 45.0000000  0  4G18G11G19G 2
  20945434.4144    1261029.14648    982618.03463
  23322552.945    -1858078.328 6  -1447843.62821
  21060039.3204    -272231.19946   -212127.79363
  23522314.148    -3066810.341 6  -2389706.97621
 91  3 22 22 21  0.0000000  0  4G18G11G19G 2
  20949671.4144    1283293.32548    999966.70762
  23318057.516    -1881703.680 6  -1466252.89321
  21059492.2664    -275111.51546   -214372.18663
  23514029.578    -3110338.187 6  -2423624.59421
 91  3 22 22 21 15.0000000  0  4G18G11G19G 2
  20953928.7194    1305666.17648   1017400.05663
  23313581.883    -1905212.045 6  -1484570.99421
  21058949.4224    -277956.36346   -216588.93963
  23505757.7194   -3153814.88246  -2457502.33161
 91  3 22 22 21 30.0000000  0  4G18G11G19G 2
  20958208.6884    1328152.68748   1034921.97463
  23309132.422    -1928598.149 6  -1502793.83321
  21058418.5084    -280760.84146   -218774.23963
  23497493.500    -3197235.309 6  -2491336.24121
 91  3 22 22 21 45.0000000  0  4G18G11G19G 2
  20962507.5164    1350745.82348   1052526.97863
  23304704.516    -1951868.662 6  -1520926.60521
  21057888.1954    -283531.95546   -220933.54063
  23489242.008    -3240606.243 6  -2525131.58321
 91  3 22 22 22  0.0000000  0  4G18G11G19G 2
  20966826.6884    1373447.40648   1070216.48963
  23300299.469    -1975021.281 6  -1538967.50521
  21057369.2814    -286267.58446   -223065.19263
  23480998.570    -3283925.632 6  -2558886.76021
 91  3 22 22 22 15.0000000  0  4G18G11G19G 2
  20971168.1174    1396255.86848   1087989.27563
  23295914.1334   -1998057.58846  -1556917.77761
  21056854.2664    -288969.68446   -225170.72063
  23472762.820    -3327195.045 6  -2592602.99421
 91  3 22 22 22 30.0000000  0  4G18G11G19G 2
  20975530.6414    1419178.49448   1105851.02363
  23291554.6884   -2020969.56746  -1574771.16961
  21056348.9384    -291630.52246   -227244.09863
  23464539.492    -3370406.729 6  -2626274.25721
 91  3 22 22 22 45.0000000  0  4G18G11G19G 2
  20979911.7504    1442205.97848   1123794.47963
  23287215.227    -2043766.299 6  -1592534.75921
  21055848.4924    -294259.39846   -229292.56663
  23456325.3674   -3413569.95746  -2659907.75161
 91  3 22 22 23  0.0000000  0  4G18G11G19G 2
  20984314.1484    1465343.26348   1141823.49563
  23282900.0164   -2066442.49546  -1610204.42461
  21055358.3754    -296851.24646   -231312.18663
  23448122.0234   -3456679.59646  -2693499.49861
 91  3 22 22 23 15.0000000  0  4G18G11G19G 2
  20988738.5164    1488590.35048   1159938.06663
  23278608.4844   -2088997.60046  -1627779.73461
  21054869.6024    -299405.88146   -233302.80663
  23439929.7974   -3499735.28746  -2727049.20061
 91  3 22 22 23 30.0000000  0  4G18G11G19G 2
  20993183.0314    1511944.93248   1178136.40563
  23274339.9924   -2111433.95946  -1645262.50861
  21054390.1724    -301925.86446   -235266.42563
  23431746.164    -3542739.388 6  -2760558.70921
 91  3 22 22 23 45.0000000  0  4G18G11G19G 2
  20997648.1174    1535409.21548   1196420.22363
  23270092.1254   -2133748.64246  -1662650.48461
  21053916.0704    -304408.47346   -237200.92463
  23423573.0474   -3585689.20746  -2794025.91361
 91  3 22 22 24  0.0000000  0  4G18G11G19G 2
  21002133.4614    1558984.51448   1214790.54863
  23265871.109    -2155940.023 6  -1679942.36421
  21053451.9224    -306852.51546   -239105.37363
  23415409.672    -3628583.268 6  -2827449.68721
 91  3 22 22 24 15.0000000  0  4G18G11G19G 2
  21006641.0474    1582666.35447   1233243.89063
  23261669.3524   -2178012.34046  -1697141.48361
  21052994.1954    -309262.26146   -240983.09563
  23407256.516    -3671425.833 6  -2860833.32321
 91  3 22 22 24 30.0000000  0  4G18G11G19G 2
  21011167.8524    1606456.62347   1251781.72363
  23257491.6564   -2199963.26346  -1714246.00261
  21052541.8444    -311635.67546   -242832.51363
  23399114.578    -3714214.953 6  -2894175.31921
 91  3 22 22 24 45.0000000  0  4G18G11G19G 2
  21015714.922     1630356.566 8   1270405.01423
  23253339.3284   -2221791.15646  -1731254.66361
  21052094.8364    -313971.20946   -244652.40563
  23390982.102    -3756949.070 6  -2927474.46021
 91  3 22 22 25  0.0000000  0  4G18G11G19G 2
  21020284.2344    1654364.94148   1289112.79763
  23249208.7114   -2243496.96446  -1748168.18261
  21051661.2114    -316270.12646   -246443.76763
  23382861.2424   -3799629.28946  -2960731.59861
 91  3 22 22 25 15.0000000  0  4G18G11G19G 2
  21024874.3914    1678483.58248   1307906.50363
  23245101.0004   -2265078.35846  -1764984.76061
  21051229.7344    -318530.51746   -248205.11163
  23374750.266    -3842253.305 6  -2993944.93921
 91  3 22 22 25 30.0000000  0  4G18G11G19G 2
  21029484.383     1702712.159 7   1326785.86723
  23241017.3204   -2286535.19346  -1781704.28961
  21050806.3054    -320752.48646   -249936.51663
  23366648.6564   -3884821.44546  -3027114.74861
 91  3 22 22 25 45.0000000  0  4G18G11G19G 2
  21034115.7274    1727046.98248   1345748.02563
  23236959.0394   -2307870.95946  -1798329.48061
  21050389.6414    -322939.89046   -251640.98363
  23358558.7734   -3927337.12946  -3060243.67761
 91  3 22 22 26  0.0000000  0  4G18G11G19G 2
  21038767.344     1751490.813 7   1364795.12323
  23232921.4064   -2329082.53946  -1814857.89261
  21049982.0864    -325089.75046   -253316.20363
  23350479.0234   -3969797.56246  -3093329.55161
 91  3 22 22 26 15.0000000  0  4G18G11G19G 2
  21043439.508     1776043.811 7   1383927.27923
  23228910.438    -2350169.032 6  -1831288.84121
  21049578.0554    -327201.30546   -254961.57663
  23342407.953    -4012201.826 6  -3126371.66621
 91  3 22 22 26 30.0000000  0  4G18G11G19G 2
  21048132.461     1800707.628 7   1403145.79523
  23224919.648    -2371128.611 6  -1847620.90621
  21049189.5784    -329273.00146   -256575.88663
  23334350.555    -4054548.207 6  -3159368.67321
 91  3 22 22 26 45.0000000  0  4G18G11G19G 2
  21052846.273     1825480.454 7   1422449.25323
  23220955.102    -2391963.024 6  -1863855.42421
  21048797.4224    -331306.83146   -258160.69163
  23326302.961    -4096838.740 6  -3192322.16321
 91  3 22 22 27  0.0000000  0  4G18G11G19G 2
  21057582.398     1850368.612 7   1441842.57923
  23217016.578    -2412665.382 6  -1879987.05321
  21048420.8134    -333296.30646   -259710.93263
  23318267.758    -4139066.597 6  -3225226.81121
 91  3 22 22 27 15.0000000  0  4G18G11G19G 2
  21062338.211     1875360.897 7   1461317.04223
  23213099.594    -2433246.581 6  -1896024.26721
  21048047.3914    -335252.35646   -261235.12663
  23310242.1954   -4181242.75646  -3258091.18161
 91  3 22 22 27 30.0000000  0  4G18G11G19G 2
  21067113.977     1900457.429 7   1480872.73323
  23209207.203    -2453706.063 6  -1911966.63721
  21047683.5784    -337174.76146   -262733.10763
  23302223.992    -4223366.927 6  -3290915.04621
 91  3 22 22 27 45.0000000  0  4G18G11G19G 2
  21071911.328     1925664.838 7   1500514.82323
  23205336.117    -2474036.760 6  -1927808.65721
  21047322.9534    -339056.71446   -264199.56263
  23294220.344    -4265432.305 6  -3323693.08221
 91  3 22 22 28  0.0000000  0  4G18G11G19G 2
  21076728.320     1950978.514 7   1520239.72223
  23201491.688    -2494242.854 6  -1943553.58821
  21046973.7734    -340902.59146   -265637.91263
  23286224.859    -4307443.158 6  -3356428.64021
 91  3 22 22 28 15.0000000  0  4G18G11G19G 2
  21081566.555     1976403.730 7   1540051.53223
  23197672.484    -2514318.932 6  -1959197.20421
  21046627.5554    -342707.03246   -267043.97063
  23278242.008    -4349394.000 6  -3389117.43421
 91  3 22 22 28 30.0000000  0  4G18G11G19G 2
  21086424.922     2001936.024 7   1559946.77923
  23193873.945    -2534269.052 6  -1974742.67221
  21046294.5554    -344474.40846   -268421.14263
  23270270.570    -4391289.205 6  -3421762.87921
 91  3 22 22 28 45.0000000  0  4G18G11G19G 2
  21091304.531     2027576.240 7   1579926.12223
  23190102.727    -2554092.179 6  -1990189.18121
  21045963.3914    -346203.96846   -269768.85463
  23262306.633    -4433127.797 6  -3454364.20121
 91  3 22 22 29  0.0000000  0  4G18G11G19G 2
  21096203.773     2053322.603 7   1599988.17623
  23186355.594    -2573789.646 6  -2005537.77521
  21045645.4534    -347897.24646   -271088.29163
  23254357.047    -4474911.272 6  -3486922.58721
 91  3 22 22 29 15.0000000  0  4G18G11G19G 2
  21101123.102     2079177.276 7   1620134.62923
  23182630.141    -2593358.696 6  -2020786.30321
  21045324.6884    -349551.63246   -272377.42463
  23246415.7504   -4516637.01446  -3519435.98161
 91  3 22 22 29 30.0000000  0  4G18G11G19G 2
  21106063.273     2105136.224 7   1640362.33723
  23178930.383    -2612803.030 6  -2035937.64721
  21045018.1254    -351171.18646   -273639.41463
  23238486.797    -4558308.940 6  -3551907.43821
 91  3 22 22 29 45.0000000  0  4G18G11G19G 2
  21111025.148     2131205.346 7   1660675.89423
  23175256.172    -2632116.509 6  -2050987.03721
  21044716.7584    -352749.89846   -274869.57963
  23230568.484    -4599921.050 6  -3584332.29021
 91  3 22 22 30  0.0000000  0  4G18G11G19G 2
  21116005.773     2157382.192 7   1681073.38823
  23171605.398    -2651301.421 6  -2065936.23921
  21044426.6644    -354290.35446   -276069.94063
  23222660.688    -4641475.686 6  -3616712.34921
 91  3 22 22 30 15.0000000  0  4G18G11G19G 2
  21121007.797     2183667.483 7   1701555.39023
  23167977.688    -2670356.205 6  -2080784.04821
  21044138.6024    -355791.24246   -277239.46163
  23214764.0554   -4682971.58546  -3649046.65661
 91  3 22 22 30 30.0000000  0  4G18G11G19G 2
  21126030.359     2210059.274 7   1722120.36923
  23164376.766    -2689282.337 6  -2095531.61021
  21043862.4844    -357254.12946   -278379.37463
  23206878.242    -4724410.281 6  -3681336.37921
 91  3 22 22 30 45.0000000  0  4G18G11G19G 2
  21131074.273     2236562.913 7   1742772.50523
  23160799.555    -2708074.754 6  -2110174.96821
  21043588.5704    -358674.04946   -279485.80663
  23199004.031    -4765786.653 6  -3713577.54721
 91  3 22 22 31  0.0000000  0  4G18G11G19G 2
  21136137.695     2263178.725 7   1763512.04723
  23157250.563    -2726732.201 6  -2124713.17021
  21043330.7344    -360050.18746   -280558.12363
  23191142.8054   -4807099.71446  -3745769.38061
 91  3 22 22 31 15.0000000  0  4G18G11G19G 2
  21141224.266     2289903.733 7   1784336.68123
  23153724.195    -2745257.550 6  -2139148.42821
  21043074.7814    -361385.64946   -281598.74163
  23183293.133    -4848352.406 6  -3777914.16921
 91  3 22 22 31 30.0000000  0  4G18G11G19G 2
  21146329.945     2316734.181 7   1805243.47223
  23150224.211    -2763654.121 6  -2153483.34621
  21042829.6094    -362683.83646   -282610.31163
  23175452.859    -4889548.180 6  -3810014.60721
 91  3 22 22 31 45.0000000  0  4G18G11G19G 2
  21151455.539     2343670.628 7   1826232.85823
  23146747.953    -2781921.047 6  -2167717.23821
  21042588.2194    -363943.97546   -283592.23863
  23167624.7034   -4930686.29246  -3842070.12361
 91  3 22 22 32  0.0000000  0  4G18G11G19G 2
  21156602.219     2370717.687 7   1847308.43823
  23143297.680    -2800053.266 6  -2181846.16821
  21042356.2894    -365161.35846   -284540.84963
  23159807.5704   -4971761.97446  -3874076.99761
 91  3 22 22 32 15.0000000  0  4G18G11G19G 2
  21161770.602     2397875.729 7   1868470.49823
  23139872.867    -2818050.369 6  -2195869.81621
  21042132.3674    -366335.79946   -285455.99463
  23152003.023    -5012774.827 6  -3906034.90321
 91  3 22 22 32 30.0000000  0  4G18G11G19G 2
  21166958.156     2425138.221 7   1889713.94523
  23136471.805    -2835918.433 6  -2209792.91121
  21041917.8984    -367473.53046   -286342.53563
  23144208.773    -5053731.002 6  -3937948.64321
 91  3 22 22 32 45.0000000  0  4G18G11G19G 2
  21172166.438     2452507.274 7   1911040.43123
  23133098.0084   -2853654.39346  -2223613.07461
  21041705.4224    -368571.61746   -287198.18463
  23136427.375    -5094627.768 6  -3969816.09221
 91  3 22 22 33  0.0000000  0  4G18G11G19G 2
  21177395.195     2479981.758 7   1932449.06723
  23129747.7894   -2871260.00246  -2237331.65961
  21041508.5784    -369632.00746   -288024.45963
  23128655.313    -5135466.926 6  -4001638.65521
 91  3 22 22 33 15.0000000  0  4G18G11G19G 2
  21182643.875     2507564.036 7   1953941.69523
  23126422.9064   -2888731.46946  -2250945.72461
  21041310.6334    -370651.02646   -288818.49863
  23120895.484    -5176244.834 6  -4033413.49321
 91  3 22 22 33 30.0000000  0  4G18G11G19G 2
  21187912.891     2535251.338 7   1975516.16423
  23123122.7034   -2906071.77746  -2264457.58661
  21041125.1024    -371632.03746   -289582.92263
  23113145.8204   -5216964.56146  -4065143.00461
 91  3 22 22 33 45.0000000  0  4G18G11G19G 2
  21193201.523     2563045.007 7   1997173.51523
  23119847.6564   -2923279.01246  -2277865.75661
  21040943.6254    -372573.36346   -290316.41963
  23105409.164    -5257624.346 6  -4096825.80421
 91  3 22 22 34  0.0000000  0  4G18G11G19G 2
  21198509.875     2590942.428 7   2018911.70823
  23116597.9384   -2940355.67846  -2291172.18361
  21040774.6334    -373477.54746   -291020.97463
  23097682.3984   -5298226.81846  -4128463.94261
 91  3 22 22 34 15.0000000  0  4G18G11G19G 2
  21203838.656     2618945.006 7   2040731.84423
  23113373.7344   -2957300.17246  -2304375.62661
  21040608.4694    -374343.20846   -291695.50763
  23089967.6174   -5338770.45146  -4160056.23061
 91  3 22 22 34 30.0000000  0  4G18G11G19G 2
  21209187.3834    2647052.18447   2062633.48463
  23110174.1644   -2974112.97246  -2317476.44161
  21040453.1804    -375171.00246   -292340.53663
  23082264.4224   -5379255.85746  -4191603.15161
 91  3 22 22 34 45.0000000  0  4G18G11G19G 2
  21214556.094     2675262.836 7   2084615.75323
  23106999.6094   -2990793.81246  -2330474.43461
  21040301.4614    -375960.87946   -292956.02363
  23074570.773    -5419682.876 6  -4223104.58321
 91  3 22 22 35  0.0000000  0  4G18G11G19G 2
  21219945.6024    2703581.21347   2106681.96163
  23103851.6254   -3007339.06546  -2343366.77661
  21040161.4064    -376709.50746   -293539.36763
  23066888.680    -5460047.975 6  -4254557.76221
 91  3 22 22 35 15.0000000  0  4G18G11G19G 2
  21225353.4384    2732003.34647   2128829.01963
  23100728.3204   -3023751.68346  -2356155.76661
  21040021.9454    -377419.96346   -294092.96863
  23059218.2894   -5500354.21146  -4285965.07161
 91  3 22 22 35 30.0000000  0  4G18G11G19G 2
  21230782.5554    2760531.03547   2151058.32763
  23097630.0004   -3040029.92946  -2368840.05861
  21039898.1414    -378090.45546   -294615.42863
  23051560.023    -5540599.970 6  -4317325.26521
 91  3 22 22 35 45.0000000  0  4G18G11G19G 2
  21236231.5864    2789165.89247   2173371.14463
  23094558.5234   -3056171.40846  -2381417.77361
  21039775.1564    -378718.94246   -295105.15363
  23043913.070    -5580782.887 6  -4348636.48921
 91  3 22 22 36  0.0000000  0  4G18G11G19G 2
  21241701.0864    2817906.42747   2195766.30963
  23091512.7974   -3072177.48246  -2393889.97161
  21039663.4774    -379306.95246   -295563.34563
  23036277.8054   -5620904.56146  -4379899.98661
 91  3 22 22 36 15.0000000  0  4G18G11G19G 2
  21247189.6484    2846752.48647   2218243.69563
  23088493.8284   -3088047.98946  -2406256.54261
  21039559.1174    -379854.45946   -295989.97063
  23028655.383    -5660965.028 6  -4411115.79721
 91  3 22 22 36 30.0000000  0  4G18G11G19G 2
  21252698.789     2875702.515 7   2240802.10322
  23085497.9224   -3103784.11046  -2418518.39361
  21039466.3594    -380362.74546   -296386.03663
  23021041.3594   -5700965.56646  -4442284.90261
 91  3 22 22 36 45.0000000  0  4G18G11G19G 2
  21258226.7114    2904750.36247   2263436.73162
  23082528.3054   -3119391.63746  -2430680.04861
  21039371.9064    -380837.83646   -296756.23363
  23013441.711    -5740911.998 6  -4473411.85321
 91  3 22 22 37  0.0000000  0  5G18G11G19G16G 2
  21263773.5704    2933900.51647   2286151.07562
  23079584.3054   -3134865.60846  -2442737.62561
  21039289.0004    -381274.94846   -297096.84363
  24395384.9224     -19871.20245
  23005850.875    -5780799.541 6  -4504492.91421
 91  3 22 22 37 15.0000000  0  5G18G11G19G16G 2
  21269340.922     2963155.709 7   2308947.27223
  23076664.2894   -3150203.31646  -2454689.02261
  21039214.1484    -381671.41746   -297405.78163
  24391627.0704     -39617.06745
  22998272.680    -5820625.526 6  -4535526.00921
 91  3 22 22 37 30.0000000  0  5G18G11G19G16G 2
  21274928.7974    2992514.77647   2331824.40962
  23073771.8834   -3165405.09246  -2466534.50561
  21039149.1024    -382027.79746   -297683.48063
  24387894.1024     -59239.42145
  22990706.055    -5860390.403 6  -4566511.48921
 91  3 22 22 37 45.0000000  0  5G18G11G19G16G 2
  21280534.7894    3021978.37447   2354782.99563
  23070905.7584   -3180470.12346  -2478273.42561
  21039086.4774    -382343.60746   -297929.56863
  24384184.297      -78737.306 5
  22983149.063    -5900093.426 6  -4597448.77421
 91  3 22 22 38  0.0000000  0  5G18G11G19G16G 2
  21286162.2424    3051547.77947   2377824.03563
  23068064.1094   -3195397.14546  -2489904.81161
  21039034.7194    -382617.57746   -298143.05663
  24380497.367      -98109.483 5        -0.47831
  22975604.367    -5939733.383 6  -4628336.91821
 91  3 22 22 38 15.0000000  0  5G18G11G19G16G 2
  21291807.4454    3081218.61947   2400944.10663
  23065250.8444   -3210189.66046  -2501431.38961
  21038988.3134    -382853.38946   -298326.81063
  24376834.109     -117359.706 5    -15000.65321
  22968073.320    -5979314.078 6  -4659178.87521
 91  3 22 22 38 30.0000000  0  5G18G11G19G16G 2
  21297473.8054    3110994.19947   2424145.80063
  23062461.289    -3224843.994 6  -2512850.30121
  21038954.5864    -383047.49746   -298478.07063
  24373194.008     -136484.307 5    -29902.90321
  22960554.461    -6018831.873 6  -4689971.82121
 91  3 22 22 38 45.0000000  0  5G18G11G19G16G 2
  21303159.7504    3140872.33647   2447427.40962
  23059699.4304   -3239362.42146  -2524163.30461
  21038921.7504    -383202.33146
  24369576.8524    -155485.82645    -44709.23961
  22953045.289    -6058289.081 6  -4720717.56221
 91  3 22 22 39  0.0000000  0  5G18G11G19G16G 2
  21308865.0004    3170851.73747   2470787.92063
  23056960.6564   -3253745.92846  -2535371.18161
  21038904.4844    -383319.15346
  24365985.4614    -174365.38145    -59420.62261
  22945548.859    -6097686.843 6  -4751416.97421
 91  3 22 22 39 15.0000000  0  5G18G11G19G16G 2
  21314589.0314    3200933.94147   2494228.53863
  23054250.398    -3267992.482 6  -2546472.34321
  21038885.4924    -383396.06146
  24362416.5634    -193120.77345    -74035.16961
  22938063.836    -6137023.176 6  -4782068.52621
 91  3 22 22 39 30.0000000  0  5G18G11G19G16G 2
  21320332.5314    3231119.50947   2517749.69862
  23051566.063    -3282100.740 6  -2557465.74121
  21038880.0314    -383431.68446
  24358869.938     -211751.028 5    -88552.21221
  22930590.148    -6176296.833 6  -4812671.23521
 91  3 22 22 39 45.0000000  0  5G18G11G19G16G 2
  21326097.0234    3261407.44847   2541350.63663
  23048906.797    -3296071.868 6  -2568352.28821
  21038880.2344    -383427.34746
  24355351.945     -230257.226 5   -102972.62521
  22923127.453    -6215509.167 6  -4843226.16221
 91  3 22 22 40  0.0000000  0  5G18G11G19G16G 2
  21331878.8754    3291797.52347   2565031.15562
  23046274.008    -3309905.626 6  -2579131.79021
  21038890.7584    -383382.96246
  24351850.7424    -248639.48745   -117296.44561
  22915677.305    -6254660.157 6  -4873733.28821
 91  3 22 22 40 15.0000000  0  5G18G11G19G16G 2
  21337682.2584    3322289.84147   2588791.34562
  23043667.781    -3323601.232 6  -2589803.64021
  21038905.4064    -383297.90246
  24348378.766     -266896.937 5   -131523.02321
  22908237.859    -6293748.871 6  -4904191.88921
 91  3 22 22 40 30.0000000  0  5G18G11G19G16G 2
  21343503.8594    3352877.71447   2612625.98762
  23041086.852    -3337165.595 6  -2600373.23021
  21038931.3054    -383179.37646
  24344926.3984    -285036.52945   -145657.76461
  22900810.172    -6332782.417 6  -4934607.49621
 91  3 22 22 40 45.0000000  0  5G18G11G19G16G 2
  21349343.5084    3383567.71247   2636540.21762
  23038531.516    -3350591.593 6  -2610834.99121
  21038956.6804    -383020.40846
  24341494.8054    -303051.39945   -159695.29661
  22893395.289    -6371753.816 6  -4964974.68521
 91  3 22 22 41  0.0000000  0  5G18G11G19G16G 2
  21355203.6094    3414363.66447   2660537.00462
  23036003.016    -3363875.093 6  -2621185.72821
  21038997.1484    -382816.72546
  24338094.2424    -320937.49645   -173632.51161
  22885991.188    -6410658.928 6  -4995290.21521
 91  3 22 22 41 15.0000000  0  5G18G11G19G16G 2
  21361083.0864    3445261.40747   2684613.10563
  23033502.063    -3377019.873 6  -2631428.36721
  21039043.0704    -382572.33946   -298107.86763
  24334713.2584    -338698.58244   -187472.29161
  22878599.617    -6449501.614 6  -5025557.10421
 91  3 22 22 41 30.0000000  0  5G18G11G19G16G 2
  21366981.6414    3476257.24947   2708765.65363
  23031026.086    -3390029.190 6  -2641565.45821
  21039101.1414    -382290.61746   -297888.34763
  24331356.3914    -356337.92044   -201217.23461
  22871219.570    -6488285.265 6  -5055777.98921
 91  3 22 22 41 45.0000000  0  5G18G11G19G16G 2
  21372898.1804    3507352.42647   2732995.59862
  23028579.086    -3402901.609 6  -2651595.86321
  21039158.1644    -381970.51246   -297638.91963
  24328023.648     -373854.641 4   -214866.60921
  22863850.500    -6527008.622 6  -5085951.88821
 91  3 22 22 42  0.0000000  0  5G18G11G19G16G 2
  21378835.6804    3538550.56447   2757305.77662
  23026155.047    -3415632.861 6  -2661516.28021
  21039226.8594    -381607.81246   -297356.29663
  24324712.000     -391244.201 4   -228416.89421
  22856491.867    -6565667.502 6  -5116075.55821
 91  3 22 22 42 15.0000000  0  5G18G11G19G16G 2
  21384791.2194    3569846.12747   2781691.86662
  23023758.617    -3428228.368 6  -2671330.91121
  21039302.1174    -381207.98446   -297044.74263
  24321430.6414    -408512.04144   -241872.34761
  22849147.3054   -6604267.44346  -5146153.29261
 91  3 22 22 42 30.0000000  0  5G18G11G19G16G 2
  21390766.2894    3601242.30947   2806156.36262
  23021386.000    -3440684.532 6  -2681036.97321
  21039390.1174    -380767.49246   -296701.50563
  24318166.680     -425654.854 4   -255230.35421
  22841814.773    -6642804.827 6  -5176182.27921
 91  3 22 22 42 45.0000000  0  5G18G11G19G16G 2
  21396758.9224    3632737.85547   2830698.28362
  23019043.344    -3453002.282 6  -2690635.17621
  21039477.7274    -380287.26246   -296327.29963
  24314926.516     -442673.562 4   -268491.69121
  22834491.109    -6681280.608 6  -5206163.26821
 91  3 22 22 43  0.0000000  0  5G18G11G19G16G 2
  21402771.398     3664330.887 7   2855316.15523
  23016726.1024   -3465183.22346  -2700126.78661
  21039577.0554    -379769.20046   -295923.62063
  24311712.7344    -459569.98144   -281657.73161
  22827182.6564   -6719696.46046  -5236097.57361
 91  3 22 22 43 15.0000000  0  5G18G11G19G16G 2
  21408802.0704    3696024.77947   2880012.57462
  23014434.4694   -3477223.90146  -2709509.15961
  21039682.6094    -379209.85546   -295487.81763
  24308521.1414    -476340.78444   -294726.01661
  22819884.438    -6758049.117 6  -5265982.70021
 91  3 22 22 43 30.0000000  0  5G18G11G19G16G 2
  21414852.8054    3727821.23947   2904788.90562
  23012170.586    -3489122.064 6  -2718780.49921
  21039799.8134    -378607.17846   -295018.25863
  24305354.3524    -492983.46944   -307694.49261
  22812597.2034   -6796336.48246  -5295816.97661
 91  3 22 22 43 45.0000000  0  5G18G11G19G16G 2
  21420922.891     3759716.548 7   2929642.05622
  23009931.3984   -3500881.10946  -2727943.69661
  21039918.852     -377964.538 6   -294517.74822
  24302210.484     -509502.262 3   -320566.90621
  22805323.656    -6834561.992 6  -5325603.32121
 91  3 22 22 44  0.0000000  0  5G18G11G19G16G 2
  21427011.4844    3791705.04647
  23007721.9144   -3512506.68846
  21040051.2424    -377287.54446
  24299091.664     -525903.217 3
  22798062.844    -6872731.488 6
 91  3 22 22 44 15.0000000  0  5G18G11G19G16G 2
  21433117.2664    3823789.58247
  23005536.9774   -3523995.72246
  21040187.1254    -376572.54946
  24295994.461     -542185.073 3
  22790811.117    -6910842.076 6
 91  3 22 22 44 30.0000000  0  5G18G11G19G16G 2
  21439242.3364    3855969.48546
  23003379.4534   -3535348.16046
  21040332.7734    -375820.36645
  24292928.055     -558345.878 2
  22783571.0164   -6948893.49045
 91  3 22 22 44 45.0000000  0  5G18G11G19G16G 2
  21445385.680     3888251.815 6
  23001245.4454   -3546555.25646
  21040482.2344    -375024.25345
  24289878.164     -574372.009 2
  22776343.0164   -6986876.82145
 91  3 22 22 45  0.0000000  0  5G18G11G19G16G 2
  21451549.1254    3920635.35246
  22999140.7734   -3557619.31746
  21040641.9534    -374184.88745
  24286846.711     -590270.792 2
  22769129.3204   -7024794.89145
 91  3 22 22 45 15.0000000  0  5G18G11G19G16G 2
  21457730.727     3953116.869 6        -0.07431
  22997061.9454   -3568543.10046
  21040809.6644    -373305.22146
  24283850.289     -606044.565 2
  22761924.3054   -7062650.43045
 91  3 22 22 45 30.0000000  0  5G18G11G19G16G 2
  21463930.500     3985697.924 6     25387.46921
  22995011.2664   -3579324.44146
  21040988.1024    -372383.16745
  24280871.602     -621691.468 2
  22754733.805    -7100441.487 5
 91  3 22 22 45 45.0000000  0  5G18G11G19G16G 2
  21470147.0394    4018372.46046     50848.09761
  22992985.5554   -3589969.63646        -0.38771
  21041167.8134    -371425.20546
  24277917.039     -637217.373 2
  22747552.4304   -7138174.18745
 91  3 22 22 46  0.0000000  0  5G18G11G19G16G 2
  21476383.688     4051141.451 6     76382.29621
  22990984.375    -3600476.793 6     -8187.74721
  21041359.0234    -370429.48946        -0.28871
  24274986.281     -652620.612 2
  22740384.352    -7175846.663 5        -0.38231
 91  3 22 22 46 15.0000000  0  5G18G11G19G16G 2
  21482638.8204    4084007.95046    101992.49561
  22989011.9454   -3610842.93646    -16265.20461
  21041554.242     -369393.002 6       807.38921
  24272075.008     -667898.670 2
  22733226.398    -7213456.163 5    -29306.30421
 91  3 22 22 46 30.0000000  0  5G18G11G19G16G 2
  21488909.9774    4116968.08746    127675.72161
  22987066.383    -3621071.511 6    -24235.35921
  21041760.9534    -368319.33046      1644.06761
  24269197.008     -683055.211 2
  22726081.492    -7251006.329 6    -58565.91921
 91  3 22 22 46 45.0000000  0  5G18G11G19G16G 2
  21495200.1174    4150024.27246    153433.76361
  22985146.227    -3631159.528 6    -32096.03921
  21041970.391     -367205.525 6      2512.02521
  24266331.000     -698087.301 2
  22718948.6804   -7288494.19246    -87777.02461
 91  3 22 22 47  0.0000000  0  5G18G11G19G16G 2
  21501508.875     4183178.901 6    179268.52721
  22983254.211    -3641104.853 6    -39845.50621
  21042190.961     -366049.632 6      3412.77321
  24263495.563     -712992.485 2
  22711826.117    -7325917.552 6   -116937.86521
 91  3 22 22 47 15.0000000  0  5G18G11G19G16G 2
  21507837.7894    4216432.59746    205180.46361
  22981387.922    -3650906.128 6    -47482.77621
  21042418.1254    -364850.37746      4347.29261
  24260685.6254    -727769.68742
  22704716.977    -7363275.055 6   -146047.42221
 91  3 22 22 47 30.0000000  0  5G18G11G19G16G 2
  21514183.9774    4249781.86347    231166.87761
  22979549.836    -3660566.831 6    -55010.47121
  21042655.6884    -363611.31646      5312.82961
  24257896.5004    -742422.31843        -0.38071
  22697619.4224   -7400570.38846   -175108.50161
 91  3 22 22 47 45.0000000  0  5G18G11G19G16G 2
  21520546.773     4283222.104 7    257224.18321
  22977737.4384   -3670090.75846    -62431.60161
  21042897.6024    -362336.34346      6306.35361
  24255126.9144    -756954.71843    -11324.15461
  22690532.797    -7437807.539 6   -204124.26321
 91  3 22 22 48  0.0000000  0  5G18G11G19G16G 2
  21526929.0164    4316759.92947    283357.52461
  22975952.5704   -3679471.26846    -69740.98061
  21043152.320     -361019.204 6      7332.73821
  24252389.3524    -771360.11743    -22548.97061
  22683459.656    -7474979.899 6   -233089.53421
 91  3 22 22 48 15.0000000  0  5G18G11G19G16G 2
  21533329.719     4350391.535 7    309563.95021
  22974193.7734   -3688711.57946    -76941.09761
  21043404.922     -359662.802 6      8389.71521
  24249673.0634    -785641.75943    -33677.41061
  22676397.805    -7512090.482 6   -262006.66621
 91  3 22 22 48 30.0000000  0  5G18G11G19G16G 2
  21539747.1804    4384115.72947    335842.52461
  22972462.531    -3697813.068 6    -84033.04921
  21043673.359     -358268.538 6      9476.20521
  24246977.6024    -799801.15843    -44710.53061
  22669346.688    -7549140.990 6   -290876.98121
 91  3 22 22 48 45.0000000  0  5G18G11G19G16G 2
  21546181.914     4417935.518 7    362195.58621
  22970756.711    -3706771.916 6    -91013.85421
  21043943.6724    -356832.91346     10594.91161
  24244306.7504    -813834.51643    -55645.46461
  22662307.945    -7586127.627 6   -319697.53321
 91  3 22 22 49  0.0000000  0  5G18G11G19G16G 2
  21552636.070     4451852.199 7    388624.13821
  22969080.0004   -3715586.45546    -97882.20961
  21044227.781     -355354.125 6     11747.25721
  24241657.539     -827740.242 4    -66480.95021
  22655282.5474   -7623048.66746   -348466.98461
 91  3 22 22 49 15.0000000  0  5G18G11G19G16G 2
  21559108.086     4485863.636 7    415126.54021
  22967428.1334   -3724259.02146   -104639.93461
  21044515.305     -353834.596 6     12931.35721
  24239040.203     -841520.672 3    -77218.79321
  22648268.0864   -7659906.46546   -377187.13161
 91  3 22 22 49 30.0000000  0  5G18G11G19G16G 2
  21565599.391     4519973.349 7    441705.52121
  22965807.0084   -3732785.70046   -111283.97761
  21044813.289     -352270.303 6     14150.32721
  24236437.1724    -855172.24443    -87856.20661
  22641267.102    -7696697.203 6   -405855.04521
 91  3 22 22 49 45.0000000  0  5G18G11G19G16G 2
  21572107.4534    4554174.44447    468355.68461
  22964210.086    -3741172.880 6   -117819.33121
  21045117.1094    -350667.96546     15398.93861
  24233866.9144    -868701.45744    -98398.30461
  22634276.4454   -7733427.40446   -434475.78961
 91  3 22 22 50  0.0000000  0  5G18G11G19G16G 2
  21578633.6024    4588468.70447    495078.45361
  22962640.633    -3749419.131 6   -124244.88421
  21045432.5554    -349026.36946     16678.12761
  24231310.0864    -882106.77243   -108843.93461
  22627298.992    -7770095.665 6   -463048.28121
 91  3 22 22 50 15.0000000  0  6G18G11G19G16G 2G 6
  21585176.8674    4622854.39047    521872.45761
  22961098.148    -3757524.539 6   -130560.68121
  21045749.8674    -347345.71346     17987.76862
  24228783.289     -895388.713 4   -119193.36021
  22620332.8524   -7806702.32846   -491572.77261
  24469752.2114         -0.45953
 91  3 22 22 50 30.0000000  0  6G18G11G19G16G 2G 6
  21591738.6024    4657331.76047    548737.91561
  22959583.648    -3765489.490 6   -136767.03021
  21046076.2344    -345626.17746     19327.70062
  24226279.0554    -908547.34044   -129446.68961
  22613378.3984   -7843247.56246   -520049.38861
  24463306.7424     -33861.01543
 91  3 22 22 50 45.0000000  0  6G18G11G19G16G 2G 6
  21598318.422     4691905.985 7    575678.84521
  22958094.875    -3773308.477 6   -142859.64321
  21046411.5004    -343862.37646     20702.13162
  24223799.8594    -921577.34344   -139599.80261
  22606437.984    -7879725.926 6   -548473.89321
  24456863.273      -67720.186 3
 91  3 22 22 51  0.0000000  0  6G18G11G19G16G 2G 6
  21604914.2974    4726572.74947    602691.87561
  22956632.789    -3780984.915 6   -148841.16721
  21046757.9304    -342057.72146     22108.39062
  24221346.2194    -934482.63744   -149655.75561
  22599508.5084   -7916140.98446   -576849.06961
  24450419.242     -101581.526 3
 91  3 22 22 51 15.0000000  0  6G18G11G19G16G 2G 6
  21611528.9774    4761331.55247    629776.62961
  22955199.773    -3788519.720 6   -154712.34321
  21047106.3834    -340213.09746     23545.79362
  24218913.594     -947263.759 4   -159614.96121
  22592590.8594   -7952493.66546   -605175.65861
  24443972.852     -135445.996 3        -0.45431
 91  3 22 22 51 30.0000000  0  6G18G11G19G16G 2G 6
  21618161.1414    4796183.57947    656934.01661
  22953794.586    -3795910.957 6   -160471.64321
  21047468.0864    -338326.67746     25015.76862
  24216506.1484    -959918.76744   -169475.84161
  22585683.6954   -7988782.10446   -633452.17361
  24437533.250     -169311.832 4    -26389.13121
 91  3 22 22 51 45.0000000  0  6G18G11G19G16G 2G 6
  21624810.9304    4831127.59047    684163.07961
  22952414.523    -3803159.548 6   -166119.80121
  21047831.8834    -336399.42446     26517.55762
  24214121.734     -972449.040 4   -179239.58921
  22578790.1414   -8025007.24346   -661679.37561
  24431085.9844    -203180.14244    -52779.74961
 91  3 22 22 52  0.0000000  0  6G18G11G19G16G 2G 6
  21631478.0314    4866159.75347    711460.83061
  22951060.773    -3810269.412 6   -171659.86721
  21048206.5474    -334435.31446     28048.06162
  24211761.695     -984858.341 4   -188909.09021
  22571907.6644   -8061172.86246   -689860.19261
  24424640.5554    -237055.04044    -79175.48061
 91  3 22 22 52 15.0000000  0  6G18G11G19G16G 2G 6
  21638161.7034    4901286.54147    738832.31861
  22949735.492    -3817233.364 6   -177086.22121
  21048588.4384    -332427.27246     29612.80762
  24209422.3914    -997139.65644   -198478.82561
  22565040.6644   -8097271.94546   -717989.16661
  24418193.9534    -270929.56944   -105570.91361
 91  3 22 22 52 30.0000000  0  6G18G11G19G16G 2G 6
  21644863.555     4936504.208 7    766274.61821
  22948436.0164   -3824054.95046   -182401.65561
  21048980.8834    -330378.83446     31209.02362
  24207107.1334   -1009296.56744   -207951.63161
  22558181.164    -8133308.146 6   -746069.14621
  24411748.2504    -304807.34344   -131968.90461
 91  3 22 22 52 45.0000000  0  6G18G11G19G16G 2G 6
  21651582.664     4971814.646 7    793789.19821
  22947167.2114   -3830732.38546   -187604.76961
  21049374.0634    -328288.26546     32838.06762
  24204820.0004   -1021327.59544   -217326.38561
  22551336.305    -8169279.861 6   -774098.88721
  24405300.836     -338686.820 5   -158368.21821
 91  3 22 22 53  0.0000000  0  6G18G11G19G16G 2G 6
  21658320.422     5007217.392 7    821375.71022
  22945925.023    -3837265.366 6   -192695.31621
  21049783.1954    -326155.43946     34500.03762
  24202551.8524   -1033232.39744   -226602.76461
  22544503.148    -8205186.686 6   -802078.06021
  24398853.375     -372567.737 5
 91  3 22 22 53 15.0000000  0  6G18G11G19G16G 2G 6
  21665072.813     5042709.294 7    849031.69622
  22944705.2894   -3843656.68546   -197675.47961
  21050195.5004    -323983.10346     36192.79462
  24200311.133    -1045014.076 4   -235783.19421
  22537682.594    -8241031.544 6   -830008.94621
  24392401.430     -406453.190 5
 91  3 22 22 53 30.0000000  0  6G18G11G19G16G 2G 6
  21671843.289     5078289.694 7    876756.63622
  22943518.781    -3849906.699 6   -202545.53821
  21050616.7584    -321771.51646     37916.14162
  24198092.0234   -1056672.56945   -244867.66361
  22530871.602    -8276814.652 6   -857891.71321
  24385956.141     -440343.603 5        -0.06531
 91  3 22 22 53 45.0000000  0  6G18G11G19G16G 2G 6
  21678632.227     5113958.742 7    904550.66022
  22942355.9844   -3856015.20646   -207305.32861
  21051044.5234    -319520.62246     39670.11562
  24195896.633    -1068207.973 4   -253856.20321
  22524073.680    -8312535.982 6   -885726.34521
  24379505.969     -474238.938 5    -26411.78121
 91  3 22 22 54  0.0000000  0  6G18G11G19G16G 2G 6
  21685436.7734    5149715.73447    932413.20962
  22941220.2194   -3861982.15146   -211954.80561
  21051483.7664    -317230.44546     41454.70062
  24193726.5234   -1079620.30544   -262748.85261
  22517289.7424   -8348195.54946   -913512.84661
  24373053.4614    -508139.25745
 91  3 22 22 54 15.0000000  0  6G18G11G19G16G 2G 6
  21692257.2344    5185558.06947    960342.26562
  22940111.211    -3867810.259 6   -216496.10321
  21051922.4454    -314903.74546     43267.75062
  24191578.906    -1090912.545 5   -271547.89521
  22510515.039    -8383796.140 6   -941253.39521
  24366600.0864    -542047.37245
 91  3 22 22 54 30.0000000  0  6G18G11G19G16G 2G 6
  21699093.109     5221487.946 7    988339.52422
  22939028.727    -3873497.332 6   -220927.51021
  21052373.8914    -312538.46546     45110.85762
  24189452.9224   -1102082.44745   -280251.63661
  22503751.4774   -8419335.57846   -968946.29261
  24360143.8754    -575961.32544
 91  3 22 22 54 45.0000000  0  6G18G11G19G16G 2G 6
  21705947.7504    5257506.04447   1016405.53262
  22937973.289    -3879042.041 6   -225247.98621
  21052832.1414    -310133.09246     46985.20462
  24187350.6334   -1113128.93745   -288859.23261
  22497001.156    -8454812.247 6   -996590.28421
  24353689.953     -609879.819 4
 91  3 22 22 55  0.0000000  0  6G18G11G19G16G 2G 6
  21712819.477     5293611.630 7   1044539.70722
  22936945.367    -3884444.872 6   -229457.90221
  21053299.5234    -307688.29746     48890.26662
  24185269.867    -1124052.567 5   -297371.06621
  22490261.727    -8490226.863 6  -1024185.92821
  24347233.8674    -643803.57744
 91  3 22 22 55 15.0000000  0  6G18G11G19G16G 2G 6
  21719706.492     5329805.947 7   1072743.02422
  22935942.391    -3889704.377 6   -233556.13321
  21053768.5864    -305202.31246     50827.43562
  24183215.5784   -1134851.78645   -305785.94561
  22483533.289    -8525578.095 6  -1051732.17421
  24340776.6724    -677731.29644
 91  3 22 22 55 30.0000000  0  6G18G11G19G16G 2G 6
  21726612.266     5366089.996 7   1101016.26522
  22934970.3444   -3894818.45546   -237541.04361
  21054252.1884    -302673.30946     52798.11962
  24181185.0944   -1145524.85945   -314102.58461
  22476819.977    -8560864.052 6  -1079227.56021
  24334323.0944    -711661.02544        -0.31771
 91  3 22 22 55 45.0000000  0  6G18G11G19G16G 2G 6
  21733532.0944    5402463.22347   1129358.99862
  22934024.734    -3899788.225 6   -241413.50721
  21054739.6564    -300102.47246     54801.40262
  24179176.695    -1156072.793 5   -322321.64721
  22470115.852    -8596085.755 6  -1106672.87921
  24327867.7894    -745593.95643    -26441.28961
 91  3 22 22 56  0.0000000  0  6G18G11G19G16G 2G 6
  21740472.125     5438927.513 7   1157772.68222
  22933106.273    -3904611.355 6   -245171.70721
  21055238.5704    -297487.54046     56839.04462
  24177194.852    -1166493.448 5   -330441.56921
  22463426.492    -8631240.840 6  -1134066.29021
  24321406.5084    -779527.84143    -52883.05461
 91  3 22 22 56 15.0000000  0  6G18G11G19G16G 2G 6
  21747426.836     5475478.762 7   1186254.12922
  22932217.820    -3909291.756 6   -248818.68721
  21055741.9064    -294832.29746     58908.10062
  24175233.8754   -1176790.40745   -338465.11461
  22456748.023    -8666333.139 6  -1161410.77121
  24314950.594     -813466.697 3    -79328.66621
 91  3 22 22 56 30.0000000  0  6G18G11G19G16G 2G 6
  21754399.953     5512115.394 7   1214802.11122
  22931352.281    -3913830.714 6   -252355.45421
  21056256.3054    -292137.99946     61007.58262
  24173298.7194   -1186965.52745   -346393.72261
  22450082.313    -8701363.972 6  -1188707.35921
  24308487.9454    -847412.09643   -105779.40761
 91  3 22 22 56 45.0000000  0  6G18G11G19G16G 2G 6
  21761387.242     5548840.880 7   1243419.32722
  22930517.6024   -3918224.42346   -255779.03661
  21056775.4454    -289400.99746     63140.34262
  24171386.430    -1197014.988 5   -354224.39521
  22443428.3524   -8736329.55346  -1215953.10961
  24302031.1334    -881360.25243   -132232.30361
 91  3 22 22 57  0.0000000  0  6G18G11G19G16G 2G 6
  21768392.430     5585650.915 7   1272102.42122
  22929708.039    -3922476.716 6   -259092.42821
  21057305.6884    -286625.14646     65303.36762
  24169497.133    -1206942.572 5   -361960.12021
  22436786.1024   -8771233.82446  -1243151.08461
  24295566.2894    -915315.18043   -158690.44561
 91  3 22 22 57 15.0000000  0  6G18G11G19G16G 2G 6
  21775414.000     5622545.914 7   1300851.72222
  22928924.0084   -3926586.96746   -262295.13861
  21057840.023     -283809.704 6     67497.24723
  24167634.0084   -1216747.50245   -369600.25961
  22430155.1884   -8806076.23646  -1270300.86261
  24289102.461     -949276.169 3   -185153.34421
 91  3 22 22 57 30.0000000  0  6G18G11G19G16G 2G 6
  21782449.797     5659524.333 7   1329666.02822
  22928171.3984   -3930556.39746   -265388.11961
  21058384.7274    -280955.95546     69720.97262
  24165789.461    -1226431.371 5   -377146.05421
  22423536.930    -8840858.174 6  -1297403.51121
  24282640.469     -983244.791 3   -211622.16021
 91  3 22 22 57 45.0000000  0  6G18G11G19G16G 2G 6
  21789502.7894    5696586.57447   1358545.65462
  22927441.7194   -3934384.31446   -268370.82161
  21058933.1414    -278063.15446     71975.14363
  24163969.555    -1235993.668 5   -384597.13721
  22416929.0944   -8875578.63446  -1324458.25861
  24276177.984    -1017220.386 3   -238096.43121
 91  3 22 22 58  0.0000000  0  6G18G11G19G16G 2G 6
  21796571.8054    5733733.61447   1387491.36262
  22926738.8134   -3938069.54746   -271242.33961
  21059495.156     -275130.215 6     74260.58423
  24162171.6414   -1245433.34045   -391952.62661
  22410334.242    -8910236.565 6  -1351464.27221
  24269710.180    -1051201.806 3   -264575.21521
 91  3 22 22 58 15.0000000  0  6G18G11G19G16G 2G 6
  21803657.742     5770967.203 7   1416504.50322
  22926066.023    -3941610.463 6   -274001.41621
  21060056.5394    -272155.45946     76578.61563
  24160398.2584   -1254748.58845   -399211.18361
  22403751.320    -8944830.346 6  -1378420.29821
  24263243.8204   -1085187.62844   -291057.43661
 91  3 22 22 58 30.0000000  0  6G18G11G19G16G 2G 6
  21810757.953     5808284.913 7   1445583.19722
  22925419.867    -3945008.814 7   -276649.39821
  21060631.8984    -269140.57046     78927.91363
  24158648.297    -1263941.103 5   -406374.14021
  22397179.992    -8979361.695 6  -1405327.68521
  24256772.266    -1119179.711 4   -317544.56821
 91  3 22 22 58 45.0000000  0  6G18G11G19G16G 2G 6
  21817876.695     5845690.303 7   1474730.20922
  22924801.2974   -3948260.55047   -279183.13461
  21061212.0084    -266081.49746     81311.64063
  24156926.7274   -1273007.27745   -413438.61861
  22390621.2114   -9013826.63546  -1432183.32561
  24250303.1414   -1153173.98144   -344033.37561
 91  3 22 22 59  0.0000000  0  6G18G11G19G16G 2G 6
  21825010.3984    5883176.00147   1503939.79862
  22924208.367    -3951373.185 7   -281608.48521
  21061802.5314    -262985.73846     83723.95263
  24155222.711    -1281954.565 5   -420410.45021
  22384073.8364   -9048232.75646  -1458993.13061
  24243834.578    -1187178.113 4   -370529.88121
 91  3 22 22 59 15.0000000  0  6G18G11G19G16G 2G 6
  21832158.914     5920746.376 7   1533215.37322
  22923644.344    -3954341.671 7   -283921.50921
  21062399.4694    -259848.26546     86168.77563
  24153542.8914   -1290778.21445   -427285.92961
  22377538.563    -9082575.045 6  -1485753.19621
  24237361.4454   -1221187.22945   -397030.27161
 91  3 22 22 59 30.0000000  0  6G18G11G19G16G 2G 6
  21839326.1804    5958403.18947   1562558.30262
  22923107.3364   -3957164.21147   -286120.80361
  21063004.9304    -256667.04446     88647.68263
  24151886.9304   -1299476.21545   -434063.51961
  22371015.9694   -9116851.45546  -1512461.93061
  24230887.0394   -1255199.43945   -423533.07861
 91  3 22 22 59 45.0000000  0  6G18G11G19G16G 2G 6
  21846506.9304    5996144.73147   1591967.25762
  22922596.4534   -3959842.51847   -288207.71061
  21063618.1564    -253444.14146     91159.07763
  24150258.352    -1308050.525 5   -440744.72921
  22364505.703    -9151063.786 6  -1539120.73021
  24224415.031    -1289216.630 5   -450039.76521
 91  3 22 23  0  0.0000000  0  6G18G11G19G16G 2G 6
  21853704.289     6033970.009 7   1621441.45422
  22922113.992    -3962377.012 7   -290182.56121
  21064241.1094    -250179.79646     93702.75562
  24148649.0004   -1316501.58645   -447329.90161
  22358008.195    -9185212.654 6
  24217939.9614   -1323239.43945
 91  3 22 23  0 15.0000000  0  6G18G11G19G16G 2G 6
  21860918.797     6071878.359 7   1650980.38222
  22921658.445    -3964768.333 6   -292045.85721
  21064867.9774    -246874.55046     96278.31063
  24147062.8984   -1324830.09045   -453819.57561
  22351521.9924   -9219298.61846
  24211462.6884   -1357268.52645
 91  3 22 23  0 30.0000000  0  6G18G11G19G16G 2G 6
  21868148.547     6109870.070 7   1680584.26522
  22921232.570    -3967015.693 7   -293796.96921
  21065508.4384    -243527.73046     98886.25962
  24145500.6024   -1333035.25245   -460213.15761
  22345046.3054   -9253320.90246
  24204989.2814   -1391303.18045
 91  3 22 23  0 45.0000000  0  6G18G11G19G16G 2G 6
  21875394.234     6147945.792 7   1710253.61222
  22920830.2194   -3969117.83546   -295434.93161
  21066150.0634    -240138.10346    101527.56163
  24143961.125    -1341116.037 5   -466509.79421
  22338583.8444   -9287278.17246  -1645261.20261
  24198509.8524   -1425342.27545   -556110.86461
 91  3 22 23  1  0.0000000  0  6G18G11G19G16G 2G 6
  21882656.250     6186106.751 7   1739989.38122
  22920459.688    -3971073.696 6   -296958.90721
  21066802.9694    -236704.50946    104203.12162
  24142447.945    -1349071.616 5   -472708.87521
  22332136.0474   -9321169.59846  -1671669.95361
  24192031.8134   -1459384.93345   -582637.40861
 91  3 22 23  1 15.0000000  0  6G18G11G19G16G 2G 6
  21889933.836     6224350.431 7   1769789.60222
  22920113.602    -3972885.594 6   -298370.70521
  21067465.8754    -233229.29146    106911.11963
  24140963.1644   -1356904.01745   -478811.97461
  22325697.6094   -9354997.54646  -1698029.24661
  24185555.5474   -1493433.59145   -609168.63761
 91  3 22 23  1 30.0000000  0  6G18G11G19G16G 2G 6
  21897227.281     6262675.794 7   1799653.47122
  22919796.1724   -3974553.74547   -299670.49761
  21068134.4384    -229712.65046    109651.39063
  24139494.0634   -1364614.04045   -484819.73361
  22319271.570    -9388762.095 6  -1724339.14321
  24179072.8134   -1527488.46845   -635704.68661
 91  3 22 23  1 45.0000000  0  6G18G11G19G16G 2G 6
  21904534.203     6301081.002 7   1829579.55422
  22919507.4774   -3976080.28547   -300859.93861
  21068808.7664    -226156.62146    112422.35363
  24138046.688    -1372203.556 5   -490733.60121
  22312858.742    -9422465.386 6  -1750601.31321
  24172589.8364   -1561551.69745   -662247.30461
 91  3 22 23  2  0.0000000  0  6G18G11G19G16G 2G 6
  21911858.281     6339568.870 7   1859570.05222
  22919243.6564   -3977461.72847   -301936.32961
  21069494.4224    -222557.65646    115226.77263
  24136629.359    -1379669.373 5   -496551.05821
  22306456.914    -9456103.970 6  -1776813.05821
  24166106.6174   -1595619.90545   -688793.80661
 91  3 22 23  2 15.0000000  0  6G18G11G19G16G 2G 6
  21919200.094     6378144.666 7   1889629.06322
  22919007.1954   -3978692.78647   -302895.52961
  21070189.4774    -218910.64946    118068.62863
  24135235.414    -1387006.035 5   -502267.86721
  22300068.625    -9489672.450 6  -1802970.17721
  24159623.383    -1629687.979 5   -715340.15021
 91  3 22 23  2 30.0000000  0  6G18G11G19G16G 2G 6
  21926555.781     6416800.731 7   1919750.61522
  22918801.5944   -3979781.03047   -303743.44761
  21070894.7894    -215222.92646    120942.20763
  24133858.2504   -1394221.07345   -507889.94461
  22293693.375    -9523178.343 6  -1829078.53221
  24153139.3054   -1663763.29645   -741892.18761
 91  3 22 23  2 45.0000000  0  6G18G11G19G16G 2G 6
  21933926.891     6455537.068 7   1949934.72422
  22918620.3984   -3980726.06447   -304479.76961
  21071600.2974    -211494.11346    123847.80563
  24132510.297    -1401314.326 5   -513417.09221
  22287330.406    -9556621.367 6  -1855137.89721
  24146654.9774   -1697845.69745   -768449.69161
 91  3 22 23  3  0.0000000  0  6G18G11G19G16G 2G 6
  21941313.930     6494354.903 7   1980182.33722
  22918468.6094   -3981526.20647   -305103.19561
  21072320.156     -207722.567 6    126786.69723
  24131183.7114   -1408284.26245   -518848.16961
  22280978.289    -9589999.942 6  -1881147.03421
  24140166.742    -1731933.709 4   -795011.62921
 91  3 22 23  3 15.0000000  0  6G18G11G19G16G 2G 6
  21948715.477     6533252.775 7   2010492.31222
  22918343.1564   -3982182.86647   -305614.81561
  21073044.4224    -203909.50846    129757.94163
  24129881.6094   -1415132.02245   -524184.04061
  22274636.188    -9623315.183 6  -1907106.82821
  24133674.945    -1766028.465 4   -821578.79621
 91  3 22 23  3 30.0000000  0  6G18G11G19G16G 2G 6
  21956133.023     6572231.411 7   2040865.21622
  22918248.6414   -3982694.85447   -306013.70961
  21073778.5634    -200053.67546    132762.51163
  24128601.477    -1421856.716 5   -529424.03421
  22268310.570    -9656565.920 6  -1933016.35821
  24127189.375    -1800129.016 4   -848150.47221
 91  3 22 23  3 45.0000000  0  6G18G11G19G16G 2G 6
  21963565.2974    6611287.49547   2071298.46962
  22918177.352    -3983065.447 7   -306302.42121
  21074517.523     -196158.349 6    135797.85223
  24127346.445    -1428461.913 5   -534570.88221
  22261993.2974   -9689755.49546  -1958878.23861
  24120696.3134   -1834238.86544   -874729.40361
 91  3 22 23  4  0.0000000  0  6G18G11G19G16G 2G 6
  21971013.5634    6650425.61447   2101795.64562
  22918135.1094   -3983289.58446   -306477.02461
  21075272.7814    -192218.32346    138868.02763
  24126110.1024   -1434942.55445   -539620.70161
  22255691.422    -9722878.896 6  -1984688.54221
  24114207.3594   -1868352.79544   -901311.48861
 91  3 22 23  4 15.0000000  0  6G18G11G19G16G 2G 6
  21978477.7584    6689650.66447   2132360.56062
  22918119.6024   -3983362.32046
  21076027.938     -188228.464 6    141977.02923
  24124899.6644   -1441293.33845   -544569.33661
  22249400.016    -9755931.013 6  -2010443.30421
  24107713.438    -1902465.996 3   -927893.03421
 91  3 22 23  4 30.0000000  0  6G18G11G19G16G 2G 6
  21985957.1724    6728952.13747   2162985.02362
  22918135.9384   -3983294.01546
  21076794.453     -184199.434 6    145116.55923
  24123717.0634   -1447525.36445   -549425.41461
  22243123.680    -9788922.497 6  -2036150.82721
  24101218.508    -1936588.809 4   -954482.05821
 91  3 22 23  4 45.0000000  0  6G18G11G19G16G 2G 6
  21993449.625     6768327.898 7   2193667.37922
  22918172.4844   -3983086.19946
  21077568.914     -180132.878 6    148285.32623
  24122548.3834   -1453640.08345   -554190.09661
  22236857.3984   -9821854.76846  -2061812.20662
  24094723.6334   -1970723.11043   -981080.05261
 91  3 22 23  5  0.0000000  0  6G18G11G19G16G 2G 6
  22000957.9384    6807781.43847   2224410.33562
  22918241.055    -3982735.104 6
  21078350.398     -176024.749 6    151486.48923
  24121410.008    -1459633.566 5   -558860.29721
  22230602.4304   -9854723.97546  -2087424.44761
  24088226.7034   -2004864.98543  -1007683.91361
 91  3 22 23  5 15.0000000  0  6G18G11G19G16G 2G 6
  22008481.1644    6847320.98047   2255220.30462
  22918333.2424   -3982232.53546   -305653.07661
  21079140.227     -171866.764 6    154726.49523
  24120295.094    -1465497.484 5   -563429.55921
  22224360.7504   -9887521.95846  -2112981.19161
  24081731.8594   -2039006.14544  -1034287.22861
 91  3 22 23  5 30.0000000  0  6G18G11G19G16G 2G 6
  22016022.4924    6886941.77747   2286093.59462
  22918456.898    -3981583.064 6   -305146.94621
  21079944.266     -167663.708 6    158001.61823
  24119203.8364   -1471236.97045   -567901.85361
  22218130.7814   -9920253.14046  -2138485.88461
  24075234.164    -2073151.506 4  -1060893.84221
 91  3 22 23  5 45.0000000  0  6G18G11G19G16G 2G 6
  22023575.6484    6926641.07747   2317028.05162
  22918610.445    -3980789.043 6   -304528.17821
  21080748.758     -163417.778 6    161310.15523
  24118135.4304   -1476854.31645   -572278.95961
  22211915.602    -9952919.936 6  -2163940.39921
  24068736.1024   -2107303.29144  -1087505.44861
 91  3 22 23  6  0.0000000  0  6G18G11G19G16G 2G 6
  22031146.1174    6966421.46947   2348025.68962
  22918790.109    -3979847.465 6   -303794.42921
  21081565.258     -159125.760 6    164654.60023
  24117085.773    -1482346.486 5   -576558.54521
  22205711.0864   -9985519.38546  -2189342.44161
  24062235.1644   -2141458.57144  -1114119.75761
 91  3 22 23  6 15.0000000  0  6G18G11G19G16G 2G 6
  22038730.6254    7006280.10947   2379084.31162
  22918994.383    -3978761.053 6   -302947.82521
  21082389.000     -154790.157 6    168033.00723
  24116065.4924   -1487716.32345   -580742.78761
  22199520.297   -10018054.036 6  -2214693.98421
  24055735.4384   -2175620.07544  -1140738.93661
 91  3 22 23  6 30.0000000  0  6G18G11G19G16G 2G 6
  22046330.3984    7046216.33847   2410203.38362
  22919230.156    -3977530.207 6   -301988.68221
  21083228.148     -150411.556 6    171444.92023
  24115066.422    -1492964.226 5   -584832.05221
  22193340.2894  -10050524.38146  -2239995.42461
  24049229.2504   -2209788.27844  -1167363.34061
 91  3 22 23  6 45.0000000  0  6G18G11G19G16G 2G 6
  22053944.8674    7086230.60747   2441383.26662
  22919491.992    -3976154.708 6   -300916.81621
  21084063.930     -145989.537 6    174890.66223
  24114092.609    -1498090.072 5   -588826.18021
  22187174.2974  -10082930.09246  -2265246.50361
  24042728.7344   -2243962.87845  -1193992.71761
 91  3 22 23  7  0.0000000  0  6G18G11G19G16G 2G 6
  22061574.5554    7126322.99447   2472624.02062
  22919781.750    -3974633.499 6   -299731.41621
  21084916.8914    -141522.88846    178371.18163
  24113141.9534   -1503092.98045   -592724.49861
  22181019.9774  -10115270.14246  -2290446.41962
  24036225.0314   -2278142.97945  -1220626.39561
 91  3 22 23  7 15.0000000  0  6G18G11G19G16G 2G 6
  22069218.4304    7166492.07547   2503924.53661
  22920098.570    -3972968.147 6   -298433.69521
  21085772.2424    -137012.95746    181885.42363
  24112208.9224   -1507974.47645   -596528.24561
  22174878.5314  -10147546.06546  -2315596.37061
  24029719.086    -2312330.118 5  -1247265.51621
 91  3 22 23  7 30.0000000  0  6G18G11G19G16G 2G 6
  22076878.047     7206738.390 7   2535285.22422
  22920440.2974   -3971158.13646   -297023.26461
  21086644.0864    -132459.27546    185433.75463
  24111308.805    -1512734.271 5   -600237.16021
  22168748.7734  -10179757.24946  -2340695.86462
  24023212.516    -2346523.781 5  -1273909.76021
 91  3 22 23  7 45.0000000  0  6G18G11G19G16G 2G 6
  22084550.070     7247060.170 7   2566704.72321
  22920813.055    -3969204.377 6   -295500.81421
  21087515.5554    -127862.68946    189015.51663
  24110424.055    -1517373.135 5   -603851.82621
  22162630.3914  -10211904.59646  -2365745.63062
  24016700.109    -2380724.886 5  -1300559.81521
 91  3 22 23  8  0.0000000  0  6G18G11G19G16G 2G 6
  22092238.789     7287462.811 7   2598187.22821
  22921213.5234   -3967101.69046   -293862.32361
  21088399.0944    -123218.21146    192634.59663
  24109562.258    -1521885.980 5   -607368.30921
  22156525.7424  -10243983.04746  -2390741.70762
  24010194.930    -2414928.622 5  -1327211.89021
 91  3 22 23  8 15.0000000  0  6G18G11G19G16G 2G 6
  22099943.227     7327944.470 7   2629731.30121
  22921641.1174   -3964850.91846   -292108.44061
  21089291.4614    -118526.53246    196290.45963
  24108727.3054   -1526273.80245   -610787.37861
  22150435.5554  -10275993.36946  -2415684.69962
  24003686.430    -2449135.582 5  -1353866.51321
 91  3 22 23  8 30.0000000  0  6G18G11G19G16G 2G 6
  22107659.734     7368504.064 7   2661336.09921
  22922098.0944   -3962453.61846   -290240.38061
  21090193.2194    -113789.10946    199981.96363
  24107919.4774   -1530538.41345   -614110.44661
  22144355.1564  -10307937.08646  -2440575.78862
  23997177.094    -2483347.381 5  -1380524.90121
 91  3 22 23  8 45.0000000  0  6G18G11G19G16G 2G 6
  22115392.828     7409141.564 7   2693001.60022
  22922580.9774   -3959909.56046   -288257.96861
  21091104.7344    -109005.61146    203709.37063
  24107131.203    -1534679.499 5   -617337.22521
  22138290.1884  -10339814.03346  -2465414.84962
  23990661.969    -2517563.896 5  -1407186.95121
 91  3 22 23  9  0.0000000  0  6G18G11G19G16G 2G 6
  22123142.039     7449857.806 7   2724728.46121
  22923095.3754   -3957217.58046   -286160.28761
  21092024.2584    -104174.77846    207473.65863
  24106363.8054   -1538695.89645   -620466.89561
  22132236.8834  -10371622.83946  -2490200.81562
  23984154.9384   -2551783.91745  -1433851.74361
 91  3 22 23  9 15.0000000  0  6G18G11G19G16G 2G 6
  22130904.969     7490653.876 7   2756517.52421
  22923634.7734   -3954376.75146   -283946.62561
  21092950.5634     -99295.65546    211275.57663
  24105627.5944   -1542586.85845   -623498.79061
  22126196.9774  -10403362.60246  -2514932.97962
  23977637.1254   -2586006.47244  -1460518.50061
 91  3 22 23  9 30.0000000  0  6G18G11G19G16G 2G 6
  22138683.1564    7531528.17747   2788367.54461
  22924202.8524   -3951387.60746   -281617.39461
  21093891.0634     -94368.65146    215114.80163
  24104908.703    -1546352.918 5   -626433.39221
  22120171.7894  -10435033.69246  -2539611.62762
  23971126.6094   -2620232.13144  -1487187.69461
 91  3 22 23  9 45.0000000  0  6G18G11G19G16G 2G 6
  22146476.4774    7572482.51647   2820279.92661
  22924801.5234   -3948248.84146   -279171.56761
  21094836.7274     -89392.39346    218992.40663
  24104214.1884   -1549992.96645   -629269.76861
  22114156.852   -10466634.826 6  -2564235.77422
  23964613.773    -2654459.724 5  -1513858.40121
 91  3 22 23 10  0.0000000  0  6G18G11G19G16G 2G 6
  22154286.1884    7613519.29447   2852256.54861
  22925428.3754   -3944957.36946   -276606.76261
  21095791.7814     -84363.48046    222911.04063
  24103549.5864   -1553503.78445   -632005.47161
  22108157.4924  -10498162.92546  -2588803.01562
  23958099.320    -2688685.912 5  -1540527.98821
 91  3 22 23 10 15.0000000  0  6G18G11G19G16G 2G 6
  22162109.8754    7654635.76647   2884295.26861
  22926085.3594   -3941516.01146   -273925.15961
  21096757.4534     -79284.70646    226868.52863
  24102904.453    -1556888.516 5   -634642.92621
  22102171.375   -10529620.900 6  -2613315.61022
  23951588.320    -2722913.770 5  -1567198.90521
 91  3 22 23 10 30.0000000  0  6G18G11G19G16G 2G 6
  22169949.492     7695833.747 7   2916397.50621
  22926767.0314   -3937922.98146   -271125.36461
  21097736.3444     -74154.17146    230866.34863
  24102285.344    -1560144.953 5   -637180.38721
  22096198.313   -10561006.793 6  -2637772.03822
  23945071.305    -2757141.228 4  -1593869.48621
 91  3 22 23 10 45.0000000  0  6G18G11G19G16G 2G 6
  22177805.2894    7737112.75247   2948562.86861
  22927479.0864   -3934177.91146   -268207.10361
  21098720.4614     -68971.59046    234904.72363
  24101688.9064   -1563272.98945   -639617.83561
  22090239.391   -10592320.134 6  -2662171.94122
  23938559.750    -2791368.180 4  -1620539.67421
 91  3 22 23 11  0.0000000  0  6G18G11G19G16G 2G 6
  22185675.5164    7778470.82847   2980789.85461
  22928219.7734   -3930282.74146   -265171.88061
  21099720.2344     -63738.50846    238982.45063
  24101120.2274   -1566274.70045   -641956.83261
  22084294.258   -10623562.769 6  -2686516.73922
  23932046.9224   -2825596.41144  -1647210.89661
 91  3 22 23 11 15.0000000  0  6G18G11G19G16G 2G 6
  22193561.2344    7819912.70647   3013082.13461
  22928989.000    -3926232.415 6   -262015.75921
  21100724.3984     -58450.04546    243103.32863
  24100569.5704   -1569145.18345   -644193.56461
  22078363.813   -10654729.672 6  -2710802.53122
  23925532.7114   -2859820.94244  -1673879.20461
 91  3 22 23 11 30.0000000  0  6G18G11G19G16G 2G 6
  22201462.2584    7861437.83647   3045439.28761
  22929790.0944   -3922027.80446   -258739.41361
  21101741.4614     -53106.98646    247266.74563
  24100050.3134   -1571885.46445   -646328.86561
  22072446.805   -10685821.750 6  -2735030.01522
  23919019.266    -2894042.871 4  -1700545.48921
 91  3 22 23 11 45.0000000  0  6G18G11G19G16G 2G 6
  22209381.0864    7903044.59247   3077860.04361
  22930622.3914   -3917669.89346   -255343.61261
  21102765.0944     -47709.92746    251472.24663
  24099553.180    -1574496.374 5   -648363.33721
  22066544.680   -10716839.768 6  -2759199.79122
  23912510.7114   -2928262.73744  -1727210.19561
 91  3 22 23 12  0.0000000  0  6G18G11G19G16G 2G 6
  22217315.3674    7944738.69647   3110348.86561
  22931478.172    -3913152.541 6   -251823.58521
  21103808.7034     -42252.71346    255724.61763
  24099085.0554   -1576971.79645   -650292.25561
  22060656.594   -10747777.641 7  -2783307.11622
  23905996.6884   -2962474.70744  -1753868.69861
 91  3 22 23 12 15.0000000  0  6G18G11G19G16G 2G 6
  22225266.0394    7986521.93047   3142907.14361
  22932369.664    -3908474.248 6   -248178.14221
  21104854.2974     -36733.70846    260025.13763
  24098637.7664   -1579310.44545   -652114.57061
  22054785.430   -10778633.922 6  -2807350.86722
  23899489.508    -2996677.049 5  -1780519.75521
 91  3 22 23 12 30.0000000  0  6G18G11G19G16G 2G 6
  22233233.2194    8028389.89147   3175531.43061
  22933286.828    -3903638.701 6   -244410.16621
  21105920.0314     -31156.73846    264370.82063
  24098217.5004   -1581516.28645   -653833.41361
  22048927.141   -10809412.106 6  -2831333.76022
  23892979.539    -3030873.674 5  -1807166.33921
 91  3 22 23 12 45.0000000  0  6G18G11G19G16G 2G 6
  22241217.1254    8070348.54047   3208226.39061
  22934242.6484   -3898639.97746   -240515.03161
  21106988.5164     -25515.69046    268766.44063
  24097822.438    -1583583.173 5   -655443.99221
  22043087.039   -10840106.249 6  -2855251.15922
  23886475.0704   -3065058.55945  -1833803.76561
 91  3 22 23 13  0.0000000  0  6G18G11G19G16G 2G 6
  22249218.3204    8112396.88647   3240991.24261
  22935222.0394   -3893478.75546   -236493.27261
  21108080.7274     -19811.17846    273211.51163
  24097455.9694   -1585511.86845   -656946.87261
  22037261.664   -10870717.068 6  -2879103.63822
  23879974.094    -3099232.329 5  -1860432.52521
 91  3 22 23 13 15.0000000  0  6G18G11G19G16G 2G 6
  22257238.4844    8154532.96047   3273824.44961
  22936234.586    -3888157.042 6   -232346.46621
  21109174.0004     -14044.74646    277704.83063
  24097116.6254   -1587304.35645   -658343.64461
  22031452.047   -10901246.436 6  -2902892.65122
  23873470.9844   -3133396.94345  -1887054.15561
 91  3 22 23 13 30.0000000  0  6G18G11G19G16G 2G 6
  22265273.6484    8196759.33547   3306728.02761
  22937280.1254   -3882672.10246   -228072.46661
  21110283.6414      -8213.77746    282248.43963
  24096802.609    -1588957.918 5   -659632.14221
  22025658.398   -10931691.683 7  -2926616.11522
  23866973.6254   -3167549.68045  -1913666.55361
 91  3 22 23 13 45.0000000  0  6G18G11G19G16G 2G 6
  22273326.1954    8239078.14847   3339703.62261
  22938355.2664   -3877021.38346   -223669.28461
  21111403.8134      -2315.66346    286844.36863
  24096514.375    -1590470.478 5   -660810.74821
  22019880.383   -10962049.979 6  -2950271.82922
  23860476.2504   -3201688.01845  -1940267.70261
 91  3 22 23 14  0.0000000  0  6G18G11G19G16G 2G 6
  22281397.3284    8281489.85047   3372751.61061
  22939461.8754   -3871203.68146   -219135.98961
  21112541.3054       3650.93246    291493.65663
  24096252.883    -1591840.827 5   -661878.56321
  22014121.672   -10992320.181 7  -2973858.89422
  23853985.2894   -3235810.74845  -1966856.70861
 91  3 22 23 14 15.0000000  0  6G18G11G19G16G 2G 6
  22289486.3054    8323997.76447   3405874.56261
  22940600.8364   -3865216.09246
  21113689.4224       9688.99946
  24096020.5704   -1593066.05345   -662833.29261
  22008377.2814  -11022499.38246  -2997375.06062
  23847492.4694   -3269914.93945  -1993431.25161
 91  3 22 23 14 30.0000000  0  6G18G11G19G16G 2G 6
  22297593.1334    8366599.91947   3439070.95261
  22941772.8754   -3859060.35746   -209673.62161
  21114850.9924      15796.90446    300958.04363
  24095814.695    -1594147.576 5   -663676.04321
  22002651.711   -11052589.085 6  -3020821.47822
  23841007.9064   -3304002.23645  -2019992.62161
 91  3 22 23 14 45.0000000  0  6G18G11G19G16G 2G 6
  22305718.3754    8409297.88347   3472341.99361
  22942977.156    -3852734.821 6   -204744.60821
  21116027.0704      21976.50946    305773.31863
  24095635.4224   -1595084.12845   -664405.83061
  21996943.3284  -11082587.44246  -3044196.72662
  23834524.4144   -3338070.86645  -2046539.47961
 91  3 22 23 15  0.0000000  0  6G18G11G19G16G 2G 6
  22313861.9534    8452094.06647   3505689.57461
  22944214.219    -3846236.617 6   -199681.05721
  21117220.9534      28230.81446    310646.79563
  24095484.6334   -1595872.87945   -665020.47361
  21991253.2114  -11112491.67346  -3067498.62762
  23828045.0394   -3372117.99245  -2073069.57961
 91  3 22 23 15 15.0000000  0  6G18G11G19G16G 2G 6
  22322025.516     8494989.547 7   3539114.52621
  22945482.750    -3839564.375 6   -194481.88621
  21118423.7034      34561.44246    315579.74763
  24095363.422    -1596512.406 5   -665518.81821
  21985580.0554  -11142300.32546  -3090726.05562
  23821570.391    -3406142.149 5  -2099581.78821
 91  3 22 23 15 30.0000000  0  6G18G11G19G16G 2G 6
  22330205.2584    8537977.70147   3572611.68561
  22946784.078    -3832724.632 6   -189152.20621
  21119642.9844      40961.85746    320567.07763
  24095270.953    -1597009.335 5   -665906.05421
  21979924.5554  -11172020.16647  -3113884.27862
  23815099.8054   -3440150.06845  -2126081.31661
 91  3 22 23 15 45.0000000  0  6G18G11G19G16G 2G 6
  22338405.5394    8581066.24847   3606187.07861
  22948120.383    -3825709.363 6   -183685.74621
  21120872.3284      47440.35846    325615.25163
  24095205.195    -1597355.694 5   -666175.96121
  21974287.2664  -11201643.00946  -3136966.91562
  23808633.422    -3474133.467 5  -2152561.77321
 91  3 22 23 16  0.0000000  0  6G18G11G19G16G 2G 6
  22346624.2274    8624258.94547   3639843.62761
  22949487.469    -3818514.876 6   -178079.63921
  21122125.1644      54000.70146    330727.19963
  24095169.0554   -1597547.97245
  21968669.727   -11231164.905 7  -3159970.89422
  23802168.430    -3508088.769 5  -2179020.31121
 91  3 22 23 16 15.0000000  0  6G18G11G19G16G 2G 6
  22354863.2734    8667551.50447   3673577.98661
  22950891.445    -3811145.306 6   -172337.10021
  21123384.0394      60638.85046    335899.78063
  24095155.813    -1597590.514 5
  21963070.0864  -11260589.98947  -3182899.43362
  23795712.4064   -3542019.93545  -2205460.03161
 91  3 22 23 16 30.0000000  0  6G18G11G19G16G 2G 6
  22363120.961     8710947.985 7   3707393.32321
  22952326.461    -3803596.099 6   -166454.59021
  21124668.3674      67359.65446    341136.76163
  24095179.203    -1597478.627 5
  21957490.3754  -11289913.67047  -3205748.96562
  23789259.8594   -3575922.29045  -2231877.33061
 91  3 22 23 16 45.0000000  0  6G18G11G19G16G 2G 6
  22371399.1254    8754453.10047   3741293.31361
  22953800.805    -3795862.505 6   -160428.39321
  21125958.5474      74167.86946    346441.85563
  24095232.2974   -1597207.42745
  21951930.8524  -11319130.98947  -3228515.61462
  23782816.3524   -3609791.12545  -2258268.51761
 91  3 22 23 17  0.0000000  0  6G18G11G19G16G 2G 6
  22379698.4534    8798063.40147   3775275.26761
  22955303.430    -3787947.699 6   -154261.00521
  21127272.2974      81060.44646    351812.68963
  24095312.852    -1596780.424 5
  21946389.8134  -11348245.37147  -3251202.05762
  23776375.078    -3643629.694 5  -2284636.10321
 91  3 22 23 17 15.0000000  0  6G18G11G19G16G 2G 6
  22388017.6564    8841780.44847   3809340.39961
  22956843.5084   -3779850.32646   -147951.34761
  21128600.2974      88038.99946    357250.51563
  24095422.6644   -1596196.31745   -665272.65661
  21940869.6094  -11377255.29947  -3273807.11062
  23769943.5864   -3677436.48845  -2310978.92661
 91  3 22 23 17 30.0000000  0  6G18G11G19G16G 2G 6
  22396358.148     8885606.740 7   3843490.65021
  22958422.508    -3771567.141 6   -141496.90421
  21129946.1334      95106.70046    362757.80763
  24095564.2664   -1595451.78245   -664692.54061
  21935369.3364  -11406157.44947  -3296328.17762
  23763517.773    -3711208.307 5  -2337294.51021
 91  3 22 23 17 45.0000000  0  6G18G11G19G16G 2G 6
  22404718.547     8929542.464 7   3877726.17521
  22960035.7734   -3763097.75746   -134897.37961
  21131305.0944     102264.12246    368335.01863
  24095739.094    -1594546.557 5   -663987.19621
  21929889.391   -11434951.194 7  -3318764.77722
  23757097.148    -3744944.506 5  -2363582.36021
 91  3 22 23 18  0.0000000  0  6G18G11G19G16G 2G 6
  22413100.320     8973587.828 6   3912047.13021
  22961681.469    -3754442.311 6   -128152.86221
  21132688.3914     109511.33546    373982.18763
  24095937.039    -1593480.847 5   -663156.78921
  21924431.5004  -11463636.70847  -3341117.03962
  23750681.734    -3778645.298 5  -2389842.58821
 91  3 22 23 18 15.0000000  0  6G18G11G19G16G 2G 6
  22421503.617     9017747.008 6   3946456.77221
  22963365.281    -3745595.980 6   -121259.60621
  21134082.3364     116853.31946    379703.20963
  24096174.8594   -1592250.08645   -662197.79661
  21918995.172   -11492208.945 7  -3363381.03722
  23744276.992    -3812305.788 5  -2416071.40821
 91  3 22 23 18 30.0000000  0  6G18G11G19G16G 2G 6
  22429927.367     9062018.645 6   3980954.04721
  22965084.953    -3736559.874 6   -114218.47221
  21135497.6174     124289.08846    385497.30863
  24096438.914    -1590855.193 5   -661110.89021
  21913578.125   -11520669.013 7  -3385557.63122
  23737881.6484   -3845927.14445  -2442269.75861
 91  3 22 23 18 45.0000000  0  6G18G11G19G16G 2G 6
  22438374.258     9106405.389 6   4015541.01221
  22966841.1804   -3727331.54646   -107027.56261
  21136929.3984     131821.50646    391366.72063
  24096735.7974   -1589293.75445   -659894.19661
  21908184.8984  -11549014.40147  -3407644.86062
  23731487.250    -3879506.578 5  -2468435.42821
 91  3 22 23 19  0.0000000  0  6G18G11G19G16G 2G 6
  22446843.813     9150913.142 6   4050222.26921
  22968634.1484   -3717904.80946    -99682.04661
  21138388.1334     139456.76546    397316.26363
  24097065.3134   -1587559.75845   -658543.04961
  21902813.398   -11577238.843 7  -3429637.84922
  23725109.9534   -3913037.90645  -2494563.61261
 91  3 22 23 19 15.0000000  0  6G18G11G19G16G 2G 6
  22455335.977     9195533.414 6   4084991.19721
  22970463.688    -3708287.772 6    -92188.24121
  21139855.8444     147186.81746    403339.67563
  24097430.1564   -1585661.16345   -657063.65461
  21897463.766   -11605350.249 7  -3451542.75322
  23718735.7584   -3946529.21145  -2520660.62561
 91  3 22 23 19 30.0000000  0  6G18G11G19G16G 2G 6
  22463848.117     9240270.202 6   4119850.92421
  22972330.4614   -3698476.35846    -84542.98261
  21141345.8674     155015.78446    409440.16063
  24097822.2424   -1583594.17845   -655453.04861
  21892136.000   -11633344.542 7  -3473356.40722
  23712369.703    -3979976.391 5  -2546723.25521
 91  3 22 23 19 45.0000000  0  6G18G11G19G16G 2G 6
  22472384.609     9285125.418 6   4154802.93021
  22974237.1804   -3688468.31346    -76744.50261
  21142852.6644     162946.28546    415619.76863
  24098249.0084   -1581356.47145   -653709.40261
  21886832.461   -11661219.449 7  -3495077.03322
  23706015.0784   -4013377.05745  -2572749.62261
 91  3 22 23 20  0.0000000  0  6G18G11G19G16G 2G 6
  22480943.430     9330101.134 6   4189848.82921
  22976176.2734   -3678261.93946    -68791.47861
  21144386.3914     170980.20346    421879.95263
  24098708.0474   -1578946.62145   -651831.60561
  21881551.094   -11688973.092 7  -3516703.16622
  23699668.6564   -4046729.41045  -2598738.32761
 91  3 22 23 20 15.0000000  0  6G18G11G19G16G 2G 6
  22489523.6024    9375191.87246   4224984.35561
  22978157.461    -3667862.104 6    -60687.70021
  21145928.5084     179112.77546    428217.01763
  24099197.141    -1576369.431 5   -649823.43421
  21876291.414   -11716610.333 7  -3538238.59622
  23693331.0164   -4080038.33645  -2624693.24361
 91  3 22 23 20 30.0000000  0  6G18G11G19G16G 2G 6
  22498127.648     9420403.349 6   4260213.96421
  22980172.6414   -3657262.77646    -52428.48561
  21147500.3834     187350.26246    434635.82763
  24099721.773    -1573618.890 5   -647680.18921
  21871055.039   -11744125.012 7  -3559678.53022
  23686999.078    -4113297.663 5  -2650609.46721
 91  3 22 23 20 45.0000000  0  6G18G11G19G16G 2G 6
  22506753.2974    9465735.36746   4295537.49861
  22982228.6564   -3646464.41646    -44014.17961
  21149084.6254     195692.37646    441136.17463
  24100279.0474   -1570695.21645   -645402.02561
  21865843.305   -11771517.389 7  -3581023.15722
  23680681.1724   -4146507.75545  -2676487.34161
 91  3 22 23 21  0.0000000  0  6G18G11G19G16G 2G 6
  22515401.5634    9511186.56546   4330953.90161
  22984321.2734   -3635467.92546    -35445.47861
  21150693.7894     204138.44146    447717.51563
  24100866.6094   -1567599.47845   -642989.80061
  21860653.375   -11798788.411 7  -3602273.22122
  23674370.898    -4179669.395 5  -2702327.45221
 91  3 22 23 21 15.0000000  0  6G18G11G19G16G 2G 6
  22524073.813     9556753.654 6   4366460.60821
  22986448.1254   -3624276.65346    -26725.00761
  21152320.2814     212685.16746    454377.29663
  24101486.539    -1564335.264 5   -640446.29621
  21855485.680   -11825941.381 7  -3623431.29922
  23668069.211    -4212785.893 5  -2728132.39621
 91  3 22 23 21 30.0000000  0  6G18G11G19G16G 2G 6
  22532769.8054    9602443.62346   4402063.07061
  22988619.1884   -3612883.08646    -17846.90061
  21153969.3204     221340.20946    461121.47963
  24102141.859    -1560895.151 5   -637765.72221
  21850342.219   -11852968.687 7  -3644491.45022
  23661778.1884   -4245849.69845  -2753896.26761
 91  3 22 23 21 45.0000000  0  6G18G11G19G16G 2G 6
  22541487.1174    9648256.14046   4437761.01361
  22990825.5314   -3601287.07246     -8811.04861
  21155632.2194     230103.97146    467950.38263
  24102829.469    -1557278.991 5   -634947.96121
  21845223.148   -11879870.141 7  -3665453.54222
  23655496.2584   -4278860.53645  -2779618.88361
 91  3 22 23 22  0.0000000  0  6G18G11G19G16G 2G 6
  22550228.0554    9694188.09246   4473552.02261
  22993070.4774   -3589492.21546       379.74661
  21157322.3054     238973.01846    474861.32063
  24103552.2424   -1553490.56145   -631995.97861
  21840127.586   -11906648.981 7  -3686320.09322
  23649222.8594   -4311821.87945  -2805302.92961
 91  3 22 23 22 15.0000000  0  6G18G11G19G16G 2G 6
  22558991.3054    9740242.19946   4509438.22361
  22995353.3674   -3577495.42346      9727.89161
  21159029.4304     247950.77846    481856.97663
  24104307.1954   -1549526.50645   -628907.13061
  21835056.055   -11933302.105 7  -3707088.67722
  23642961.8754   -4344730.53445  -2830945.91661
 91  3 22 23 22 30.0000000  0  6G18G11G19G16G 2G 6
  22567778.1094    9786420.77046   4545421.40561
  22997675.1484   -3565294.37546     19235.19861
  21160760.2814     257039.60546    488939.17363
  24105094.8754   -1545384.44145   -625679.58661
  21830008.195   -11959827.165 7  -3727757.47522
  23636708.453    -4377584.107 5  -2856545.97421
 91  3 22 23 22 45.0000000  0  6G18G11G19G16G 2G 6
  22576590.6094    9832717.83646   4581496.91561
  23000035.3134   -3552894.60046     28897.35861
  21162508.5474     266234.06646    496103.68763
  24105913.4144   -1541070.36745   -622318.01461
  21824983.875   -11986229.655 7  -3748330.76322
  23630466.6174   -4410388.09345  -2882107.40761
 91  3 22 23 23  0.0000000  0  6G18G11G19G16G 2G 6
  22585422.9774    9879136.81746   4617667.43861
  23002430.8754   -3540292.60846     38717.08661
  21164283.7814     275537.82546    503353.36563
  24106768.266    -1536581.142 4   -618819.93521
  21819984.0704  -12012505.85047  -3768805.63462
  23624231.3204   -4443138.90445  -2907627.39861
 91  3 22 23 23 15.0000000  0  6G18G11G19G16G 2G 6
  22594277.8444    9925673.56346   4653929.71161
  23004866.9304   -3527492.54946     48691.15661
  21166070.5554     284947.10346    510685.26863
  24107653.7114   -1531920.58045   -615188.37961
  21815006.898   -12038659.921 7  -3789185.35022
  23618010.031    -4475840.395 5  -2933108.95821
 91  3 22 23 23 30.0000000  0  6G18G11G19G16G 2G 6
  22603156.1174    9972331.47346   4690286.40161
  23007341.5314   -3514490.84346     58822.35561
  21167883.9224     294465.49446    518102.19163
  24108576.570    -1527084.856 5   -611420.31821
  21810053.898   -12064687.911 7  -3809466.81722
  23611797.1644   -4508489.08345  -2958549.37561
 91  3 22 23 23 45.0000000  0  6G18G11G19G16G 2G 6
  22612058.0944   10019110.63746   4726737.57561
  23009854.7974   -3501287.13146     69110.95161
  21169712.2734     304093.67546    525604.66563
  24109530.3674   -1522073.97245   -607515.77261
  21805124.656   -12090589.605 7  -3829649.87322
  23605592.2344   -4541084.37945  -2983948.18161
 91  3 22 23 24  0.0000000  0  6G18G11G19G16G 2G 6
  22620984.6954   10066015.92046   4763287.01661
  23012405.4064   -3487876.13746     79561.07861
  21171569.2584     313836.96746    533196.83963
  24110519.4144   -1516882.80545   -603470.74761
  21800220.578   -12116359.512 7  -3849730.23822
  23599401.7114   -4573620.93345  -3009301.22461
 91  3 22 23 24 15.0000000  0  6G18G11G19G16G 2G 6
  22629933.3834   10113040.96946   4799929.78961
  23014997.2274   -3474264.59546     90167.47361
  21173441.5554     323689.07446    540873.80263
  24111537.070    -1511517.859 4   -599290.31521
  21795340.828   -12142004.274 7  -3869713.09022
  23593220.6254   -4606105.30645  -3034613.60761
 91  3 22 23 24 30.0000000  0  6G18G11G19G16G 2G 6
  22638903.4144   10160186.06146   4836666.09561
  23017625.3834   -3460451.90446    100930.59361
  21175340.6644     333650.54246    548635.98363
  24112592.320    -1505978.827 4   -594974.22221
  21790484.094   -12167523.363 7  -3889598.01122
  23587049.7424   -4638536.88445  -3059884.83461
 91  3 22 23 24 45.0000000  0  6G18G11G19G16G 2G 6
  22647899.5784   10207448.70946   4873494.00461
  23020293.0944   -3446439.65146    111849.23761
  21177252.2894     343719.97146    556482.29163
  24113679.547    -1500267.291 4   -590523.72121
  21785651.922   -12192918.211 7  -3909386.12722
  23580885.4454   -4670917.18645  -3085116.12061
 91  3 22 23 25  0.0000000  0  6G18G11G19G16G 2G 6
  22656914.8364   10254829.76146   4910414.18061
  23022995.4534   -3432227.68946    122923.48861
  21179193.9304     353897.80446    564413.06563
  24114799.9224   -1494383.12244   -585938.72461
  21780843.266   -12218188.520 7  -3929077.19122
  23574736.1564   -4703245.84445  -3110307.16761
 91  3 22 23 25 15.0000000  0  6G18G11G19G16G 2G 6
  22665954.828    10302333.803 6   4947430.18121
  23025740.1884   -3417810.95446    134157.30361
  21181149.0394     364189.43546    572432.51763
  24115953.4144   -1488321.51744   -581215.41661
  21776058.953   -12243329.036 7  -3948667.12222
  23568592.586    -4735517.699 5  -3135453.93921
 91  3 22 23 25 30.0000000  0  6G18G11G19G16G 2G 6
  22675017.7974   10349956.38246   4984538.56261
  23028521.9224   -3403193.81046    145547.27561
  21183132.8364     374590.62746    580537.33763
  24117137.9774   -1482086.54244   -576357.03261
  21771299.086   -12268344.097 7  -3968159.29422
  23562464.5394   -4767736.95045  -3160559.74261
 91  3 22 23 25 45.0000000  0  6G18G11G19G16G 2G 6
  22684102.8594   10397697.00446   5021738.91561
  23031339.7344   -3388376.82846    157092.97361
  21185128.9224     385101.08346    588727.30163
  24118358.164    -1475678.963 4   -571364.16521
  21766562.008   -12293234.034 7  -3987553.97122
  23556342.3674   -4799903.95145  -3185624.80861
 91  3 22 23 26  0.0000000  0  6G18G11G19G16G 2G 6
  22693208.0864   10445554.65146   5059030.46161
  23034197.3754   -3373360.58046    168793.94061
  21187151.1414     395720.39746    597002.08563
  24119608.930    -1469099.184 4   -566237.11821
  21761849.273   -12317999.364 7  -4006851.54922
  23550230.2894   -4832019.32545  -3210649.67861
 91  3 22 23 26 15.0000000  0  6G18G11G19G16G 2G 6
  22702336.7664   10493525.23346   5096410.00561
  23037091.8204   -3358149.22646    180646.93061
  21189190.5084     406444.52346    605358.54163
  24120896.5474   -1462351.52444   -560979.24261
  21757160.047   -12342644.080 7  -4026055.15022
  23544127.0004   -4864087.06945  -3235637.41061
 91  3 22 23 26 30.0000000  0  6G18G11G19G16G 2G 6
  22711488.8284   10541610.70346   5133879.07561
  23040024.8834   -3342740.17546    192653.97261
  21191255.3524     417276.22446    613798.82563
  24122210.445    -1455433.777 4   -555588.82821
  21752494.055   -12367165.537 7  -4045162.70022
  23538033.6484   -4896104.45645  -3260585.90761
 91  3 22 23 26 45.0000000  0  6G18G11G19G16G 2G 6
  22720660.945    10589810.967 6   5171437.59421
  23042993.9534   -3327134.09646    204814.54561
  21193333.8594     428215.20046    622322.69663
  24123560.609    -1448346.306 4   -550066.19621
  21747850.320   -12391564.285 7  -4064174.63122
  23531950.914    -4928071.933 5  -3285495.52021
 91  3 22 23 27  0.0000000  0  6G18G11G19G16G 2G 6
  22729854.2814   10638120.96546   5209081.61761
  23046000.8594   -3311335.36446    217125.24161
  21195435.6094     439257.27046    630926.90063
  24124941.484    -1441093.699 5   -544414.85321
  21743230.398   -12415844.619 7  -4083094.29322
  23525875.789    -4959993.692 5  -3310369.50521
 91  3 22 23 27 15.0000000  0  6G18G11G19G16G 2G 6
  22739066.672    10686536.479 6   5246807.86221
  23049042.9144   -3295348.29446    229582.68461
  21197554.3054     450398.13846    639608.09663
  24126350.758    -1433680.093 4   -538638.04921
  21738631.680   -12440010.901 7  -4101925.09122
  23519808.8984   -4991874.08145  -3335211.25761
 91  3 22 23 27 30.0000000  0  6G18G11G19G16G 2G 6
  22748301.969    10735061.444 6   5284619.39521
  23052124.570    -3279168.469 6    242190.32521
  21199697.4534     461642.49946    648369.92663
  24127794.0084   -1426101.22944   -532732.50061
  21734054.859   -12464058.325 7  -4120663.26822
  23513753.2664   -5023708.44445  -3360017.13661
 91  3 22 23 27 45.0000000  0  6G18G11G19G16G 2G 6
  22757554.7344   10783694.25846   5322514.97261
  23055238.0554   -3262797.91046    254946.60061
  21201852.4924     472988.80346    657211.19263
  24129264.484    -1418359.230 4   -526699.82921
  21729501.680   -12487988.747 7  -4139310.27422
  23507702.516    -5055498.687 5  -3384788.63821
 91  3 22 23 28  0.0000000  0  6G18G11G19G16G 2G 6
  22766831.211    10832430.768 6   5360491.33621
  23058387.492    -3246240.414 6    267848.53121
  21204032.3674     484433.30646    666128.98263
  24130772.703    -1410457.680 4   -520542.82621
  21724969.375   -12511805.771 7  -4157868.92322
  23501659.852    -5087248.388 5  -3409528.56621
 91  3 22 23 28 15.0000000  0  6G18G11G19G16G 2G 6
  22776123.555    10881266.644 6   5398545.12721
  23061574.3594   -3229500.28646    280892.77361
  21206226.7274     495971.89446    675120.08463
  24132302.0864   -1402401.07644   -514265.00961
  21720457.336   -12535513.785 7  -4176342.62222
  23495624.563    -5118961.813 5  -3434240.22021
 91  3 22 23 28 30.0000000  0  6G18G11G19G16G 2G 6
  22785435.2734   10930202.66646   5436676.96761
  23064793.742    -3212576.213 6    294080.34921
  21208442.4774     507605.87646    684185.51163
  24133864.414    -1394188.405 4   -507865.57721
  21715966.766   -12559111.431 7  -4194730.32422
  23489598.586    -5150637.557 5  -3458922.51621
 91  3 22 23 28 45.0000000  0  6G18G11G19G16G 2G 6
  22794766.4144   10979241.25246   5474888.71561
  23068049.9694   -3195465.91246    307413.03861
  21210672.5554     519337.87646    693327.32463
  24135461.9614   -1385817.47644   -501342.81061
  21711498.086   -12582596.307 7  -4213030.15922
  23483578.3914   -5182273.17145  -3483573.53661
 91  3 22 23 29  0.0000000  0  6G18G11G19G16G 2G 6
  22804118.289    11028378.960 6   5513177.70921
  23071340.4774   -3178172.42746    320888.46861
  21212929.4844     531165.31246    702543.49963
  24137081.586    -1377291.293 4   -494699.09421
  21707050.930   -12605971.107 7  -4231244.21222
  23477565.219    -5213871.367 5  -3508195.40221
 91  3 22 23 29 15.0000000  0  6G18G11G19G16G 2G 6
  22813486.4144   11077612.28046   5551541.20361
  23074667.797    -3160699.616 6    334503.63421
  21215190.680      543084.620 6    711831.25823
  24138734.992    -1368613.471 4   -487937.22021
  21702621.766   -12629239.526 7  -4249375.37322
  23471560.469    -5245435.872 5  -3532791.00921
 91  3 22 23 29 30.0000000  0  6G18G11G19G16G 2G 6
  22822875.672    11126944.069 6   5589981.41821
  23078025.875    -3143044.255 6    348261.03921
  21217480.3984     555099.20346    721193.26063
  24140413.164    -1359780.964 5   -481054.77921
  21698214.820   -12652398.331 7  -4267421.12322
  23465557.766    -5276963.349 5  -3557357.76921
 91  3 22 23 29 45.0000000  0  6G18G11G19G16G 2G 6
  22832280.492    11176369.855 6   5628494.88321
  23081418.609    -3125210.547 6    362157.41821
  21219781.4614     567204.93346    730626.28963
  24142123.5554   -1350798.00745   -474055.13561
  21693827.453   -12675451.837 7  -4285384.82122
  23459565.781    -5308457.784 5  -3581898.77621
 91  3 22 23 30  0.0000000  0  6G18G11G19G16G 2G 6
  22841702.445    11225886.781 6   5667079.36021
  23084847.359    -3107201.228 6    376190.63821
  21222103.867      579399.266 6    740128.35523
  24143863.148    -1341667.505 5   -466940.50721
  21689460.1804  -12698402.49747  -4303268.38262
  23453573.555    -5339921.975 5  -3606416.22621
 91  3 22 23 30 15.0000000  0  6G18G11G19G16G 2G 6
  22851143.344    11275494.173 6   5705734.33321
  23088308.750    -3089017.236 6    390359.96321
  21224437.5314     591681.56246    749698.97163
  24145626.461    -1332390.366 4   -459711.63021
  21685112.7274  -12721251.01647  -4321072.35562
  23447597.4454   -5371356.59545  -3630910.62561
 91  3 22 23 30 30.0000000  0  6G18G11G19G16G 2G 6
  22860600.352    11325193.549 6   5744460.97721
  23091800.305    -3070656.615 6    404666.91921
  21226796.4224     604053.93646    759339.77363
  24147421.781    -1322964.792 5   -452367.07221
  21680785.258   -12743995.231 7  -4338795.04722
  23441618.3134   -5402759.49245  -3655380.31161
 91  3 22 23 30 45.0000000  0  6G18G11G19G16G 2G 6
  22870075.352    11374981.469 6   5783256.61921
  23095328.461    -3052122.594 6    419109.00021
  21229164.5864     616513.32046    769048.37763
  24149241.945    -1313393.778 5   -444909.18521
  21676474.9454  -12766638.30347  -4356438.93162
  23435649.523    -5434133.765 5  -3679827.69921
 91  3 22 23 31  0.0000000  0  6G18G11G19G16G 2G 6
  22879566.586    11424862.800 6   5822125.05021
  23098888.734    -3033410.227 6    433690.04321
  21231555.1094     629065.09946    778828.98063
  24151092.5704   -1303672.23045   -437333.99661
  21672185.8524  -12789175.13047  -4374000.02462
  23429689.000    -5465474.137 5  -3704248.66021
 91  3 22 23 31 15.0000000  0  6G18G11G19G16G 2G 6
  22889076.336    11474831.644 6   5861061.66921
  23102483.117    -3014525.348 6    448405.51121
  21233957.7664     641703.67746    788677.22163
  24152965.3204   -1293806.30944   -429646.32561
  21667917.5634  -12811611.49747  -4391482.84562
  23423726.8914   -5496786.37745  -3728647.71661
 91  3 22 23 31 30.0000000  0  6G18G11G19G16G 2G 6
  22898600.3524   11524886.47846   5900065.28861
  23106109.281    -2995469.462 6    463254.23321
  21236383.8284     654427.70246    798592.03763
  24154870.4144   -1283797.70545   -421847.45361
  21663666.3284  -12833948.91647  -4408888.55762
  23417774.273    -5528071.946 5  -3753025.97121
 91  3 22 23 31 45.0000000  0  5G18G11G19G 2G 6
  22908143.688    11575026.016 6   5939134.91221
  23109768.219    -2976243.426 6    478235.54021
  21238816.7504     667236.62046    808573.01263
  21659434.4844  -12856187.83447  -4426217.52062
  23411825.1884   -5559331.38745  -3777383.89261
 91  3 22 23 32  0.0000000  0  6G18G11G19G16G 2G 6
  22917699.7344   11625249.01146   5978269.56861
  23113458.258    -2956848.388 6    493348.53421
  21241272.6804     680129.25146    818619.21163
  24158763.3674         -0.63255
  21655220.9534  -12878329.38147  -4443470.60862
  23405881.1174   -5590565.74645  -3801722.25261
 91  3 22 23 32 15.0000000  0  6G18G11G19G16G 2G 6
  22927272.9224   11675554.61846   6017468.58761
  23117179.3364   -2937285.36146    508592.42661
  21243741.0944     693104.95146    828730.14263
  24160746.1334      10429.86745
  21651025.5704  -12900374.48047  -4460648.54562
  23399941.859    -5621775.874 5  -3826041.74121
 91  3 22 23 32 30.0000000  0  6G18G11G19G16G 2G 6
  22936861.9924   11725943.61246   6056732.58761
  23120936.703    -2917553.032 6    523968.24221
  21246226.9224     706165.22646    838906.96963
  24162760.8914      21001.22645        -0.49071
  21646848.6024  -12922321.61447  -4477750.14462
  23394006.9144   -5652960.28545  -3850341.19161
 91  3 22 23 32 45.0000000  0  6G18G11G19G16G 2G 6
  22946465.0164   11776410.28746   6096057.12061
  23124720.953    -2897657.549 6    539471.20521
  21248726.4844     719304.39446    849145.28063
  24164796.227       31707.306 5      8341.84021
  21642691.1644  -12944176.81447  -4494780.10162
  23388076.2114   -5684124.79945  -3874625.12061
 91  3 22 23 33  0.0000000  0  6G18G11G19G16G 2G 6
  22956084.3444   11826958.26646   6135445.00661
  23128539.586    -2877595.147 6    555104.21621
  21251243.3284     732526.44946    859448.17263
  24166864.289       42551.715 5     16791.99321
  21638549.8054  -12965936.06847  -4511735.29962
  23382150.453    -5715265.506 5  -3898890.51421
 91  3 22 23 33 15.0000000  0  6G18G11G19G16G 2G 6
  22965718.0234   11877582.52046   6174892.32261
  23132388.031    -2857370.324 6    570863.80121
  21253773.0864     745827.13246    869812.33763
  24168951.2584      53530.13545     25346.51561
  21634426.3594  -12987603.79247  -4528619.17462
  23376230.313    -5746386.754 5  -3923140.74221
 91  3 22 23 33 30.0000000  0  6G18G11G19G16G 2G 6
  22975365.6564   11928283.02146   6214399.05261
  23136269.578    -2836983.186 6    586749.85921
  21256319.8524     759206.65346    880237.93163
  24171066.7194      64642.38045     34005.37261
  21630320.5944  -13009179.82147  -4545431.59462
  23370310.3914   -5777488.45945  -3947375.74961
 91  3 22 23 33 45.0000000  0  6G18G11G19G16G 2G 6
  22985028.8754   11979056.65146   6253962.76561
  23140176.516    -2816436.548 6    602760.20821
  21258880.2034     772662.23946    890722.80263
  24173203.1174      75885.57645     42766.24461
  21626231.2034  -13030666.99047  -4562174.77862
  23364395.3984   -5808573.22545  -3971597.53761
 91  3 22 23 34  0.0000000  0  5G18G11G19G 2G 6
  22994704.9144   12029907.29846   6293586.49361
  23144118.0944   -2795727.00846    618897.49261
  21261456.6804     786197.71246    901269.91763
  21622160.2274  -13052061.45547  -4578845.72362
  23358484.0554   -5839637.33245  -3995803.24161
 91  3 22 23 34 15.0000000  0  6G18G11G19G16G 2G 6
  23004396.0164   12080830.25246   6333266.55561
  23148090.664    -2774858.727 6    635158.46721
  21264044.672      799809.063 6    911876.15523
  24177557.086          -0.69015
  21618105.7894  -13073367.55247  -4595447.81262
  23352574.328    -5870684.930 5  -4019996.06821
 91  3 22 23 34 30.0000000  0  6G18G11G19G16G 2G 6
  23014098.898    12131822.518 6   6373000.63421
  23152089.398    -2753834.365 6    651541.07221
  21266651.6334     813493.76346    922539.55163
  24179770.938       11634.328 5
  21614067.3444  -13094587.92947  -4611983.10562
  23346670.141    -5901718.512 5  -4044177.97721
 91  3 22 23 34 45.0000000  0  6G18G11G19G16G 2G 6
  23023817.1954   12182887.90746   6412791.69161
  23156120.898    -2732650.243 6    668048.15721
  21269268.5314     827255.91046    933263.29963
  24182014.531       23400.175 5
  21610046.0394  -13115718.60747  -4628448.49762
  23340767.4144   -5932734.12545  -4068345.88961
 91  3 22 23 35  0.0000000  0  6G18G11G19G16G 2G 6
  23033548.633    12234025.565 6   6452639.06221
  23160182.852    -2711306.974 6    684679.25221
  21271902.2974     841095.13446    944047.09963
  24184279.375       35296.294 5
  21606043.0234  -13136759.93947  -4644844.28462
  23334869.750    -5963732.210 5  -4092500.13321
 91  3 22 23 35 15.0000000  0  6G18G11G19G16G 2G 6
  23043292.6094   12285231.45446   6492539.60461
  23164274.875    -2689808.484 6    701431.30121
  21274548.5004     855007.69046    954888.05063
  24186563.523       47318.751 5        -0.48431
  21602053.9534  -13157715.63747  -4661173.32362
  23328970.570    -5994716.405 5  -4116643.56321
 91  3 22 23 35 30.0000000  0  6G18G11G19G16G 2G 6
  23053050.1094   12336506.77046   6532494.23061
  23168395.078    -2668153.712 6    718305.13021
  21277214.8914     868995.24746    965787.43963
  24188875.8594      59468.63345      9466.87661
  21598083.1724  -13178584.45647  -4677434.67262
  23323079.742    -6025685.414 5  -4140775.15021
 91  3 22 23 35 45.0000000  0  6G18G11G19G16G 2G 6
  23062821.102    12387853.475 6   6572504.49021
  23172545.391    -2646340.715 6    735302.24921
  21279886.3524     883059.80846    976746.82563
  24191214.5554      71747.97445     19035.18261
  21594129.1174  -13199364.65447  -4693626.97462
  23317189.6414   -6056637.21445  -4164893.34261
 91  3 22 23 36  0.0000000  0  6G18G11G19G16G 2G 6
  23072603.4694   12439266.65746   6612566.54561
  23176725.500    -2624374.158 6    752419.01921
  21282580.6414     897197.05446    987762.85963
  24193574.4844      84151.97045     28700.56961
  21590189.2344  -13220060.44147  -4709753.50162
  23311302.4844   -6087576.08045  -4189001.43461
 91  3 22 23 36 15.0000000  0  6G18G11G19G16G 2G 6
  23082400.2584   12490746.89146   6652680.86061
  23180934.8284   -2602253.48546    769655.88261
  21285281.2814     911407.70946    998836.09163
  24195958.063       96681.052 5     38463.42521
  21586268.3754  -13240671.00847  -4725813.62062
  23305418.867    -6118501.363 5  -4213098.94521
 91  3 22 23 36 30.0000000  0  6G18G11G19G16G 2G 6
  23092210.2504   12542295.13146   6692848.16261
  23185174.6334   -2579977.43346    787013.81861
  21288001.7114     925693.26046   1009967.68563
  24198365.6884     109336.54645     48324.81361
  21582363.6884  -13261195.21247  -4741806.44162
  23299533.8834   -6149411.56545  -4237184.72061
 91  3 22 23 36 45.0000000  0  6G18G11G19G16G 2G 6
  23102032.6254   12593907.69146   6733065.58561
  23189442.445    -2557550.087 6    804489.64421
  21290731.9304     940050.04046   1021154.77863
  24200797.086      122114.516 5     58281.62221
  21578473.8444  -13281636.87547  -4757734.94662
  23293655.297    -6180310.516 5  -4261261.71421
 91  3 22 23 37  0.0000000  0  6G18G11G19G16G 2G 6
  23111866.727    12645583.063 6   6773331.95021
  23193738.7664   -2534971.85146    822083.04761
  21293478.2584     954477.77446   1032397.16863
  24203253.633      135014.375 5     68333.41221
  21574598.6724  -13301996.21747  -4773599.30962
  23287776.8834   -6211198.44445  -4285330.12061
 91  3 22 23 37 15.0000000  0  6G18G11G19G16G 2G 6
  23121709.875    12697320.126 6   6813646.38021
  23198064.1414   -2512243.82546    839793.16961
  21296236.4614     968975.37446   1043693.99463
  24205731.4844     148034.76645     78479.11361
  21570739.1174  -13322274.15347  -4789400.23762
  23281902.242    -6242076.329 5  -4309390.70021
 91  3 22 23 37 30.0000000  0  6G18G11G19G16G 2G 6
  23131568.3524   12749119.40546   6854009.30061
  23202417.8054   -2489365.82946    857620.14761
  21299009.469      983543.475 6   1055045.74823
  24208231.344      161175.904 5     88718.92221
  21566896.7894  -13342470.24747  -4805137.39062
  23276028.3204   -6272943.68545  -4333443.09161
 91  3 22 23 37 45.0000000  0  6G18G11G19G16G 2G 6
  23141437.164    12800982.080 6   6894421.61021
  23206800.2034   -2466337.08246    875564.58561
  21301795.2194     998183.31546   1066453.41363
  24210756.406      174438.681 5     99053.48421
  21563068.867   -13362583.687 7  -4820810.14322
  23270155.8364   -6303799.47845  -4357486.45761
 91  3 22 23 38  0.0000000  0  6G18G11G19G16G 2G 6
  23151318.0864   12852905.18446   6934881.01861
  23211210.6024   -2443160.04346    893624.59461
  21304596.9304    1012892.61946   1077915.20263
  24213301.094      187820.535 5    109480.87121
  21559256.7734  -13382616.88947  -4836420.37362
  23264285.484    -6334646.015 5  -4381522.63121
 91  3 22 23 38 15.0000000  0  6G18G11G19G16G 2G 6
  23161210.531    12904887.820 6   6975386.80521
  23215648.4144   -2419835.17446    911799.77261
  21307406.9384    1027671.16046   1089430.94163
  24215869.766      201321.003 5    120000.64021
  21555459.539   -13402570.065 7  -4851968.24422
  23258418.086    -6365483.439 5  -4405551.67621
 91  3 22 23 38 30.0000000  0  6G18G11G19G16G 2G 6
  23171113.0004   12956930.06446   7015939.04661
  23220116.2274   -2396362.80246    930089.90161
  21310232.5164    1042518.98646   1101000.66163
  24218460.195      214939.561 5    130612.47421
  21551678.1884  -13422443.21747  -4867453.76162
  23252549.4384   -6396311.79945  -4429573.68161
 91  3 22 23 38 45.0000000  0  6G18G11G19G16G 2G 6
  23181029.359    13009031.989 6   7056537.78721
  23224610.1484   -2372742.04246    948495.65261
  21313070.398     1057437.241 6   1112625.26623
  24221077.484      228677.247 5    141317.12321
  21547911.7274  -13442235.43847  -4882876.21262
  23246686.3594   -6427130.15445  -4453587.88561
 91  3 22 23 39  0.0000000  0  6G18G11G19G16G 2G 6
  23190954.6174   13061192.53246   7097182.20361
  23229132.6564   -2348975.21846    967015.22261
  21315925.6094    1072423.96646   1124303.22363
  24223713.5864     242531.85645    152112.81861
  21544160.4144  -13461948.82947  -4898237.23662
  23240824.1804   -6457940.50645  -4477595.85561
 91  3 22 23 39 15.0000000  0  6G18G11G19G16G 2G 6
  23200891.523    13113409.545 6   7137870.62221
  23233683.2664   -2325063.42146    985647.75261
  21318787.2114    1087478.21646   1136033.80463
  24226372.383      256502.119 5    162998.71221
  21540424.945   -13481584.412 7  -4913537.63322
  23234963.3204   -6488743.63745  -4501598.19761
 91  3 22 23 39 30.0000000  0  6G18G11G19G16G 2G 6
  23210837.492    13165682.740 6   7178602.81121
  23238260.5084   -2301006.60646   1004393.28361
  21321665.1644    1102600.38446   1147817.30263
  24229053.164      270588.074 5    173974.70621
  21536701.2424  -13501141.77447  -4928777.07762
  23229100.953    -6519539.350 5  -4525594.76321
 91  3 22 23 39 45.0000000  0  6G18G11G19G16G 2G 6
  23220796.148    13218014.406 6   7219380.56721
  23242867.4774   -2276803.23946   1023253.01861
  21324555.0394    1117792.22746   1159655.09263
  24231755.719      284791.137 5    185041.97121
  21532995.1174  -13520619.19647  -4943954.23262
  23223243.3984   -6550325.67645  -4549584.01761
 91  3 22 23 40  0.0000000  0  6G18G11G19G16G 2G 6
  23230766.391    13270401.528 6   7260201.53721
  23247501.0004   -2252455.52246   1042225.22861
  21327463.9844    1133051.77146   1171545.63463
  24234477.977      299109.015 5    196198.70821
  21529303.8364  -13540018.91347  -4959070.83862
  23217385.7584   -6581104.88346  -4573567.71261
 91  3 22 23 40 15.0000000  0  6G18G11G19G16G 2G 6
  23240746.797    13322845.685 6   7301066.95021
  23252161.3754   -2227962.12746   1061310.95261
  21330376.406     1148380.774 6   1183490.30023
  24237228.742      313543.145 5    207445.99821
  21525627.000   -13559339.151 7  -4974125.51322
  23211531.0554   -6611875.20245  -4597544.49761
 91  3 22 23 40 30.0000000  0  6G18G11G19G16G 2G 6
  23250734.195    13375339.526 6   7341971.08321
  23256847.5554   -2203330.48246   1080504.40761
  21333307.4534    1163772.15746   1195483.57563
  24239992.875      328086.067 5    218778.08421
  21521964.7814  -13578587.40447  -4989124.09962
  23205675.6564   -6642643.80445  -4621519.93961
 91  3 22 23 40 45.0000000  0  6G18G11G19G16G 2G 6
  23260735.281    13427888.547 6   7382918.18721
  23261562.2814   -2178554.76146   1099810.13161
  21336246.227     1179231.799 6   1207530.04023
  24242779.773      342743.367 5    230199.30421
  21518316.5634  -13597757.67347  -5004061.91062
  23199820.781    -6673404.761 5  -4645489.40421
 91  3 22 23 41  0.0000000  0  6G18G11G19G16G 2G 6
  23270745.367    13480492.279 6   7423907.94221
  23266304.4614   -2153635.02246   1119228.07161
  21339204.172     1194759.858 6   1219629.81023
  24245594.664      357515.288 5    241709.84821
  21514682.9774  -13616849.91347  -5018938.92062
  23193968.258    -6704157.888 5  -4669452.78821
 91  3 22 23 41 15.0000000  0  6G18G11G19G16G 2G 6
  23280767.070    13533150.230 6   7464939.94321
  23271074.7424   -2128572.04346   1138757.63961
  21342169.2424    1210355.92746   1231782.58663
  24248425.5864     372400.56245    253308.69861
  21511064.6804  -13635864.66447  -5033755.55462
  23188118.1884   -6734903.68245  -4693410.45661
 91  3 22 23 41 30.0000000  0  6G18G11G19G16G 2G 6
  23290795.789    13585857.444 6   7506010.33321
  23275871.3364   -2103370.57246   1158395.10961
  21345153.7814    1226015.55246   1243984.88263
  24251277.320      387394.597 5    264992.30121
  21507459.4694  -13654806.66147  -5048515.48862
  23182268.7114   -6765646.57045  -4717365.85161
 91  3 22 23 41 45.0000000  0  6G18G11G19G16G 2G 6
  23300835.406    13638617.405 6   7547121.82421
  23280691.8204   -2078027.41046   1178142.99261
  21348142.2814    1241742.34446   1256239.51863
  24254155.500      402500.441 5    276763.02621
  21503869.508   -13673672.176 7  -5063215.83522
  23176418.6094   -6796383.11945  -4741316.31761
 91  3 22 23 42  0.0000000  0  6G18G11G19G16G 2G 6
  23310885.219    13691424.545 6   7588270.07121
  23285541.0234   -2052547.82946   1197997.18261
  21351148.016     1257531.403 6   1268542.66923
  24257051.078      417713.080 5    288616.93921
  21500293.8674  -13692466.37147  -5077860.60562
  23170570.8204   -6827118.36346  -4765265.76961
 91  3 22 23 42 15.0000000  0  6G18G11G19G16G 2G 6
  23320945.8594   13744285.10346   7629459.94461
  23290418.8594   -2026925.53346   1217962.56361
  21354163.477     1273389.224 6   1280899.40123
  24259967.1334     433038.67145    300558.91461
  21496732.3364  -13711182.78847  -5092444.77162
  23164724.203    -6857845.738 6  -4789209.06621
 91  3 22 23 42 30.0000000  0  6G18G11G19G16G 2G 6
  23331011.5704   13797194.16546   7670687.60061
  23295319.2424   -2001165.49746   1238035.29661
  21357197.148     1289311.077 6   1293306.02723
  24262903.8364     448472.32545    312585.07061
  21493184.5784  -13729826.19047  -5106972.03862
  23158876.1094   -6888569.90146  -4813149.88461
 91  3 22 23 42 45.0000000  0  6G18G11G19G16G 2G 6
  23341090.008    13850151.032 6   7711952.52421
  23300248.3914   -1975268.06246   1258215.08261
  21360236.750     1305296.881 6   1305762.48423
  24265862.0704     464013.43045    324694.96061
  21489650.250   -13748396.836 7  -5121442.61622
  23153030.3834   -6919291.01046  -4837088.31761
 91  3 22 23 43  0.0000000  0  6G18G11G19G16G 2G 6
  23351176.9534   13903157.85846   7753256.36461
  23305202.680    -1949231.138 6   1278503.56721
  21363295.328     1321349.095 6   1318270.68923
  24268836.6174     479663.82345    336890.00661
  21486131.422   -13766892.454 7  -5135854.73122
  23147186.6334   -6950006.70146  -4861022.52761
 91  3 22 23 43 15.0000000  0  6G18G11G19G16G 2G 6
  23361274.133    13956217.154 6   7794601.10021
  23310183.8914   -1923052.20346   1298902.70461
  21366359.070     1337470.578 6   1330832.86923
  24271835.648      495426.629 5    349172.63621
  21482625.6564  -13785310.29147  -5150206.23262
  23141342.7734   -6980714.10046  -4884950.28561
 91  3 22 23 43 30.0000000  0  6G18G11G19G16G 2G 6
  23371380.273    14009321.320 6   7835980.78821
  23315192.0394   -1896738.73246   1319406.67661
  21369440.523     1353654.095 6   1343443.38423
  24274857.4304     511294.15045    361536.86561
  21479134.2274  -13803657.71947  -5164502.87462
  23135499.000    -7011420.419 6  -4908877.19721
 91  3 22 23 43 45.0000000  0  6G18G11G19G16G 2G 6
  23381494.664    14062472.496 6   7877397.11021
  23320223.3054   -1870288.38346   1340017.30661
  21372529.078     1369902.323 6   1356104.32823
  24277899.414      527268.499 5    373984.36821
  21475657.5554  -13821932.21947  -5178742.68662
  23129656.609    -7042123.212 6  -4932801.36821
 91  3 22 23 44  0.0000000  0  6G18G11G19G16G 2G 6
  23391619.1024   14115672.96846   7918851.84661
  23325284.555    -1843699.083 6   1360736.21721
  21375640.023     1386217.698 6   1368817.59423
  24280955.2034     543351.90144    386516.78761
  21472194.3834  -13840131.46547  -5192923.85462
  23123814.9694   -7072820.03046  -4956720.87361
 91  3 22 23 44 15.0000000  0  6G18G11G19G16G 2G 6
  23401750.4224   14168918.38646   7960341.59761
  23330370.266    -1816974.886 6   1381560.23321
  21378751.398     1402596.407 6   1381580.21123
  24284037.430      559540.188 4    399131.00521
  21468744.1644  -13858259.34947  -5207049.41962
  23117974.813    -7103514.567 5  -4980638.60321
 91  3 22 23 44 30.0000000  0  6G18G11G19G16G 2G 6
  23411894.1094   14222214.21346   8001870.63761
  23335481.859    -1790110.335 6   1402493.62921
  21381883.750     1419044.141 6   1394396.61423
  24287137.1804     575838.83744    411831.15861
  21465309.2584  -13876310.13647  -5221114.90962
  23112133.5164   -7134201.23845  -5004550.20561
 91  3 22 23 44 45.0000000  0  6G18G11G19G16G 2G 6
  23422042.5704   14275554.08946   8043433.99261
  23340620.328    -1763111.789 6   1423531.43621
  21385023.594     1435554.853 6
  24290256.1804     592241.31844
  21461887.7664  -13894289.97447  -5235125.11562
  23106295.7814   -7164885.96345  -5028460.29261
 91  3 22 23 45  0.0000000  0  6G18G11G19G16G 2G 6
  23432201.125    14328935.618 6   8085029.81521
  23345782.0944   -1735981.29646   1444672.04661
  21388180.211     1452126.866 6
  24293402.3364     608745.88044
  21458479.508   -13912200.745 7  -5249081.50822
  23100454.5004   -7195570.58545  -5052370.29761
 91  3 22 23 45 15.0000000  0  6G18G11G19G16G 2G 6
  23442368.2974   14382370.48046   8126667.19661
  23350972.117    -1708707.576 6   1465924.27621
  21391345.2814    1468771.81246
  24296556.8754     625363.61344
  21455086.7814  -13930031.08447  -5262975.22062
  23094618.352    -7226243.554 5  -5076271.22721
 91  3 22 23 45 30.0000000  0  5G18G11G19G 2G 6
  23452545.8204   14435849.07646   8168338.64661
  23356186.586    -1681299.920 6   1487280.86321
  21394526.641     1485480.500 6   1446165.16023
  21451707.0394  -13947790.08047  -5276813.34462
  23088781.992    -7256913.801 5  -5100170.03821
 91  3 22 23 45 45.0000000  0  5G18G11G19G 2G 6
  23462729.5004   14489368.29546   8210041.76061
  23361427.664    -1653761.602 6   1508739.26421
  21397715.422     1502250.048 6   1459232.32523
  21448340.211   -13965480.864 7  -5290598.31622
  23082945.195    -7287584.473 5  -5124069.16621
 91  3 22 23 46  0.0000000  0  5G18G11G19G 2G 6
  23472922.1414   14542926.11546   8251774.94161
  23366692.4384   -1626094.19146   1530298.25861
  21400919.570     1519079.392 6   1472346.09023
  21444986.1564  -13983104.77047  -5304331.17262
  23077109.695    -7318256.760 6  -5147969.56621
 91  3 22 23 46 15.0000000  0  5G18G11G19G 2G 6
  23483123.1094   14596526.98646   8293541.66761
  23371984.656    -1598293.443 6   1551961.15221
  21404132.914     1535973.055 6   1485509.96823
  21441646.3834  -14000657.26647  -5318008.38162
  23071272.914    -7348926.194 6  -5171867.73921
 91  3 22 23 46 30.0000000  0  5G18G11G19G 2G 6
  23493330.094    14650164.095 6   8335336.62621
  23377297.4844   -1570365.60946   1573723.07561
  21407361.227     1552925.076 6   1498719.31923
  21438318.172   -14018144.461 7  -5331634.71422
  23065434.7034   -7379598.64245  -5195768.25961
 91  3 22 23 46 45.0000000  0  5G18G11G19G 2G 6
  23503545.5314   14703843.83946   8377164.83361
  23382637.9384   -1542305.09746   1595588.37161
  21410595.484     1569941.196 6   1511978.61923
  21435004.133   -14035560.712 7  -5345205.77022
  23059601.188    -7410268.348 6  -5219666.64821
 91  3 22 23 47  0.0000000  0  5G18G11G19G 2G 6
  23513767.500    14757560.251 6   8419021.60121
  23388003.8524   -1514117.12846   1617553.00061
  21413848.164     1587016.597 6   1525284.10923
  21431703.070   -14052910.778 7  -5358725.24922
  23053762.531    -7440940.146 5  -5243566.65821
 91  3 22 23 47 15.0000000  0  5G18G11G19G 2G 6
  23523996.6564   14811314.51046   8460907.85761
  23393389.9144   -1485800.79546   1639617.64061
  21417106.914     1604152.457 6   1538636.71523
  21428414.164   -14070193.776 7  -5372192.46422
  23047924.953    -7471612.823 5  -5267467.36721
 91  3 22 23 47 30.0000000  0  5G18G11G19G 2G 6
  23534231.8524   14865103.26146   8502820.97461
  23398802.3594   -1457359.53546   1661779.62661
  21420379.953     1621345.743 6   1552034.06323
  21425136.422   -14087412.700 7  -5385609.75022
  23042088.5084   -7502289.39946  -5291371.08361
 91  3 22 23 47 45.0000000  0  5G18G11G19G 2G 6
  23544476.000    14918928.555 6   8544762.57721
  23404238.8594   -1428791.61646   1684040.31461
  21423662.344     1638598.589 6   1565477.83023
  21421872.641   -14104565.684 7  -5398975.65822
  23036250.2974   -7532967.88945  -5315276.31261
 91  3 22 23 48  0.0000000  0  5G18G11G19G 2G 6
  23554724.719    14972788.032 6   8586730.81021
  23409698.8134   -1400098.40446   1706398.62161
  21426960.391     1655909.858 6   1578967.11523
  21418622.094   -14121653.900 7  -5412291.09522
  23030411.7034   -7563649.38945  -5339183.88061
 91  3 22 23 48 15.0000000  0  5G18G11G19G 2G 6
  23564980.2194   15026683.78746   8628727.33661
  23415182.1484   -1371278.46046   1728855.68961
  21430262.016     1673281.370 6   1592503.34023
  21415381.7814  -14138675.73447  -5425554.80762
  23024573.8284   -7594332.22146  -5363092.48961
 91  3 22 23 48 30.0000000  0  5G18G11G19G 2G 6
  23575241.711    15080609.749 6   8670747.38021
  23420690.7424   -1342337.41046   1751407.12261
  21433580.070     1690707.797 6   1606082.35923
  21412154.1564  -14155636.54547  -5438770.96462
  23018732.141    -7625021.760 6  -5387006.31721
 91  3 22 23 48 45.0000000  0  5G18G11G19G 2G 6
  23585509.180    15134565.835 5   8712790.90421
  23426221.4694   -1313275.50046   1774052.72861
  21436905.367     1708189.113 6   1619704.15423
  21408939.3524  -14172536.56847  -5451939.75562
  23012891.8834   -7655717.90046  -5410925.29561
 91  3 22 23 49  0.0000000  0  5G18G11G19G 2G 6
  23595782.3754   15188553.71245   8754859.19361
  23431774.7344   -1284090.35046   1796794.37061
  21440243.531     1725728.026 6   1633370.82423
  21405734.328   -14189373.224 7  -5465059.17022
  23007048.4534   -7686417.99146  -5434847.35661
 91  3 22 23 49 15.0000000  0  5G18G11G19G 2G 6
  23606062.0944   15242571.58145   8796950.85661
  23437351.4774   -1254784.41646   1819630.13561
  21443589.828     1743322.362 6   1647080.68023
  21402542.484   -14206148.543 7  -5478130.79622
  23001205.8754   -7717124.04246  -5458774.04261
 91  3 22 23 49 30.0000000  0  5G18G11G19G 2G 6
  23616347.0704   15296618.65145   8839065.27561
  23442951.6334   -1225358.41546   1842559.44661
  21446950.992     1760971.745 6   1660833.42823
  21399361.7664  -14222863.13347  -5491155.09462
  22995363.7034   -7747836.43646  -5482705.68061
 91  3 22 23 49 45.0000000  0  5G18G11G19G 2G 6
  23626636.977    15350695.247 5   8881202.68921
  23448572.1414   -1195812.27146   1865582.38661
  21450318.094     1778676.716 6   1674629.49023
  21396192.664   -14239516.755 7  -5504131.88822
  22989516.461    -7778554.830 6  -5506641.99021
 91  3 22 23 50  0.0000000  0  5G18G11G19G 2G 6
  23636934.4924   15404797.22145   8923359.88461
  23454219.3134   -1166149.22446   1888696.41461
  21453698.914     1796434.272 6   1688466.53023
  21393034.820   -14256112.560 7  -5517063.63122
  22983668.9454   -7809282.33946  -5530585.41361
 91  3 22 23 50 15.0000000  0  5G18G11G19G 2G 6
  23647234.7814   15458925.33845   8965537.45561
  23459885.141    -1136369.003 6   1911901.74221
  21457086.297     1814244.943 6   1702344.96223
  21389886.547   -14272649.936 7  -5529949.84423
  22977819.2114   -7840018.20046  -5554535.33461
 91  3 22 23 50 30.0000000  0  5G18G11G19G 2G 6
  23657539.1804   15513081.62445   9007736.97561
  23465575.172    -1106469.499 6   1935200.02021
  21460490.516     1832111.359 6   1716266.82623
  21386751.148   -14289126.558 7  -5542788.71722
  22971970.0704   -7870759.98046  -5578489.87161
 91  3 22 23 50 45.0000000  0  5G18G11G19G 2G 6
  23667849.5394   15567262.33945   9049955.53961
  23471286.734    -1076454.012 6   1958588.67021
  21463897.016     1850030.680 6   1730229.92023
  21383627.195   -14305545.454 7  -5555582.60622
  22966116.9384   -7901510.65546  -5602451.34161
 91  3 22 23 51  0.0000000  0  5G18G11G19G 2G 6
  23678165.117    15621467.921 5   9092193.46221
  23477020.9844   -1046322.89046   1982067.42661
  21467317.570     1868002.431 6   1744233.86823
  21380514.359   -14321906.833 7  -5568331.67823
  22960264.6334   -7932270.38346  -5626419.85761
 91  3 22 23 51 15.0000000  0  5G18G11G19G 2G 6
  23688485.422    15675697.486 5   9134450.07921
  23482775.3204   -1016076.60946   2005635.91861
  21470745.234     1886026.747 6   1758278.77723
  21377412.4304  -14338210.91047  -5581036.09562
  22954409.7504   -7963039.09246  -5650395.38361
 91  3 22 23 51 30.0000000  0  5G18G11G19G 2G 6
  23698808.8134   15729951.52145   9176725.76261
  23488553.984     -985714.808 6   2029294.42121
  21474187.758     1904104.314 6   1772365.18023
  21374320.070   -14354457.157 7  -5593695.45123
  22948553.4774   -7993816.19446  -5674377.45561
 91  3 22 23 51 45.0000000  0  5G18G11G19G 2G 6
  23709136.5634   15784225.68045   9219017.11461
  23494352.8834    -955241.49646   2053039.82661
  21477635.445     1922231.542 6   1786490.28123
  21371237.8984  -14370649.35847  -5606312.69562
  22942693.8834   -8024605.31546  -5698368.88461
 91  3 22 23 52  0.0000000  0  5G18G11G19G 2G 6
  23719469.453    15838516.930 5   9261321.79521
  23500172.9774    -924659.73046   2076869.73461
  21481095.383     1940405.647 6   1800651.90723
  21368166.602   -14386790.208 7  -5618889.92822
  22936831.6484   -8055409.15546  -5722371.77761
 91  3 22 23 52 15.0000000  0  5G18G11G19G 2G 6
  23729803.477    15892827.003 5   9303641.14521
  23506015.3914    -893967.66246   2100785.59561
  21484561.289     1958628.630 6   1814851.61723
  21365105.453   -14402877.833 7  -5631425.68222
  22930968.8364   -8086225.71846  -5746384.59061
 91  3 22 23 52 30.0000000  0  5G18G11G19G 2G 6
  23740141.4454   15947154.79945   9345974.31961
  23511874.7504    -863166.49146   2124786.47661
  21488042.773     1976899.711 6   1829088.81023
  21362053.531   -14418913.220 7  -5643920.73822
  22925099.3834   -8117055.88046  -5770408.00161
 91  3 22 23 52 45.0000000  0  5G18G11G19G 2G 6
  23750485.3984   16001504.51445   9388324.56461
  23517756.5474    -832252.19446   2148875.50561
  21491525.039     1995223.191 6   1843366.83023
  21359013.117   -14434892.235 7  -5656371.86422
  22919231.0394   -8147895.26546  -5794438.58361
 91  3 22 23 53  0.0000000  0  5G18G11G19G 2G 6
  23760830.047    16055874.585 5   9430690.65821
  23523661.1724    -801225.95846   2173051.75561
  21495024.359     2013598.558 6   1857685.28423
  21355982.492   -14450815.707 7  -5668779.71323
  22913361.4144   -8178744.52746  -5818476.88461
 91  3 22 23 53 15.0000000  0  5G18G11G19G 2G 6
  23771180.4454   16110256.67445   9473066.10661
  23529585.227     -770096.004 6   2197308.82321
  21498528.109     2032017.708 6   1872037.85223
  21352961.820   -14466691.569 7  -5681150.46022
  22907489.4064   -8209611.59046  -5842529.04361
 91  3 22 23 53 30.0000000  0  5G18G11G19G 2G 6
  23781531.5554   16164657.34145   9515456.04361
  23535529.5864    -738856.22946   2221651.47061
  21502042.336     2050487.045 6   1886429.52123
  21349951.063   -14482513.534 7  -5693479.21122
  22901611.430    -8240490.041 6  -5866590.07121
 91  3 22 23 53 45.0000000  0  5G18G11G19G 2G 6
  23791886.6484   16219074.01845   9557858.46661
  23541495.1484    -707508.88146   2246077.93861
  21505565.648     2069004.689 6   1900858.84123
  21346950.234   -14498283.628 7  -5705767.54522
  22895732.469    -8271381.835 6  -5890661.51521
 91  3 22 23 54  0.0000000  0  5G18G11G19G 2G 6
  23802244.453    16273503.662 6   9600270.98121
  23547480.359     -676057.305 6   2270585.62021
  21509103.047     2087567.636 6   1915323.45823
  21343958.969   -14514005.026 7  -5718017.93322
  22889851.8914   -8302289.86646  -5914745.60061
 91  3 22 23 54 15.0000000  0  5G18G11G19G 2G 6
  23812604.3674   16327947.51145   9642694.58061
  23553483.0004    -644499.83646   2295175.81761
  21512639.766     2106177.973 6   1929825.00723
  21340976.406   -14529675.897 7  -5730228.95022
  22883966.3134   -8333212.28946  -5938840.90161
 91  3 22 23 54 30.0000000  0  5G18G11G19G 2G 6
  23822969.672    16382409.719 5   9685132.48321
  23559511.2664    -612832.38146   2319851.72061
  21516192.203     2124839.937 6   1944366.77923
  21338004.617   -14545292.063 7  -5742397.34122
  22878078.7584   -8364144.67946  -5962943.96361
 91  3 22 23 54 45.0000000  0  5G18G11G19G 2G 6
  23833334.000    16436881.628 5   9727577.92121
  23565557.7974    -581063.50746   2344606.64861
  21519751.008     2143545.371 6   1958942.43022
  21335042.148   -14560861.627 7  -5754529.42122
  22872189.7274   -8395095.15746  -5987061.13161
 91  3 22 23 55  0.0000000  0  5G18G11G19G 2G 6
  23843702.820    16491367.045 5   9770033.89121
  23571623.1174    -549189.45946   2369443.53261
  21523320.547     2162298.488 6   1973555.22723
  21332089.047   -14576380.552 7  -5766622.03822
  22866298.5864   -8426059.63146  -6011189.19761
 91  3 22 23 55 15.0000000  0  5G18G11G19G 2G 6
  23854074.3834   16545868.28445   9812502.18761
  23577708.5234    -517208.24046   2394363.93161
  21526896.766     2181101.581 6   1988206.97622
  21329144.914   -14591846.597 7  -5778673.45322
  22860402.820    -8457035.730 6  -6035326.32821
 91  3 22 23 55 30.0000000  0  5G18G11G19G 2G 6
  23864448.445    16600379.786 5   9854978.49221
  23583812.9774    -485125.05546   2419363.77361
  21530487.773     2199949.701 6   2002893.80323
  21326211.055   -14607264.861 7  -5790687.63822
  22854504.2504   -8488028.31046  -6059476.29361
 91  3 22 23 55 45.0000000  0  5G18G11G19G 2G 6
  23874824.8134   16654901.70545   9897462.90761
  23589938.9064    -452939.83146   2444443.13561
  21534078.938     2218843.301 6   2017616.07123
  21323286.578   -14622635.118 7  -5802664.41522
  22848605.250    -8519036.966 6  -6083638.79121
 91  3 22 23 56  0.0000000  0  5G18G11G19G 2G 6
  23885199.8204   16709430.30945   9939952.55661
  23596082.641     -420655.747 6   2469599.52721
  21537684.680     2237779.582 6   2032371.59823
  21320369.578   -14637960.312 7  -5814606.07923
  22842700.469    -8550064.499 6  -6107815.99121
 91  3 22 23 56 15.0000000  0  5G18G11G19G 2G 6
  23895578.8364   16763969.40545   9982450.32661
  23602244.8754    -388269.89846   2494835.21961
  21541294.469     2256761.869 6   2047162.97922
  21317463.344   -14653237.033 7  -5826509.96622
  22836792.9924   -8581107.58346  -6132005.31161
 91  3 22 23 56 30.0000000  0  5G18G11G19G 2G 6
  23905959.063    16818518.005 5  10024955.54221
  23608426.9454    -355782.80646   2520149.79661
  21544921.141     2275789.731 6   2061989.86622
  21314564.688   -14668465.809 7  -5838376.49623
  22830882.6254   -8612166.51146  -6156206.97661
 91  3 22 23 56 45.0000000  0  5G18G11G19G 2G 6
  23916341.617    16873076.826 5  10067468.70721
  23614628.6884    -323194.00646   2545543.62661
  21548544.656     2294864.078 6   2076852.97923
  21311675.711   -14683646.013 7  -5850205.17923
  22824968.5234   -8643240.44246  -6180420.33861
 91  3 22 23 57  0.0000000  0  5G18G11G19G 2G 6
  23926725.2584   16927644.01945  10109988.40761
  23620849.4144    -290504.57946   2571015.87861
  21552185.883     2313984.123 6   2091751.70322
  21308797.180   -14698778.467 7  -5861996.65423
  22819052.4064   -8674330.11146  -6204645.96561
 91  3 22 23 57 15.0000000  0  5G18G11G19G 2G 6
  23937112.2274   16982223.65645  10152517.79161
  23627089.7894    -257710.85846   2596569.39361
  21555831.344     2333153.993 6   2106689.24222
  21305927.141   -14713859.255 7  -5873747.86723
  22813133.5084   -8705431.46746  -6228880.69461
 91  3 22 23 57 30.0000000  0  5G18G11G19G 2G 6
  23947499.977    17036818.427 5  10195058.98021
  23633350.789     -224810.184 6   2622206.23821
  21559492.125     2352376.794 6   2121668.03623
  21303066.242   -14728885.395 7  -5885456.49723
  22807216.3674   -8736541.36846  -6253122.08461
 91  3 22 23 57 45.0000000  0  5G18G11G19G 2G 6
  23957888.9304   17091418.56645  10237604.34461
  23639629.3054    -191812.38746   2647918.77661
  21563156.656     2371643.051 6   2136680.69023
  21300216.328   -14743866.648 7  -5897130.15123
  22801291.4694   -8767669.33046  -6277377.54261
 91  3 22 23 58  0.0000000  0  5G18G11G19G 2G 6
  23968280.8284   17146024.81645  10280154.45561
  23645930.0864    -158716.96046   2673707.38561
  21566831.297     2390953.458 6   2151727.74223
  21297374.188   -14758802.344 7  -5908768.30523
  22795364.492    -8798814.582 6  -6301646.48021
 91  3 22 23 58 15.0000000  0  5G18G11G19G 2G 6
  23978674.3834   17200642.21745  10322713.28661
  23652244.6414    -125518.15146   2699576.54861
  21570514.750     2410314.398 6   2166814.17723
  21294541.344   -14773686.211 7  -5920366.07223
  22789434.6024   -8829970.81146  -6325923.97661
 91  3 22 23 58 30.0000000  0  5G18G11G19G 2G 6
  23989072.992    17255273.234 5  10365282.70121
  23658582.648      -92214.267 6   2725527.59321
  21574211.023     2429727.631 6   2181941.35522
  21291720.023   -14788516.374 7  -5931921.99123
  22783505.7034   -8861136.13246  -6350208.55261
 91  3 22 23 58 45.0000000  0  5G18G11G19G 2G 6
  23999471.0864   17309909.62445  10407856.30761
  23664939.2114     -58812.97346   2751554.53561
  21577912.188     2449185.930 6   2197103.64822
  21288906.648   -14803300.414 7  -5943441.97023
  22777571.688    -8892317.717 6  -6374505.79221
 91  3 22 23 59  0.0000000  0  5G18G11G19G 2G 6
  24009869.0474   17364553.44145  10450435.72561
  23671313.9924     -25312.50646   2777658.75461
  21581625.664     2468691.340 6   2212302.65122
  21286102.500   -14818036.176 7  -5954924.33323
  22771634.3284   -8923513.43146  -6398814.05261
 91  3 22 23 59 15.0000000  0  5G18G11G19G 2G 6
  24020268.9614   17419207.38945  10493023.00461
  23677705.4064       8289.74146   2803842.29961
  21585345.430     2488247.009 6   2227540.81822
  21283307.016   -14832720.836 7  -5966366.87223
  22765696.0084   -8954720.25346  -6423130.95761
 91  3 22 23 59 30.0000000  0  5G18G11G19G 2G 6
  24030667.3674   17473866.95045  10535614.64761
  23684120.5944      41989.11446   2830101.51561
  21589077.195     2507848.726 6   2242814.87023
  21280522.016   -14847359.057 7  -5977773.22923
  22759755.8754   -8985942.54246  -6447459.93161
 91  3 22 23 59 45.0000000  0  5G18G11G19G 2G 6
  24041072.914    17528530.511 5  10578209.41021
  23690551.0474      75784.70046   2856435.71461
  21592814.102     2527495.950 6   2258124.37523
  21277744.914   -14861951.393 7  -5989143.82923
  22753811.2584   -9017180.72746  -6471801.27761
 91  3 23  0  0  0.0000000  0  5G18G11G19G 2G 6
  24051476.4774   17583205.11345  10620812.80261
  23697002.1804     109683.20546   2882850.09261
  21596564.578     2547195.450 6   2273474.62023
  21274977.859   -14876490.869 7  -6000473.24023
  22747864.4534   -9048427.85246  -6496149.59261
 91  3 23  0  0 15.0000000  0  5G18G11G19G 2G 6
  24061883.461    17637884.002 5  10663419.54221
  23703470.6954     143677.85446   2909339.39561
  21600321.453     2566940.703 6   2288860.51023
  21272220.617   -14890983.966 7  -6011766.51323
  22741915.8054   -9079690.29046  -6520509.84761
 91  3 23  0  0 30.0000000  0  5G18G11G19G 2G 6
  24072288.7974   17692569.69545  10706031.53961
  23709958.5004     177771.20146   2935905.59861
  21604089.648     2586734.871 6   2304284.51923
  21269471.016   -14905428.007 7  -6023021.56123
  22735965.5634   -9110964.94246  -6544879.61761
 91  3 23  0  0 45.0000000  0  5G18G11G19G 2G 6
  24082695.3204   17747249.30545  10748638.83361
  23716462.305      211950.087 6   2962538.46121
  21607860.047     2606565.150 6   2319736.66223
  21266730.328   -14919835.842 7  -6034248.39623
  22730006.8204   -9142264.76446  -6569268.98961
 91  3 23  0  1  0.0000000  0  5G18G11G19G 2G 6
  24093097.461    17801918.472 5  10791237.96221
  23722983.5634     246210.16546   2989234.58661
  21611640.945     2626427.384 6   2335213.70323
  21263994.570   -14934211.620 7  -6045450.24923
  22724045.9924   -9173593.69546  -6593681.05761
 91  3 23  0  1 15.0000000  0  5G18G11G19G 2G 6
  24103500.742    17856593.974 5  10833842.03621
  23729521.4774     280568.56346   3016007.33061
  21615429.609     2646339.244 6   2350729.41823
  21261267.250   -14948537.694 7  -6056613.37023
  22718081.523    -9204934.149 6  -6618102.10221
 91  3 23  0  1 30.0000000  0  5G18G11G19G 2G 6
  24113906.3914   17911273.16645  10876448.98761
  23736076.9614     315022.40546   3042854.44761
  21619229.930     2666298.232 6   2366281.85523
  21258550.883   -14962816.876 7  -6067739.96423
  22712114.7274   -9236288.56946  -6642534.02861
 91  3 23  0  1 45.0000000  0  5G18G11G19G 2G 6
  24124312.2584   17965955.75445  10919058.57961
  23742652.6804     349571.37846   3069775.67661
  21623033.836     2686304.192 6   2381870.89523
  21255842.625   -14977049.247 7  -6078830.08023
  22706145.5394   -9267656.90046  -6666976.78461
 91  3 23  0  2  0.0000000  0  5G18G11G19G 2G 6
  24134721.5164   18020645.77945  10961673.97861
  23749246.0234     384219.79846   3096774.40761
  21626852.359     2706361.888 6   2397500.24623
  21253144.023   -14991230.346 7  -6089880.24023
  22700174.484    -9299034.510 6  -6691426.79321
 91  3 23  0  2 15.0000000  0  5G18G11G19G 2G 6
  24145129.047    18075342.122 5  11004294.29121
  23755858.0234     418966.21346   3123849.50361
  21630677.984     2726470.197 6   2413169.03823
  21250453.992   -15005361.497 7  -6100891.48223
  22694202.4534   -9330422.47946  -6715884.85761
 91  3 23  0  2 30.0000000  0  5G18G11G19G 2G 6
  24155539.5704   18130047.34745  11046921.52361
  23762488.031      453813.364 6   3151003.08521
  21634517.125     2746632.374 6   2428879.79922
  21247776.063   -15019439.530 7  -6111861.33023
  22688226.734    -9361817.638 6  -6740348.53221
 91  3 23  0  2 45.0000000  0  5G18G11G19G 2G 6
  24165949.844    18184760.479 5  11089554.90221
  23769139.9144     488760.19646   3178234.34861
  21638361.719     2766847.761 6   2444632.03022
  21245106.430   -15033465.363 7  -6122790.50723
  22682251.2274   -9393220.47946  -6764818.19261
 91  3 23  0  3  0.0000000  0  5G18G11G19G 2G 6
  24176364.820    18239481.026 5  11132194.09321
  23775807.1644     523805.83346   3205542.60061
  21642221.719     2787115.686 6   2460425.19223
  21242447.242   -15047439.590 7  -6133679.47123
  22676274.719    -9424631.521 6  -6789294.24621
 91  3 23  0  3 15.0000000  0  5G18G11G19G 2G 6
  24186776.258    18294208.833 5  11174838.93621
  23782495.148      558950.857 6   3232928.29021
  21646085.781     2807437.203 6   2476260.12223
  21239797.281   -15061361.302 7  -6144527.51423
  22670294.6804   -9456049.88746  -6813776.00061
 91  3 23  0  3 30.0000000  0  5G18G11G19G 2G 6
  24197192.523    18348939.824 5  11217486.25121
  23789200.1024     594191.01746   3260388.11861
  21649963.484     2827808.303 6   2492133.68223
  21237158.7814  -15075234.53947  -6155337.78663
  22664314.484    -9487479.378 6  -6838266.42621
 91  3 23  0  3 45.0000000  0  5G18G11G19G 2G 6
  24207608.680    18403675.761 5  11260137.42921
  23795927.3674     629527.95346   3287923.35761
  21653848.523     2848231.029 6   2508047.47223
  21234527.836   -15089057.502 7  -6166108.88623
  22658331.0944   -9518918.07846  -6862764.02661
 91  3 23  0  4  0.0000000  0  5G18G11G19G 2G 6
  24218023.773    18458401.340 5  11302780.54121
  23802666.492      664946.157 6   3315521.90621
  21657742.313     2868690.232 6   2523989.68422
  21231904.086   -15102845.473 7  -6176852.71523
  22652344.3284   -9550381.07746  -6887280.55761
 91  3 23  0  4 15.0000000  0  5G18G11G19G 2G 6
  24228439.4224   18513131.60245  11345427.28361
  23809425.055      700460.756 6   3343195.57621
  21661644.6174    2889201.32246   2539972.32863
  21229289.4064  -15116582.92947  -6187557.18563
  22646355.828    -9581852.751 6  -6911803.85821
 91  3 23  0  4 30.0000000  0  5G18G11G19G 2G 6
  24238855.3594   18567867.21245  11388078.20661
  23816201.250      736072.063 6   3370944.60621
  21665559.070     2909765.140 6   2555996.05923
  21226685.1254  -15130269.14147  -6198221.72663
  22640366.7274   -9613332.15246  -6936333.17061
 91  3 23  0  4 45.0000000  0  5G18G11G19G 2G 6
  24249269.9224   18622607.34745  11430732.65361
  23822996.367      771779.554 6   3398768.57521
  21669481.188     2930381.471 6   2572060.70523
  21224091.0704  -15143904.57547  -6208846.69963
  22634372.891    -9644819.586 6  -6960868.74321
 91  3 23  0  5  0.0000000  0  5G18G11G19G 2G 6
  24259690.227    18677354.112 5  11473392.26721
  23829809.055      807585.478 6   3426669.24921
  21673418.352     2951052.983 6   2588168.34623
  21221505.828   -15157486.781 7  -6219430.19023
  22628380.922    -9676312.385 6  -6985408.49721
 91  3 23  0  5 15.0000000  0  5G18G11G19G 2G 6
  24270109.9694   18732105.78345  11516055.69261
  23836640.930      843488.105 6   3454645.28121
  21677359.406     2971778.405 6   2604318.00922
  21218930.656   -15171017.147 7  -6229973.29123
  22622385.7504   -9707811.83846  -7009953.44161
 91  3 23  0  5 30.0000000  0  5G18G11G19G 2G 6
  24280528.352    18786857.808 5  11558719.43521
  23843490.0164     879482.45146   3482692.78461
  21681312.539     2992552.934 6   2620505.92823
  21216365.9454  -15184500.64747  -6240479.87863
  22616389.6334   -9739322.65546  -7034507.22861
 91  3 23  0  5 45.0000000  0  5G18G11G19G 2G 6
  24290948.992    18841616.684 5  11601388.45921
  23850359.508      915575.058 6   3510816.85021
  21685276.141     3013383.435 6   2636737.46623
  21213809.844   -15197930.441 7  -6250944.60923
  22610391.336    -9770837.768 6  -7059064.37221
 91  3 23  0  6  0.0000000  0  5G18G11G19G 2G 6
  24301368.9614   18896376.38845  11644058.17161
  23857244.8984     951760.70146   3539013.41961
  21689251.688     3034265.167 6   2653008.92523
  21211262.8984  -15211311.46947  -6261371.34263
  22604394.0944   -9802362.01746  -7083628.63261
 91  3 23  0  6 15.0000000  0  5G18G11G19G 2G 6
  24311790.203    18951143.052 5  11686733.25421
  23864149.773      988044.414 6   3567286.38421
  21693233.8984    3055203.50346   2669324.49063
  21208727.445   -15224638.292 7  -6271755.83923
  22598394.0474   -9833889.88546  -7108195.71361
 91  3 23  0  6 30.0000000  0  5G18G11G19G 2G 6
  24322214.5474   19005911.49745  11729409.77461
  23871071.9614    1024422.05646   3595632.55361
  21697233.063     3076194.633 6   2685681.18623
  21206201.4694  -15237914.73147  -6282101.07663
  22592394.1564   -9865425.11746  -7132768.53361
 91  3 23  0  6 45.0000000  0  5G18G11G19G 2G 6
  24332634.711    19060677.354 5  11772084.25321
  23878011.4694    1060888.48746   3624047.91061
  21701232.602     3097233.800 6   2702075.32323
  21203683.789   -15251145.770 7  -6292410.93323
  22586390.3524   -9896972.50946  -7157350.82261
 91  3 23  0  7  0.0000000  0  5G18G11G19G 2G 6
  24343058.297    19115453.610 5  11814766.84521
  23884969.117     1097456.790 6   3652542.64721
  21705249.5864    3118334.54246   2718517.43463
  21201176.6254  -15264318.15447  -6302675.08763
  22580386.7194   -9928518.50846  -7181932.02961
 91  3 23  0  7 15.0000000  0  5G18G11G19G 2G 6
  24353482.070    19170234.455 5  11857452.98421
  23891948.133     1134121.292 6   3681112.34221
  21709273.219     3139491.364 6   2735003.24623
  21198680.1174  -15277437.35347  -6312897.79963
  22574382.867    -9960068.448 6  -7206516.32221
 91  3 23  0  7 30.0000000  0  5G18G11G19G 2G 6
  24363908.6094   19225019.85145  11900142.70261
  23898940.9534    1170881.75846   3709756.81261
  21713311.750     3160704.509 6   2751532.94323
  21196194.1414  -15290503.27647  -6323078.99963
  22568378.4454   -9991621.98946  -7231103.40261
 91  3 23  0  7 45.0000000  0  5G18G11G19G 2G 6
  24374335.430    19279813.686 5  11942838.97221
  23905957.047     1207742.410 6   3738479.34821
  21717358.086     3181978.571 6   2768110.11123
  21193718.3984  -15303511.36647  -6333215.13563
  22562374.3204  -10023174.60346  -7255689.76161
 91  3 23  0  8  0.0000000  0  5G18G11G19G 2G 6
  24384762.9844   19334611.11545  11985538.03261
  23912987.4144    1244697.54146   3767275.50961
  21721420.797     3203308.362 6   2784730.70323
  21191252.7584  -15316467.16347  -6343310.52263
  22556369.000   -10054731.332 6  -7280279.33821
 91  3 23  0  8 15.0000000  0  5G18G11G19G 2G 6
  24395189.5634   19389412.43545  12028240.16861
  23920040.4694    1281748.13946   3796146.05361
  21725486.148     3224695.217 6   2801395.75923
  21188797.336   -15329369.424 7  -6353364.19423
  22550362.5944  -10086290.80646  -7304871.04461
 91  3 23  0  8 30.0000000  0  5G18G11G19G 2G 6
  24405620.3524   19444217.00345  12070944.79761
  23927108.766     1318893.164 6   3825090.18821
  21729568.688     3246138.158 6   2818104.51723
  21186352.1804  -15342218.95547  -6363376.77363
  22544356.813   -10117853.807 6  -7329465.50521
 91  3 23  0  8 45.0000000  0  5G18G11G19G 2G 6
  24416050.734    19499020.120 5  12113648.29821
  23934193.289     1356128.101 6   3854104.37321
  21733657.656     3267633.304 6   2834853.96223
  21183916.3284  -15355019.74547  -6373351.37863
  22538350.227   -10149424.306 6  -7354065.81221
 91  3 23  0  9  0.0000000  0  5G18G11G19G 2G 6
  24426479.922    19553823.935 5  12156352.33221
  23941297.242     1393455.294 6   3883190.45321
  21737763.547     3289183.325 6   2851646.15723
  21181489.8054  -15367769.38947  -6383286.12563
  22532340.5234  -10180999.52146  -7378669.78761
 91  3 23  0  9 15.0000000  0  5G18G11G19G 2G 6
  24436906.2114   19608629.60845  12199057.84261
  23948417.914     1430875.350 6   3912348.88521
  21741870.2114    3310789.27846   2868481.93963
  21179073.1484  -15380467.19047  -6393180.47563
  22526329.9144  -10212578.44546  -7403276.64661
 91  3 23  0  9 30.0000000  0  5G18G11G19G 2G 6
  24447338.344    19663441.068 5  12241767.84921
  23955556.7194    1468392.77646   3941583.19761
  21745994.195     3332455.967 6   2885365.05023
  21176668.0784  -15393108.39647  -6403030.72363
  22520321.430   -10244156.110 6  -7427882.53221
 91  3 23  0  9 45.0000000  0  5G18G11G19G 2G 6
  24457767.977    19718252.040 5  12284477.46521
  23962714.555     1506000.601 6   3970887.95021
  21750127.195     3354176.702 6   2902290.27423
  21174272.1484  -15405699.61747  -6412842.02363
  22514311.477   -10275739.222 6  -7452492.66121
 91  3 23  0 10  0.0000000  0  5G18G11G19G 2G 6
  24468197.719    19773060.656 5  12327185.27021
  23969887.453     1543697.760 6   4000262.31821
  21754272.703     3375950.689 6   2919256.99723
  21171885.758   -15418241.617 7  -6422614.97223
  22508300.320   -10307328.189 6  -7477107.35021
 91  3 23  0 10 15.0000000  0  5G18G11G19G 2G 6
  24478629.5554   19827865.77545  12369890.31961
  23977077.898     1581482.673 6   4029705.05221
  21758423.711     3397776.892 6   2936264.40523
  21169507.125   -15430735.726 7  -6432350.59723
  22502287.188   -10338924.109 6  -7501727.46821
 91  3 23  0 10 30.0000000  0  5G18G11G19G 2G 6
  24489057.484    19882670.751 5  12412595.26821
  23984284.742     1619358.109 5   4059218.34121
  21762588.758     3419658.602 6   2953315.05723
  21167139.898   -15443178.863 7  -6442046.50523
  22496275.3284  -10370523.86946  -7526350.56861
 91  3 23  0 10 45.0000000  0  5G18G11G19G 2G 6
  24499486.8444   19937479.29145  12455303.00961
  23991511.164     1657328.294 5   4088805.44521
  21766763.320     3441600.324 6   2970412.48123
  21164782.055   -15455566.532 7  -6451699.19023
  22490261.8524  -10402122.79146  -7550973.01861
 91  3 23  0 11  0.0000000  0  5G18G11G19G 2G 6
  24509916.297    19992291.907 5  12498013.90321
  23998752.883     1695393.181 5   4118466.34921
  21770951.367     3463602.324 6   2987556.87323
  21162434.7034  -15467898.67247  -6461308.61163
  22484249.4384  -10433720.45246  -7575594.48261
 91  3 23  0 11 15.0000000  0  4G11G19G 2G 6
  24006012.414     1733548.460 5   4148197.68521
  21775147.3524    3485660.73846   3004745.21963
  21160098.5634  -15480179.17447  -6470877.79563
  22478234.953   -10465320.854 6  -7600218.08321
 91  3 23  0 11 30.0000000  0  4G11G19G 2G 6
  24013292.7424    1771794.53145   4177999.76261
  21779358.859     3507776.222 6   3021978.03623
  21157771.8364  -15492407.62447  -6480406.41863
  22472220.8834  -10496923.11146  -7624843.12961
 91  3 23  0 11 45.0000000  0  4G11G19G 2G 6
  24020587.5314    1810127.61445   4207869.65961
  21783575.000     3529945.403 6   3039252.70023
  21155453.7584  -15504587.58747  -6489897.25863
  22466207.8204  -10528530.55946  -7649472.22561
 91  3 23  0 12  0.0000000  0  4G11G19G 2G 6
  24027897.875     1848553.591 5   4237811.91821
  21787806.4614    3552174.63746   3056574.14463
  21153146.8444  -15516712.52347  -6499345.22063
  22460191.4224  -10560136.73046  -7674100.32561
 91  3 23  0 12 15.0000000  0  4G11G19G 2G 6
  24035226.203     1887066.907 6   4267822.24421
  21792045.9774    3574458.77246   3073938.38263
  21150848.227   -15528787.850 7  -6508754.52123
  22454177.8054  -10591746.74346  -7698731.41861
 91  3 23  0 12 30.0000000  0  4G11G19G 2G 6
  24042574.664     1925668.424 6   4297901.30321
  21796299.2114    3596798.87346   3091346.21963
  21148559.719   -15540812.572 7  -6518124.39023
  22448161.461   -10623359.333 6  -7723364.51821
 91  3 23  0 12 45.0000000  0  4G11G19G 2G 6
  24049938.3984    1964363.09746   4328052.93861
  21800560.0234    3619200.18946   3108801.75963
  21146283.3914  -15552781.54047  -6527450.81863
  22442147.094   -10654969.254 6  -7747995.53521
 91  3 23  0 13  0.0000000  0  4G11G19G 2G 6
  24057316.734     2003143.296 6   4358271.22921
  21804835.1414    3641655.55746   3126299.42163
  21144015.0474  -15564702.03747  -6536739.48063
  22436129.8054  -10686583.51546  -7772629.94361
 91  3 23  0 13 15.0000000  0  4G11G19G 2G 6
  24064714.109     2042012.387 6   4388558.78321
  21809116.5234    3664168.75546   3143842.14562
  21141756.4304  -15576570.43047  -6545987.53463
  22430115.094   -10718198.288 6  -7797264.74821
 91  3 23  0 13 30.0000000  0  4G11G19G 2G 6
  24072127.797     2080968.353 6   4418914.03621
  21813412.1644    3686738.19046   3161428.68263
  21139506.742   -15588388.339 7  -6555196.25323
  22424097.188   -10749815.115 6  -7821901.14921
 91  3 23  0 13 45.0000000  0  4G11G19G 2G 6
  24079558.9064    2120017.61146   4449341.97061
  21817717.8834    3709370.76546   3179064.42662
  21137269.328   -15600149.317 7  -6564360.60923
  22418082.2274  -10781427.14046  -7846533.80661
 91  3 23  0 14  0.0000000  0  4G11G19G 2G 6
  24087006.383     2159155.588 6   4479839.04721
  21822038.6484    3732062.19846   3196746.02762
  21135040.8284  -15611857.36747  -6573483.72763
  22412066.516   -10813038.489 6  -7871165.94521
 91  3 23  0 14 15.0000000  0  4G11G19G 2G 6
  24094469.0394    2198377.87446   4510401.82561
  21826365.2664    3754808.47946   3214470.36562
  21132822.3284  -15623516.67947  -6582568.86263
  22406049.531   -10844653.046 6  -7895800.58921
 91  3 23  0 14 30.0000000  0  4G11G19G 2G 6
  24101950.156     2237685.559 6   4541031.13721
  21830705.9534    3777610.90446   3232238.45862
  21130612.789   -15635125.907 7  -6591614.96723
  22400033.8204  -10876269.32646  -7920436.56161
 91  3 23  0 14 45.0000000  0  4G11G19G 2G 6
  24109446.266     2277082.948 6   4571730.35521
  21835055.1024    3800474.18046   3250053.96562
  21128413.6804  -15646680.61347  -6600618.59763
  22394018.0704  -10907882.49146  -7945070.10261
 91  3 23  0 15  0.0000000  0  4G11G19G 2G 6
  24116961.6564    2316570.40646   4602499.74661
  21839419.1644    3823399.11946   3267917.51862
  21126225.5164  -15658179.92247  -6609579.06063
  22388003.234   -10939491.798 6  -7969700.66021
 91  3 23  0 15 15.0000000  0  4G11G19G 2G 6
  24124491.648     2356144.128 6   4633336.34921
  21843790.8674    3846382.12246   3285826.32062
  21124047.000   -15669627.647 7  -6618499.32023
  22381987.156   -10971100.527 6  -7994330.75821
 91  3 23  0 15 30.0000000  0  4G11G19G 2G 6
  24132039.617     2395806.676 6   4664242.19021
  21848180.7114    3869426.28746   3303782.77762
  21121879.430   -15681020.862 7  -6627377.10923
  22375971.8134  -11002705.60446  -8018957.99561
 91  3 23  0 15 45.0000000  0  4G11G19G 2G 6
  24139603.2344    2435554.22246   4695214.24361
  21852571.6484    3892528.13346   3321784.18362
  21119721.4844  -15692363.26847  -6636215.30863
  22369959.117   -11034310.476 6  -8043585.08321
 91  3 23  0 16  0.0000000  0  4G11G19G 2G 6
  24147181.758     2475380.158 6   4726247.39021
  21856980.6804    3915681.43446   3339825.67862
  21117571.5004  -15703660.97747  -6645018.67762
  22363944.2114  -11065921.21646  -8068216.74161
 91  3 23  0 16 15.0000000  0  4G11G19G 2G 6
  24154776.727     2515292.717 6   4757348.04221
  21861395.8834    3938894.87846   3357914.04262
  21115431.484   -15714905.434 7  -6653780.55023
  22357929.859   -11097529.197 6  -8092846.25621
 91  3 23  0 16 30.0000000  0  4G11G19G 2G 6
  24162386.992     2555291.922 6   4788516.20221
  21865826.3674    3962168.77846   3376049.51162
  21113301.117   -15726096.476 7  -6662500.80023
  22351916.0004  -11129133.81246  -8117473.14461
 91  3 23  0 16 45.0000000  0  4G11G19G 2G 6
  24170017.359     2595374.706 6   4819749.48821
  21870264.6804    3985500.51046   3394230.04962
  21111182.5314  -15737236.94147  -6671181.63763
  22345900.6024  -11160737.66846  -8142099.43261
 91  3 23  0 17  0.0000000  0  4G11G19G 2G 6
  24177661.1094    2635543.76346   4851050.00861
  21874715.4454    4008893.09646   3412458.00862
  21109072.3444  -15748323.94747  -6679820.83063
  22339888.2424  -11192337.72046  -8166722.75961
 91  3 23  0 17 15.0000000  0  4G11G19G 2G 6
  24185320.266     2675800.321 6   4882418.70621
  21879180.2734    4032348.13646   3430734.62662
  21106972.6884  -15759355.85347  -6688417.08463
  22333875.9064  -11223932.07046  -8191341.65061
 91  3 23  0 17 30.0000000  0  4G11G19G 2G 6
  24192997.8204    2716141.95046   4913853.68361
  21883656.8674    4055863.55746   3449058.30062
  21104883.6094  -15770334.88647  -6696972.13363
  22327863.7034  -11255522.74646  -8215957.66661
 91  3 23  0 17 45.0000000  0  4G11G19G 2G 6
  24200687.4844    2756563.04246   4945350.58561
  21888139.7344    4079434.18646   3467424.99062
  21102803.5164  -15781266.33847  -6705490.10963
  22321851.094   -11287114.978 6  -8240574.90621
 91  3 23  0 18  0.0000000  0  4G11G19G 2G 6
  24208398.3364    2797071.98046   4976915.94161
  21892637.6254    4103068.85046   3485841.57462
  21100734.461   -15792141.590 7  -6713964.29223
  22315841.430   -11318699.789 6  -8265186.36621
 91  3 23  0 18 15.0000000  0  4G11G19G 2G 6
  24216122.8284    2837667.29445   5008548.59261
  21897146.9064    4126766.40246   3504307.16862
  21098674.703   -15802961.907 7  -6722395.66923
  22309833.430   -11350278.302 6  -8289792.91321
 91  3 23  0 18 30.0000000  0  4G11G19G 2G 6
  24223865.6954    2878348.78245   5040248.38961
  21901670.3134    4150527.14546   3522821.99762
  21096626.2584  -15813727.14147  -6730784.12063
  22303823.734   -11381850.033 6  -8314394.18321
 91  3 23  0 18 45.0000000  0  4G11G19G 2G 6
  24231621.648     2919116.957 5   5072015.74621
  21906202.2504    4174351.73546   3541386.57462
  21094587.6094  -15824436.51647  -6739129.04863
  22297818.320   -11413414.079 6  -8338989.45521
 91  3 23  0 19  0.0000000  0  4G11G19G 2G 6
  24239396.0474    2959965.18845   5103845.47561
  21910750.9454    4198233.97946   3559996.08062
  21092559.8524  -15835096.33547  -6747435.36563
  22291811.203   -11444976.636 6  -8363583.57421
 91  3 23  0 19 15.0000000  0  4G11G19G 2G 6
  24247186.1174    3000898.36745   5135741.39061
  21915303.6724    4222179.07746   3578654.56662
  21090541.1414  -15845701.56747  -6755699.14463
  22285806.969   -11476532.310 6  -8388172.33321
 91  3 23  0 19 30.0000000  0  4G11G19G 2G 6
  24254990.742     3041914.739 5   5167702.13421
  21919873.2814    4246185.59946   3597360.91062
  21088533.6954  -15856253.76247  -6763921.59263
  22279801.383   -11508082.496 6  -8412756.81021
 91  3 23  0 19 45.0000000  0  4G11G19G 2G 6
  24262811.9384    3083013.85345   5199727.35461
  21924450.6484    4270253.64946   3616115.20262
  21086534.4774  -15866752.74447  -6772102.57563
  22273798.734   -11539626.961 6  -8437336.83021
 91  3 23  0 20  0.0000000  0  4G11G19G 2G 6
  24270646.3674    3124196.77145   5231817.87261
  21929046.0234    4294384.86146   3634918.70762
  21084547.8914  -15877197.29347  -6780241.14763
  22267798.531   -11571164.049 6  -8461911.10421
 91  3 23  0 20 15.0000000  0  4G11G19G 2G 6
  24278502.523     3165464.420 5   5263974.42921
  21933648.7424    4318580.38346   3653772.32762
  21082570.648   -15887586.328 7  -6788336.45923
  22261798.5394  -11602692.48746  -8486478.64061
 91  3 23  0 20 30.0000000  0  4G11G19G 2G 6
  24286370.695     3206813.267 5   5296194.23821
  21938267.1724    4342836.86646   3672673.44662
  21080603.492   -15897923.177 7  -6796391.10423
  22255799.133   -11634215.302 6  -8511041.79121
 91  3 23  0 20 45.0000000  0  4G11G19G 2G 6
  24294252.5634    3248242.80145   5328476.91961
  21942890.9614    4367154.25646   3691622.02662
  21078647.5394  -15908207.98347  -6804405.20163
  22249802.352   -11665732.654 6  -8535600.68821
 91  3 23  0 21  0.0000000  0  4G11G19G 2G 6
  24302152.5394    3289755.46145   5360824.38261
  21947532.5004    4391535.29146   3710620.19962
  21076699.945   -15918438.051 7  -6812376.64023
  22243807.219   -11697241.472 6  -8560152.94021
 91  3 23  0 21 15.0000000  0  4G11G19G 2G 6
  24310067.5704    3331349.04245   5393234.89161
  21952182.9774    4415978.15946   3729666.55562
  21074762.9534  -15928615.36947  -6820306.97563
  22237810.594   -11728743.489 6  -8584699.88621
 91  3 23  0 21 30.0000000  0  4G11G19G 2G 6
  24317999.1884    3373022.56145   5425707.70961
  21956850.1094    4440482.28246   3748760.63962
  21072835.3364  -15938740.53947  -6828196.68163
  22231816.8754  -11760239.19846  -8609241.91261
 91  3 23  0 21 45.0000000  0  4G11G19G 2G 6
  24325945.070     3414778.291 5   5458244.56621
  21961520.1564    4465050.46646   3767904.63562
  21070919.7664  -15948811.05347  -6836043.79563
  22225827.195   -11791725.879 6  -8633776.91421
 91  3 23  0 22  0.0000000  0  4G11G19G 2G 6
  24333907.188     3456618.086 5   5490846.92821
  21966209.6254    4489684.95746   3787100.31062
  21069014.5554  -15958824.74647  -6843846.63263
  22219837.852   -11823201.027 6  -8658302.93221
 91  3 23  0 22 15.0000000  0  4G11G19G 2G 6
  24341883.1334    3498538.21445   5523511.90061
  21970908.7664    4514382.44946   3806345.06662
  21067119.2584  -15968785.18147  -6851607.97463
  22213849.016   -11854668.035 6  -8682822.60921
 91  3 23  0 22 30.0000000  0  4G11G19G 2G 6
  24349876.3284    3540546.08945   5556245.24561
  21975623.7194    4539150.44746   3825644.76862
  21065235.7424  -15978684.51047  -6859321.70463
  22207864.867   -11886118.906 6  -8707329.70421
 91  3 23  0 22 45.0000000  0  4G11G19G 2G 6
  24357885.5164    3582631.75745   5589039.20361
  21980346.5004    4563979.45546   3844992.01262
  21063361.0634  -15988532.30947  -6866995.27863
  22201880.9224  -11917563.16746  -8731831.65861
 91  3 23  0 23  0.0000000  0  4G11G19G 2G 6
  24365909.6094    3624795.83345   5621894.26061
  21985084.6954    4588870.49046   3864387.58162
  21061497.0474  -15998327.81447  -6874628.09963
  22195897.305   -11948999.621 6  -8756327.51021
 91  3 23  0 23 15.0000000  0  4G11G19G 2G 6
  24373948.2344    3667039.41645   5654811.27461
  21989832.0704    4613824.91846   3883832.55562
  21059643.6644  -16008069.69447  -6882219.13763
  22189916.6414  -11980426.71746  -8780816.08561
 91  3 23  0 23 30.0000000  0  4G11G19G 2G 6
  24382002.070     3709361.138 5   5687789.19121
  21994593.320     4638841.864 6   3903326.23822
  21057799.5084  -16017759.13347  -6889769.31463
  22183938.3674  -12011845.36846  -8805298.08461
 91  3 23  0 23 45.0000000  0  4G11G19G 2G 6
  24390070.258     3751760.224 5   5720827.37621
  21999363.6334    4663920.69346   3922868.14362
  21055965.3444  -16027396.55047  -6897278.95563
  22177961.602   -12043255.766 6  -8829773.63821
 91  3 23  0 24  0.0000000  0  4G11G19G 2G 6
  24398153.383     3794241.026 5   5753929.25121
  22004151.6334    4689066.41246   3942462.17262
  21054142.0704  -16036977.30447  -6904744.44063
  22171986.422   -12074652.974 6  -8854238.92421
 91  3 23  0 24 15.0000000  0  4G11G19G 2G 6
  24406252.1024    3836799.51245   5787091.64361
  22008946.5944    4714275.46846   3962105.55262
  21052328.8444  -16046505.08547  -6912168.65063
  22166011.867   -12106040.596 6  -8878696.73821
 91  3 23  0 24 30.0000000  0  4G11G19G 2G 6
  24414367.188     3879437.432 5   5820315.93521
  22013757.5394    4739549.96146   3981799.92462
  21050526.6884  -16055977.87147  -6919550.00363
  22160042.313   -12137416.265 6  -8903145.24121
 91  3 23  0 24 45.0000000  0  4G11G19G 2G 6
  24422495.086     3922153.754 5   5853601.32421
  22018578.9224    4764889.06746   4001544.64662
  21048734.8284  -16065396.35247  -6926889.04563
  22154074.766   -12168780.658 6  -8927584.95321
 91  3 23  0 25  0.0000000  0  4G11G19G 2G 6
  24430640.4064    3964952.03845   5886950.57061
  22023414.7974    4790296.72446   4021342.78162
  21046953.0474  -16074756.75847  -6934182.83463
  22148108.1724  -12200129.62546  -8952012.65261
 91  3 23  0 25 15.0000000  0  4G11G19G 2G 6
  24438796.992     4007824.527 5   5920357.66321
  22028258.914     4815765.548 6   4041188.58022
  21045181.0554  -16084066.71047  -6941437.31063
  22142145.3054  -12231470.52446  -8976434.06461
 91  3 23  0 25 30.0000000  0  4G11G19G 2G 6
  24446967.9224    4050767.22745   5953819.42961
  22033120.1804    4841292.00046   4061079.27462
  21043418.6954  -16093329.69347  -6948655.17963
  22136181.5634  -12262806.76046  -9000851.83861
 91  3 23  0 25 45.0000000  0  4G11G19G 2G 6
  24455154.836     4093787.956 5   5987342.01821
  22037987.992     4866884.441 6   4081021.39822
  21041667.0784  -16102537.63547  -6955830.16263
  22130221.3054  -12294129.79146  -9025259.33061
 91  3 23  0 26  0.0000000  0  4G11G19G 2G 6
  24463357.9144    4136882.90145   6020922.42561
  22042870.867     4892539.203 6   4101012.07922
  21039924.1644  -16111694.33247  -6962965.21863
  22124261.7344  -12325443.10346  -9049659.24661
 91  3 23  0 26 15.0000000  0  4G11G19G 2G 6
  24471573.7504    4180057.56845   6054564.96361
  22047764.563     4918262.195 6   4121055.92722
  21038192.2034  -16120793.90547  -6970055.76163
  22118307.414   -12356740.708 6  -9074046.91121
 91  3 23  0 26 30.0000000  0  4G11G19G 2G 6
  24479802.820     4223307.637 5   6088266.25321
  22052672.336     4944049.349 6   4141149.77022
  21036470.7504  -16129840.16748  -6977104.76463
  22112353.141   -12388026.426 6  -9098425.32121
 91  3 23  0 26 45.0000000  0  4G11G19G 2G 6
  24488047.2424    4266634.09745   6122027.07561
  22057591.3754    4969902.24846   4161294.84562
  21034759.1954  -16138831.69247  -6984111.11463
  22106402.258   -12419298.708 6  -9122793.25521
 91  3 23  0 27  0.0000000  0  4G11G19G 2G 6
  24496306.211     4310032.908 5   6155844.24421
  22062523.1564    4995817.18546   4181488.26462
  21033059.0234  -16147772.64147  -6991078.05463
  22100453.3524  -12450561.01946  -9147153.43161
 91  3 23  0 27 15.0000000  0  4G11G19G 2G 6
  24504578.9304    4353508.55545   6189721.31161
  22067466.516     5021798.877 6   4201733.69522
  21031367.1484  -16156658.24147  -6998001.86263
  22094506.8984  -12481808.48646  -9171502.03361
 91  3 23  0 27 30.0000000  0  4G11G19G 2G 6
  24512868.5394    4397055.67745   6223654.05461
  22072424.5004    5047842.35046   4222027.27562
  21029686.5394  -16165493.48847  -7004886.43463
  22088562.3834  -12513045.83446  -9195842.76261
 91  3 23  0 27 45.0000000  0  4G11G19G 2G 6
  24521167.1024    4440678.80945   6257646.03461
  22077391.2504    5073952.56546   4242372.85962
  21028015.6804  -16174273.52447  -7011727.98263
  22082621.547   -12544268.086 6  -9220171.71521
 91  3 23  0 28  0.0000000  0  4G11G19G 2G 6
  24529483.758     4484375.083 5   6291695.00621
  22082376.1484    5100126.85346   4262768.36762
  21026354.9614  -16183000.96048  -7018528.54963
  22076682.508   -12575477.514 7  -9244490.67021
 91  3 23  0 28 15.0000000  0  4G11G19G 2G 6
  24537813.5314    4528142.43245   6325799.35961
  22087365.0704    5126363.70646   4283212.62762
  21024703.7584  -16191677.58448  -7025289.52163
  22070745.6334  -12606675.60547  -9268800.80561
 91  3 23  0 28 30.0000000  0  4G11G19G 2G 6
  24546154.445     4571979.546 4   6359958.07021
  22092369.938     5152662.212 6   4303704.93422
  21023062.1804  -16200304.31648  -7032011.61863
  22064810.523   -12637863.264 6  -9293102.80621
 91  3 23  0 28 45.0000000  0  4G11G19G 2G 6
  24554508.758     4615890.484 4   6394174.32721
  22097386.711     5179026.788 6   4324248.71522
  21021430.6724  -16208876.84248  -7038691.47463
  22058878.828   -12669035.906 6  -9317393.10021
 91  3 23  0 29  0.0000000  0  4G11G19G 2G 6
  24562877.0164    4659871.63344   6428445.28861
  22102417.8284    5205454.09746   4344841.38362
  21019808.9774  -16217398.58548  -7045331.76063
  22052948.1254  -12700196.66246  -9341674.14261
 91  3 23  0 29 15.0000000  0  4G11G19G 2G 6
  24571263.5554    4703928.98245   6462775.61861
  22107458.3674    5231950.51046   4365487.89762
  21018197.3204  -16225863.20648  -7051927.53163
  22047023.695   -12731338.949 6  -9365940.78721
 91  3 23  0 29 30.0000000  0  4G11G19G 2G 6
  24579659.2584    4748059.16945   6497162.69561
  22112512.6094    5258513.08446   4386185.96862
  21016597.1174  -16234273.81448  -7058481.21763
  22041100.125   -12762465.546 6  -9390195.20221
 91  3 23  0 29 45.0000000  0  4G11G19G 2G 6
  24588070.4304    4792258.72045   6531603.84461
  22117579.1644    5285138.74046   4406933.19662
  21015007.2584  -16242633.64848  -7064995.33963
  22035177.578   -12793579.402 6  -9414439.68521
 91  3 23  0 30  0.0000000  0  3G19G 2G 6
  22122660.6644    5311827.31446   4427729.44862
  21013426.0314  -16250942.82747  -7071469.98863
  22029260.234   -12824680.542 6  -9438674.26521
 91  3 23  0 30 15.0000000  0  3G19G 2G 6
  22127748.5554    5338581.77846   4448577.04262
  21011853.1484  -16259198.46747  -7077902.91863
  22023344.820   -12855765.810 6  -9462896.47821
 91  3 23  0 30 30.0000000  0  3G19G 2G 6
  22132853.2194    5365401.60246   4469475.56862
  21010293.3204  -16267401.27847  -7084294.68963
  22017432.0944  -12886835.70146  -9487106.70661
 91  3 23  0 30 45.0000000  0  4G15G19G 2G 6
  24350082.4384         -0.18255
  22137969.3364    5392285.91146   4490424.34062
  21008741.5944  -16275552.37847  -7090646.16663
  22011522.2814  -12917890.89346  -9511305.49061
 91  3 23  0 31  0.0000000  0  4G15G19G 2G 6
  24344517.6804     -29245.73645
  22143098.750     5419237.076 6   4511425.20722
  21007201.6254  -16283649.36947  -7096955.47663
  22005616.297   -12948928.707 6  -9535490.72721
 91  3 23  0 31 15.0000000  0  4G15G19G 2G 6
  24338964.6884     -58424.27745
  22148238.242     5446253.038 6   4532476.56222
  21005670.3914  -16291694.28147  -7103224.21063
  21999712.250   -12979951.177 6  -9559664.00921
 91  3 23  0 31 30.0000000  0  4G15G19G 2G 6
  24333421.9774     -87537.11245        -0.38071
  22153394.4224    5473332.16646   4553577.14362
  21004149.2814  -16299688.71347  -7109453.60663
  21993811.703   -13010959.665 7  -9583826.39021
 91  3 23  0 31 45.0000000  0  4G15G19G 2G 6
  24327897.3594    -116578.95045    -22630.23361
  22158556.281     5500479.208 6   4574730.64322
  21002637.7274  -16307628.12347  -7115640.12763
  21987915.1724  -13041949.28247  -9607974.06961
 91  3 23  0 32  0.0000000  0  4G15G19G 2G 6
  24322384.375     -145545.312 5    -45201.26021
  22163737.6414    5527698.33146   4595940.31062
  21001139.3134  -16315508.26447  -7121780.46563
  21982021.469   -13072915.561 7  -9632103.56221
 91  3 23  0 32 15.0000000  0  4G15G19G 2G 6
  24316886.8054    -174442.24545    -67718.18961
  22168928.2034    5554983.11846   4617201.14362
  20999649.7504  -16323335.82447  -7127879.82863
  21976132.4694  -13103864.76047  -9656219.75461
 91  3 23  0 32 30.0000000  0  4G15G19G 2G 6
  24311397.8204    -203276.37845    -90186.18961
  22174133.9144    5582326.72146   4638507.80562
  20998168.5234  -16331117.76247  -7133943.64863
  21970245.0004  -13134803.70247  -9680327.95161
 91  3 23  0 32 45.0000000  0  4G15G19G 2G 6
  24305926.0164    -232038.56345   -112598.13261
  22179348.1954    5609738.03646   4659867.23462
  20996697.9304  -16338845.26447  -7139965.05063
  21964360.2894  -13165723.37047  -9704421.12561
 91  3 23  0 33  0.0000000  0  4G15G19G 2G 6
  24300464.7734    -260735.59145   -134959.29761
  22184579.1954    5637209.54346   4681273.56262
  20995236.1024  -16346525.84947  -7145949.89163
  21958480.852   -13196631.019 7  -9728504.93321
 91  3 23  0 33 15.0000000  0  4G15G19G 2G 6
  24295017.2034    -289365.34445   -157268.03961
  22189816.391     5664743.182 6   4702728.30422
  20993782.9064  -16354157.51547  -7151896.61563
  21952600.203   -13227524.587 7  -9752577.76821
 91  3 23  0 33 30.0000000  0  4G15G19G 2G 6
  24289580.9694    -317921.66945   -179519.56261
  22195068.852     5692345.062 6   4724236.22222
  20992341.5234  -16361734.32847  -7157800.59563
  21946725.672   -13258397.788 7  -9776634.72921
 91  3 23  0 33 45.0000000  0  4G15G19G 2G 6
  24284163.555     -346403.374 5   -201712.95121
  22200333.195     5720015.514 6   4745797.57122
  20990911.3054  -16369256.02247  -7163661.62763
  21940854.578   -13289249.858 7  -9800675.23321
 91  3 23  0 34  0.0000000  0  4G15G19G 2G 6
  24278754.9534    -374815.94645   -223852.46361
  22205615.7734    5747748.73346   4767407.83462
  20989489.1254  -16376728.47647  -7169484.28663
  21934985.844   -13320086.560 7  -9824703.75921
 91  3 23  0 34 15.0000000  0  4G15G19G 2G 6
  24273363.8444    -403160.11145   -245938.67761
  22210901.070     5775544.015 6   4789066.44922
  20988075.7504  -16384152.71447  -7175269.37563
  21929121.4224  -13350908.62947  -9848720.89261
 91  3 23  0 34 30.0000000  0  4G15G19G 2G 6
  24267980.750     -431442.318 5   -267976.62221
  22216201.273     5803394.496 6   4810768.08522
  20986670.5634  -16391535.56547  -7181022.21963
  21923257.406   -13381722.557 7  -9872731.67121
 91  3 23  0 34 45.0000000  0  4G15G19G 2G 6
  24262610.6174    -459651.34745   -289957.52761
  22221513.500     5831310.853 6   4832521.04822
  20985276.8444  -16398866.47647  -7186734.58963
  21917398.2814  -13412517.49247  -9896727.65461
 91  3 23  0 35  0.0000000  0  4G15G19G 2G 6
  24257259.711     -487787.998 5   -311882.05521
  22226839.750     5859291.902 6   4854324.41522
  20983890.3984  -16406146.48747  -7192407.29463
  21911540.227   -13443294.498 7  -9920709.65821
 91  3 23  0 35 15.0000000  0  4G15G19G 2G 6
  24251918.4064    -515846.65945   -333745.78061
  22232176.313     5887342.921 6   4876182.31122
  20982516.789   -16413370.357 7  -7198036.25923
  21905689.148   -13474047.921 7  -9944673.29121
 91  3 23  0 35 30.0000000  0  4G15G19G 2G 6
  24246591.172     -543835.036 5   -355554.77521
  22237527.352     5915455.804 6   4898088.41322
  20981150.695   -16420546.303 7  -7203627.88023
  21899839.992   -13504785.850 7  -9968624.83921
 91  3 23  0 35 45.0000000  0  4G15G19G 2G 6
  24241277.3984    -571752.55845   -377308.54161
  22242886.930     5943630.850 6   4920042.94622
  20979793.1884  -16427674.19947  -7209182.05563
  21893992.156   -13535507.794 7  -9992563.94321
 91  3 23  0 36  0.0000000  0  4G15G19G 2G 6
  24235981.984     -599594.208 5   -399003.19521
  22248262.0554    5971872.45746   4942049.35362
  20978447.664   -16434749.739 7  -7214695.43623
  21888150.453   -13566209.178 7 -10016487.02221
 91  3 23  0 36 15.0000000  0  4G15G19G 2G 6
  24230696.891     -627358.321 5   -420637.42821
  22253648.508     6000182.368 6   4964108.98322
  20977111.828   -16441771.428 7  -7220166.85423
  21882312.6334  -13596888.22347 -10040392.70661
 91  3 23  0 36 30.0000000  0  4G15G19G 2G 6
  24225429.3204    -655048.40345   -442213.97061
  22259049.406     6028556.777 6   4986218.86622
  20975784.8284  -16448742.97947  -7225599.21063
  21876477.7194  -13627548.35347 -10064283.64762
 91  3 23  0 36 45.0000000  0  4G15G19G 2G 6
  24220175.602     -682661.435 5   -463730.48221
  22264459.320     6056998.184 6   5008380.96222
  20974468.102   -16455661.858 7  -7230990.51823
  21870647.0394  -13658186.81947 -10088157.70461
 91  3 23  0 37  0.0000000  0  4G15G19G 2G 6
  24214933.453     -710197.914 5   -485187.35321
  22269885.758     6085505.666 6   5030594.53722
  20973161.1254  -16462529.01047  -7236341.51963
  21864820.672   -13688804.442 7 -10112015.52021
 91  3 23  0 37 15.0000000  0  4G15G19G 2G 6
  24209707.3754    -737657.87745   -506584.58861
  22275322.234     6114078.804 6   5052859.27622
  20971863.961   -16469345.031 7  -7241652.68023
  21858997.9304  -13719401.47447 -10135857.29761
 91  3 23  0 37 30.0000000  0  4G15G19G 2G 6
  24204495.969     -765041.164 5   -527922.09021
  22280773.281     6142717.325 6   5075174.96522
  20970577.031   -16476110.223 7  -7246924.23623
  21853180.1724  -13749977.87147 -10159682.98961
 91  3 23  0 37 45.0000000  0  4G15G19G 2G 6
  24199299.641     -792350.900 5   -549202.27221
  22286233.883     6171418.085 6   5097539.14722
  20969298.633   -16482827.805 7  -7252158.69123
  21847365.1414  -13780536.74547 -10183495.03261
 91  3 23  0 38  0.0000000  0  4G15G19G 2G 6
  24194116.789     -819579.899 5   -570419.52621
  22291710.828     6200187.616 6   5119956.91822
  20968030.773   -16489491.278 7  -7257350.98623
  21841554.7114  -13811071.18247 -10207288.03561
 91  3 23  0 38 15.0000000  0  4G15G19G 2G 6
  24188950.500     -846728.892 5   -591574.46721
  22297195.789     6229024.863 6   5142427.45422
  20966772.914   -16496101.736 7  -7262501.97023
  21835747.3594  -13841582.15647 -10231062.75261
 91  3 23  0 38 30.0000000  0  4G15G19G 2G 6
  24183801.6954    -873796.13245   -612665.70161
  22302698.336     6257931.065 6   5164951.72322
  20965525.313   -16502658.120 7  -7267610.81923
  21829946.7424  -13872068.17947 -10254818.03061
 91  3 23  0 38 45.0000000  0  4G15G19G 2G 6
  24178665.344     -900787.623 5   -633697.89421
  22308207.719     6286900.217 6   5187525.04222
  20964285.906   -16509166.492 7  -7272682.25423
  21824149.1564  -13902535.06947 -10278558.39661
 91  3 23  0 39  0.0000000  0  4G15G19G 2G 6
  24173543.266     -927693.394 5   -654663.30821
  22313737.063     6315942.101 6   5210155.03522
  20963059.578   -16515617.180 7  -7277708.74423
  21818357.7894  -13932972.98247 -10302276.17961
 91  3 23  0 39 15.0000000  0  4G15G19G 2G 6
  24168441.563     -954517.132 5   -675564.78121
  22319275.828     6345052.040 6   5232838.06022
  20961840.875   -16522014.832 7  -7282693.90423
  21812570.1174  -13963386.14047 -10325974.68261
 91  3 23  0 39 30.0000000  0  4G15G19G 2G 6
  24163352.3674    -981257.02645   -696400.94661
  22324828.398     6374231.764 6   5255575.46422
  20960634.164   -16528357.802 7  -7287636.45723
  21806786.3054  -13993772.70647 -10349652.45662
 91  3 23  0 39 45.0000000  0  4G15G19G 2G 6
  24158276.1954   -1007918.55845   -717176.04461
  22330392.938     6403475.623 6   5278362.83822
  20959437.227   -16534651.640 7  -7292540.72823
  21801008.9224  -14024138.17647 -10373313.79261
 91  3 23  0 40  0.0000000  0  4G15G19G 2G 6
  24153220.7424   -1034495.70145   -737885.37461
  22335972.945     6432788.886 6   5301204.30222
  20958250.211   -16540891.176 7  -7297402.67923
  21795234.6024  -14054476.81947 -10396954.23462
 91  3 23  0 40 15.0000000  0  4G15G19G 2G 6
  24148176.492    -1060988.236 5   -758528.78321
  22341562.109     6462171.719 6   5324099.97022
  20957072.250   -16547076.403 7  -7302222.31623
  21789468.4064  -14084788.35647 -10420573.55362
 91  3 23  0 40 30.0000000  0  4G15G19G 2G 6
  24143151.352    -1087402.880 5   -779111.50621
  22347169.141     6491617.038 6   5347044.32622
  20955903.492   -16553214.281 7  -7307005.05723
  21783703.8364  -14115079.65647 -10444177.10162
 91  3 23  0 40 45.0000000  0  5G15G13G19G 2G 6
  24138141.016    -1113732.991 5   -799628.34321
  24104449.0554         -0.14954
  22352780.453     6521130.777 6   5370042.00322
  20954746.164   -16559299.233 7  -7311746.55723
  21777943.9534  -14145344.77347 -10467760.24562
 91  3 23  0 41  0.0000000  0  5G15G13G19G 2G 6
  24133149.6954   -1139977.03545   -820078.12461
  24092810.4384     -61152.91245
  22358413.000     6550714.447 6   5393094.16922
  20953598.547   -16565329.597 7  -7316445.51123
  21772189.1174  -14175581.78947 -10491321.48962
 91  3 23  0 41 15.0000000  0  5G15G13G19G 2G 6
  24128170.1094   -1166133.26845   -840459.48461
  24081178.4844    -122275.39244
  22364056.3054    6580369.33146   5416201.82662
  20952461.844   -16571304.101 7  -7321100.95123
  21766441.531   -14205789.250 7 -10514859.71122
 91  3 23  0 41 30.0000000  0  5G15G13G19G 2G 6
  24123208.5944   -1192203.14745   -860773.54861
  24069555.5474    -183369.07645
  22369712.961     6610093.640 6   5439363.57422
  20951334.711   -16577225.001 7  -7325714.61723
  21760697.7344  -14235968.86147 -10538376.22862
 91  3 23  0 41 45.0000000  0  5G15G13G19G 2G 6
  24118266.0784   -1218187.62345   -881021.06661
  24057932.836     -244434.777 4
  22375381.641     6639886.045 6   5462578.39522
  20950218.602   -16583093.277 7  -7330287.27723
  21754960.5004  -14266121.58047 -10561871.79162
 91  3 23  0 42  0.0000000  0  5G15G13G19G 2G 6
  24113336.6644   -1244090.12245   -901204.71361
  24046316.969     -305475.960 4
  22381061.477     6669742.709 6   5485843.28222
  20949111.070   -16588912.839 7  -7334821.98323
  21749226.8364  -14296250.98847 -10585349.18562
 91  3 23  0 42 15.0000000  0  5G15G13G19G 2G 6
  24108421.8914   -1269910.35945   -921324.26261
  24034708.164     -366492.065 4        -0.19431
  22386755.961     6699663.733 6   5509158.31422
  20948012.742   -16594683.653 7  -7339318.69823
  21743496.5164  -14326356.83047 -10608808.22362
 91  3 23  0 42 30.0000000  0  5G15G13G19G 2G 6
  24103524.086    -1295641.711 5   -941374.55021
  24023103.9614    -427476.32945    -47520.01361
  22392466.031     6729655.422 6   5532528.41522
  20946924.688   -16600399.598 7  -7343772.66123
  21737774.0784  -14356432.55847 -10632243.79462
 91  3 23  0 42 45.0000000  0  5G15G13G19G 2G 6
  24098645.172    -1321284.063 5   -961355.48221
  24011501.0004    -488429.05245    -95015.35161
  22398183.945     6759717.388 6   5555953.27221
  20945846.969   -16606061.204 7  -7348184.28123
  21732056.6334  -14386478.43247 -10655656.10462
 91  3 23  0 43  0.0000000  0  5G15G13G19G 2G 6
  24093781.3834   -1346843.41945   -981271.74961
  23999907.391     -549356.274 4   -142490.71621
  22403915.453     6789843.153 6   5579427.84622
  20944779.656   -16611674.937 7  -7352558.59823
  21726343.0704  -14416500.64947 -10679049.96862
 91  3 23  0 43 15.0000000  0  5G15G13G19G 2G 6
  24088936.477    -1372315.736 5  -1001120.16821
  23988320.023     -610253.473 5   -189942.73621
  22409661.273     6820036.777 6   5602955.29621
  20943721.391   -16617236.851 7  -7356892.53723
  21720636.4454  -14446495.05247 -10702422.17462
 91  3 23  0 43 30.0000000  0  5G15G13G19G 2G 6
  24084102.289    -1397701.196 5  -1020900.95621
  23976736.1484    -671120.71745   -237371.42161
  22415422.406     6850297.876 6   5626535.32422
  20942672.695   -16622747.400 7  -7361186.45023
  21714934.3054  -14476461.81047 -10725772.83662
 91  3 23  0 43 45.0000000  0  5G15G13G19G 2G 6
  24079290.109    -1423000.413 5  -1040614.50621
  23965159.5004    -731958.91245   -284777.43961
  22421191.109     6880625.124 6   5650166.89821
  20941633.047   -16628207.852 7  -7365441.32523
  21709236.7034  -14506401.93647 -10749102.73862
 91  3 23  0 44  0.0000000  0  5G15G13G19G 2G 6
  24074490.492    -1448212.094 5  -1060259.86021
  23953587.7504    -792766.45445   -332159.58461
  22426980.156     6911019.497 6   5673850.77422
  20940603.305   -16633617.300 7  -7369656.45723
  21703543.0864  -14536314.18047 -10772410.91662
 91  3 23  0 44 15.0000000  0  5G15G13G19G 2G 6
  24069708.0784   -1473335.88445  -1079836.70161
  23942023.7974    -853542.93645   -379517.54661
  22432774.336     6941480.902 6   5697586.88022
  20939583.508   -16638975.710 7  -7373831.82223
  21697857.0474  -14566198.30447 -10795697.18562
 91  3 23  0 44 30.0000000  0  5G15G13G19G 2G 6
  24064945.109    -1498371.038 5  -1099344.52521
  23930463.8834    -914287.79645   -426850.85161
  22438583.703     6972009.491 6   5721375.33822
  20938575.242   -16644282.860 7  -7377967.23723
  21692175.2274  -14596053.96747 -10818961.27662
 91  3 23  0 44 45.0000000  0  5G15G13G19G 2G 6
  24060199.2504   -1523316.65745  -1118782.54561
  23918909.055     -975000.212 5   -474158.84321
  22444404.609     7002606.055 6   5745216.76422
  20937573.922   -16649538.206 7  -7382062.29323
  21686500.3834  -14625880.20747 -10842202.44262
 91  3 23  0 45  0.0000000  0  5G15G13G19G 2G 6
  24055469.6804   -1548170.43345  -1138149.02061
  23907360.484    -1035677.595 5   -521439.60221
  22450240.891     7033272.789 6   5769112.86822
  20936583.484   -16654739.828 7  -7386115.48223
  21680830.258   -14655674.711 7 -10865418.88322
 91  3 23  0 45 15.0000000  0  5G15G13G19G 2G 6
  24050757.9614   -1572937.91445  -1157448.24561
  23895822.266    -1096325.366 5   -568697.27121
  22456088.086     7064003.754 6   5793059.01822
  20935603.664   -16659893.744 7  -7390131.49923
  21675164.9844  -14685443.21047 -10888615.05962
 91  3 23  0 45 30.0000000  0  5G15G13G19G 2G 6
  24046057.664    -1597623.080 5  -1176683.33121
  23884284.883    -1156947.793 5   -615935.16521
  22461948.9534    7094794.35946   5817051.63762
  20934630.648   -16665004.321 7  -7394113.74923
  21669504.9144  -14715189.94847 -10911794.27662
 91  3 23  0 45 45.0000000  0  5G15G13G19G 2G 6
  24041379.258    -1622218.905 5  -1195848.80221
  23872755.7424   -1217537.94545   -663147.93861
  22467819.1414    7125651.09946   5841095.79762
  20933667.828   -16670065.125 7  -7398057.21023
  21663850.6024  -14744908.12547 -10934951.23462
 91  3 23  0 46  0.0000000  0  5G15G13G19G 2G 6
  24036715.453    -1646724.336 5  -1214943.83221
  23861230.0474   -1278094.15045   -710334.22661
  22473704.5554    7156574.96346   5865192.25362
  20932714.484   -16675075.273 7  -7401961.20023
  21658199.8054  -14774596.52947 -10958084.99662
 91  3 23  0 46 15.0000000  0  5G15G13G19G 2G 6
  24032066.891    -1671136.904 5  -1233966.49521
  23849713.5704   -1338614.06945   -757492.28561
  22479601.5234    7187568.35246   5889342.89162
  20931770.836   -16680032.382 7  -7405823.86023
  21652557.4774  -14804252.63247 -10981193.58762
 91  3 23  0 46 30.0000000  0  5G15G13G19G 2G 6
  24027442.195    -1695457.223 5  -1252917.28121
  23838202.469    -1399098.427 5   -804622.62421
  22485516.953     7218629.810 5   5913546.56722
  20930838.063   -16684937.873 7  -7409646.29923
  21646919.102   -14833877.502 7 -11004277.84322
 91  3 23  0 46 45.0000000  0  5G15G13G19G 2G 6
  24022831.203    -1719681.939 5  -1271793.56621
  23826700.391    -1459543.527 5   -851722.33921
  22491437.5554    7249762.42546   5937805.69462
  20929914.344   -16689788.526 7  -7413426.00623
  21641287.3594  -14863467.63247 -11027335.02962
 91  3 23  0 47  0.0000000  0  5G15G13G19G 2G 6
  24018239.8204   -1743817.35445  -1290600.27561
  23815206.133    -1519955.578 5   -898796.31921
  22497374.9694    7280959.70746   5962115.20762
  20929000.500   -16694591.199 7  -7417168.32823
  21635662.1954  -14893029.52447 -11050370.21162
 91  3 23  0 47 15.0000000  0  5G15G13G19G 2G 6
  24013660.9774   -1767861.03445  -1309335.49661
  23803714.117    -1580332.187 5   -945842.69121
  22503323.7194    7312223.71546   5986476.71262
  20928096.867   -16699343.822 7  -7420871.64823
  21630043.8984  -14922560.93347 -11073381.63962
 91  3 23  0 47 30.0000000  0  5G15G13G19G 2G 6
  24009106.086    -1791813.005 5  -1327999.25921
  23792233.836    -1640673.233 5   -992861.35521
  22509286.6804    7343554.07846   6010889.92262
  20927201.820   -16704046.779 7  -7424536.26523
  21624429.4144  -14952061.84047 -11096369.30062
 91  3 23  0 47 45.0000000  0  5G15G13G19G 2G 6
  24004565.2664   -1815673.28745  -1346591.56861
  23780755.797    -1700979.030 5  -1039852.58021
  22515259.5314    7374950.33646   6035354.48162
  20926316.586   -16708700.673 7  -7428162.65423
  21618821.3204  -14981532.63047 -11119333.48562
 91  3 23  0 48  0.0000000  0  5G15G13G19G 2G 6
  24000040.359    -1839443.176 5  -1365113.44621
  23769288.3834   -1761250.80945  -1086817.25661
  22521246.859     7406410.705 6   6059868.99722
  20925438.875   -16713307.275 7  -7431752.19023
  21613218.3284  -15010974.69547 -11142275.30162
 91  3 23  0 48 15.0000000  0  5G15G13G19G 2G 6
  23995536.4534   -1863119.45945  -1383562.38461
  23757823.9224   -1821485.08145  -1133752.74961
  22527244.695     7437938.323 6   6084435.91622
  20924571.789   -16717863.427 7  -7435302.41623
  21607621.945   -15040384.709 7 -11165192.13922
 91  3 23  0 48 30.0000000  0  5G15G13G19G 2G 6
  23991049.1804   -1886702.58445  -1401938.71561
  23746370.2034   -1881682.27745  -1180659.33161
  22533259.6414    7469532.48146   6109054.68361
  20923714.063   -16722369.925 7  -7438813.95123
  21602030.492   -15069763.241 7 -11188084.44622
 91  3 23  0 48 45.0000000  0  5G15G13G19G 2G 6
  23986577.2114   -1910192.38245  -1420242.34961
  23734920.688    -1941842.037 5  -1227536.74321
  22539283.2424    7501192.79946   6133725.00161
  20922865.484   -16726826.897 7  -7442286.89423
  21596447.1884  -15099110.20047 -11210952.14862
 91  3 23  0 49  0.0000000  0  5G15G13G19G 2G 6
  23982123.5474   -1933589.20545  -1438473.51161
  23723478.383    -2001964.661 5  -1274385.23921
  22545322.3054    7532918.71046   6158446.42862
  20922027.828   -16731235.322 7  -7445722.00923
  21590867.633   -15128425.943 7 -11233795.53022
 91  3 23  0 49 15.0000000  0  5G15G13G19G 2G 6
  23977690.0474   -1956889.75345  -1456629.65061
  23712044.516    -2062047.135 5  -1321202.47421
  22551369.4694    7564712.92046   6183221.07962
  20921197.656   -16735592.534 7  -7449117.21823
  21585295.469   -15157707.616 7 -11256612.36822
 91  3 23  0 49 30.0000000  0  5G15G13G19G 2G 6
  23973272.875    -1980100.020 5  -1474715.46121
  23700619.8054   -2122095.23745  -1367992.83861
  22557431.9694    7596569.02346   6208043.95562
  20920377.234   -16739904.656 7  -7452477.29023
  21579727.586   -15186961.187 7 -11279407.30322
 91  3 23  0 49 45.0000000  0  5G15G13G19G 2G 6
  23968874.563    -2003218.383 5  -1492729.64721
  23689198.3444   -2182107.19445  -1414755.09561
  22563507.0864    7628488.47046   6232916.19062
  20919565.125   -16744170.421 7  -7455801.24123
  21574167.656   -15216185.091 7 -11302179.12622
 91  3 23  0 50  0.0000000  0  5G15G13G19G 2G 6
  23964493.789    -2026235.942 5  -1510665.29921
  23677785.5394   -2242073.96145  -1461482.15261
  22569595.9384    7660479.78945   6257844.43562
  20918764.203   -16748381.382 7  -7459082.48523
  21568613.969   -15245370.473 7 -11324920.92522
 91  3 23  0 50 15.0000000  0  5G15G13G19G 2G 6
  23960131.586    -2049154.289 5  -1528523.63321
  23666383.5084   -2301997.08545  -1508175.18461
  22575695.0314    7692540.94446   6282827.09361
  20917972.953   -16752539.439 7  -7462322.50623
  21563068.078   -15274519.062 7 -11347634.05622
 91  3 23  0 50 30.0000000  0  5G15G13G19G 2G 6
  23955792.1174   -2071972.75645  -1546304.13661
  23654990.3444   -2361875.90945  -1554833.70961
  22581813.3914    7724672.61045   6307864.69861
  20917192.219   -16756644.094 7  -7465520.91823
  21557527.656   -15303630.185 7 -11370317.99322
 91  3 23  0 50 45.0000000  0  5G15G13G19G 2G 6
  23951465.469    -2094699.695 5  -1564013.33821
  23643601.0084   -2421718.70545  -1601464.15561
  22587934.8134    7756865.99446   6332950.39461
  20916419.180   -16760704.321 7  -7468684.70823
  21551993.391   -15332712.223 7 -11392979.26722
 91  3 23  0 51  0.0000000  0  5G15G13G19G 2G 6
  23947160.383    -2117332.475 5  -1581649.14121
  23632222.0084   -2481522.74945  -1648064.39161
  22594075.1954    7789123.45545   6358086.02061
  20915654.688   -16764717.735 7  -7471812.02423
  21546465.078   -15361762.665 7 -11415615.92422
 91  3 23  0 51 15.0000000  0  5G15G13G19G 2G 6
  23942872.4694   -2139864.42045  -1599206.39161
  23620850.1564   -2541281.67745  -1694629.50761
  22600226.2034    7821451.06746   6383276.30261
  20914902.117   -16768678.204 7  -7474898.08323
  21540944.2274  -15390775.12247 -11438222.97862
 91  3 23  0 51 30.0000000  0  5G15G13G19G 2G 6
  23938602.8054   -2162297.51845  -1616686.60661
  23609484.883    -2600996.869 5  -1741160.54821
  22606392.2114    7853846.46745   6408519.41161
  20914158.961   -16772588.015 7  -7477944.66623
  21535429.6024  -15419751.53547 -11460801.94262
 91  3 23  0 51 45.0000000  0  5G15G13G19G 2G 6
  23934353.9774   -2184630.17145  -1634088.56661
  23598131.000    -2660666.812 5  -1787656.32821
  22612569.2504    7886310.93446   6433816.33561
  20913423.672   -16776446.060 7  -7480950.91823
  21529923.156   -15448690.458 7 -11483351.69722
 91  3 23  0 52  0.0000000  0  5G15G13G19G 2G 6
  23930123.578    -2206863.110 5  -1651412.82321
  23586783.773    -2720292.406 5  -1834117.53921
  22618761.3204    7918843.33645   6459166.20562
  20912698.594   -16780253.504 7  -7483917.73723
  21524423.0474  -15477592.80147 -11505872.94862
 91  3 23  0 52 15.0000000  0  5G15G13G19G 2G 6
  23925910.023    -2228999.832 5  -1668662.11021
  23575447.164    -2779876.990 5  -1880546.81221
  22624962.0234    7951439.82645   6484566.00561
  20911983.227   -16784014.171 7  -7486848.10623
  21518929.1954  -15506462.01447 -11528368.38262
 91  3 23  0 52 30.0000000  0  5G15G13G19G 2G 6
  23921717.3674   -2251032.85445  -1685830.57161
  23564115.758    -2839412.725 5  -1926938.00021
  22631180.0784    7984107.66245   6510021.40361
  20911278.547   -16787720.931 8  -7489736.47223
  21513442.930   -15535290.740 7 -11550832.27022
 91  3 23  0 52 45.0000000  0  5G15G13G19G 2G 6
  23917544.070    -2272967.211 5  -1702922.16821
  23552794.141    -2898904.506 5  -1973294.93021
  22637405.8054    8016841.51445   6535528.23261
  20910582.750   -16791379.046 8  -7492586.92723
  21507964.672   -15564083.885 7 -11573268.43422
 91  3 23  0 53  0.0000000  0  5G15G13G19G 2G 6
  23913387.914    -2294804.854 5  -1719938.41021
  23541480.3444   -2958354.39545  -2019619.24561
  22643652.3754    8049639.13845   6561084.76061
  20909894.422   -16794990.746 8  -7495401.21623
  21502491.0164  -15592843.52647 -11595678.49062
 91  3 23  0 53 15.0000000  0  5G15G13G19G 2G 6
  23909249.8914   -2316541.84145  -1736876.21361
  23530176.6334   -3017758.49945  -2065907.88261
  22649903.5634    8082503.91045   6586693.61361
  20909217.453   -16798552.605 8  -7498176.66923
  21497024.219   -15621565.941 7 -11618059.53322
 91  3 23  0 53 30.0000000  0  5G15G13G19G 2G 6
  23905130.750    -2338181.792 5  -1753738.40921
  23518879.3984   -3077120.39445  -2112163.65561
  22656170.5864    8115431.89145   6612351.71861
  20908548.453   -16802068.582 8  -7500916.36823
  21491566.617   -15650254.787 7 -11640414.42322
 91  3 23  0 53 45.0000000  0  5G15G13G19G 2G 6
  23901033.1804   -2359720.12745  -1770521.43361
  23507592.977    -3136435.480 5  -2158382.89621
  22662448.1724    8148427.35745   6638062.40761
  20907888.195   -16805534.525 8  -7503617.07923
  21486114.656   -15678905.538 7 -11662739.63022
 91  3 23  0 54  0.0000000  0  5G15G13G19G 2G 6
  23896954.7974   -2381155.27245  -1787224.02561
  23496314.0004   -3195701.93545  -2204564.28761
  22668740.6954    8181491.53145   6663826.63861
  20907239.883   -16808949.372 8  -7506277.97923
  21480669.672   -15707516.789 7 -11685034.05822
 91  3 23  0 54 15.0000000  0  5G15G13G19G 2G 6
  23892891.570    -2402492.692 5  -1803850.48521
  23485046.4924   -3254925.31345  -2250712.11161
  22675045.1334    8214618.55645   6689639.83861
  20906597.367   -16812318.850 8  -7508903.53023
  21475231.719   -15736093.917 7 -11707301.89822
 91  3 23  0 54 30.0000000  0  5G15G13G19G 2G 6
  23888853.5474   -2423725.60045  -1820395.52061
  23473783.7814   -3314098.64345  -2296820.88761
  22681361.3054    8247814.96745   6715507.10961
  20905965.742   -16815636.417 7  -7511488.62923
  21469800.250   -15764630.255 7 -11729537.95222
 91  3 23  0 54 45.0000000  0  5G15G13G19G 2G 6
  23884833.2034   -2444856.73045  -1836861.23761
  23462535.5234   -3373224.52245  -2342892.75761
  22687690.7814    8281077.59846   6741425.98461
  20905343.664   -16818905.341 7  -7514035.82623
  21464378.5164  -15793128.72847 -11751744.50162
 91  3 23  0 55  0.0000000  0  5G15G13G19G 2G 6
  23880831.000    -2465883.882 5  -1853245.93221
  23451291.883    -3432300.533 5  -2388925.75021
  22694036.0234    8314408.39645   6767397.96661
  20904731.313   -16822123.644 7  -7516543.57323
  21458962.023   -15821587.110 7 -11773919.80622
 91  3 23  0 55 15.0000000  0  5G15G13G19G 2G 6
  23876850.531    -2486806.264 5  -1869548.98821
  23440058.898    -3491326.191 5  -2434919.47821
  22700388.7734    8347807.89845   6793423.49461
  20904129.422   -16825290.756 7  -7519011.43423
  21453554.289   -15850004.616 7 -11796063.26722
 91  3 23  0 55 30.0000000  0  5G15G13G19G 2G 6
  23872888.6804   -2507624.16845  -1885770.62361
  23428835.9614   -3550301.70545  -2480874.16761
  22706758.8914    8381275.31945   6819501.93961
  20903535.266   -16828407.451 7  -7521440.01123
  21448154.0394  -15878381.64947 -11818175.18262
 91  3 23  0 55 45.0000000  0  5G15G13G19G 2G 6
  23868947.930    -2528329.946 5  -1901904.90421
  23417621.484    -3609218.989 5  -2526783.50121
  22713141.8204    8414818.14646   6845639.14161
  20902954.094   -16831466.453 8  -7523823.63123
  21442763.5394  -15906710.50847 -11840249.56362
 91  3 23  0 56  0.0000000  0  5G15G13G19G 2G 6
  23865027.7114   -2548935.87545  -1917961.36561
  23406419.8594   -3668090.26945  -2572656.92661
  22719536.8204    8448423.64745   6871825.17761
  20902379.672   -16834480.414 8  -7526172.15523
  21437379.7894  -15935003.56247 -11862296.04062
 91  3 23  0 56 15.0000000  0  5G15G13G19G 2G 6
  23861122.5004   -2569439.45345  -1933938.06761
  23395225.711    -3726913.043 5  -2618492.60221
  22725943.461     8482093.861 5   6898061.63921
  20901815.852   -16837447.225 8  -7528483.93623
  21432003.102   -15963258.391 7 -11884312.73222
 91  3 23  0 56 30.0000000  0  5G15G13G19G 2G 6
  23857243.531    -2589840.072 5  -1949834.56321
  23384041.461    -3785686.736 5  -2664290.05021
  22732366.6024    8515828.93445   6924348.64361
  20901259.367   -16840366.687 8  -7530758.82223
  21426634.258   -15991474.629 7 -11906299.35922
 91  3 23  0 56 45.0000000  0  5G15G13G19G 2G 6
  23853383.719    -2610137.818 5  -1965650.88321
  23372867.1724   -3844411.28445  -2710049.15161
  22738795.117     8549628.508 5   6950685.91021
  20900712.422   -16843239.325 8  -7532997.22123
  21421271.484   -16019652.338 7 -11928255.96222
 91  3 23  0 57  0.0000000  0  5G15G13G19G 2G 6
  23849535.8754   -2630330.98145  -1981385.71861
  23361701.4384   -3903084.83145  -2755768.56961
  22745240.7664    8583494.12245   6977074.63561
  20900175.914   -16846063.480 8  -7535197.84423
  21415917.398   -16047789.738 7 -11950181.15922
 91  3 23  0 57 15.0000000  0  5G15G13G19G 2G 6
  23845715.6884   -2650409.27545  -1997031.04561
  23350547.656    -3961697.217 5  -2801440.31121
  22751698.9384    8617435.76545   7003522.60161
  20899649.625   -16848829.242 8  -7537352.96923
  21410572.219   -16075876.706 7 -11972067.05322
 91  3 23  0 57 30.0000000  0  5G15G13G19G 2G 6
  23841914.258    -2670388.079 5  -2012598.83821
  23339401.2034   -4020263.73945  -2847076.30661
  22758168.9774    8651437.66845   7030017.52961
  20899131.797   -16851552.388 8  -7539474.87823
  21405234.8674  -16103928.53747 -11993925.56662
 91  3 23  0 57 45.0000000  0  5G15G13G19G 2G 6
  23838132.984    -2690261.479 5  -2028084.52121
  23328267.3054   -4078778.05645  -2892671.63261
  22764652.2114    8685505.63745   7056563.93361
  20898622.781   -16854227.335 8  -7541559.23623
  21399903.6334  -16131939.26347 -12015752.04762
 91  3 23  0 58  0.0000000  0  5G15G13G19G 2G 6
  23834370.523    -2710029.282 5  -2043487.89221
  23317143.4694   -4137240.16245  -2938226.25861
  22771150.6174    8719639.11745   7083161.38361
  20898121.805   -16856854.333 8  -7543606.23023
  21394581.367   -16159908.887 7 -12037546.50822
 91  3 23  0 58 15.0000000  0  5G15G13G19G 2G 6
  23830628.844    -2729688.546 5  -2058806.69921
  23306028.2114   -4195647.03745  -2983737.87861
  22777655.4614    8753840.78045   7109811.96661
  20897632.641   -16859430.920 7  -7545613.94423
  21389268.078   -16187834.564 7 -12059306.72122
 91  3 23  0 58 30.0000000  0  5G15G13G19G 2G 6
  23826908.703    -2749243.872 5  -2074044.50521
  23294922.7734   -4254002.84945  -3029209.68061
  22784177.2734    8788105.92245   7136512.01061
  20897150.398   -16861961.747 7  -7547585.99923
  21383961.1024  -16215720.75247 -12081036.15962
 91  3 23  0 58 45.0000000  0  5G15G13G19G 2G 6
  23823207.4534   -2768691.00445  -2089198.02261
  23283827.8834   -4312303.52345  -3074638.53561
  22790709.922     8822438.133 5   7163264.31021
  20896678.695   -16864443.239 7  -7549519.61323
  21378662.734   -16243563.441 7 -12102731.70622
 91  3 23  0 59  0.0000000  0  5G15G13G19G 2G 6
  23819527.680    -2788028.233 5  -2104265.87321
  23272746.8284   -4370547.26745  -3120023.04661
  22797259.9454    8856838.98945   7190070.10361
  20896214.695   -16866873.793 7  -7551413.53723
  21373373.227   -16271360.974 7 -12124392.06222
 91  3 23  0 59 15.0000000  0  5G15G13G19G 2G 6
  23815866.9304   -2807258.10245  -2119250.09861
  23261672.195    -4428736.574 5  -3165365.10421
  22803815.0944    8891305.29645   7216926.89661
  20895762.234   -16869256.273 7  -7553270.00423
  21368090.969   -16299116.060 7 -12146019.35022
 91  3 23  0 59 30.0000000  0  5G15G13G19G 2G 6
  23812230.5944   -2826375.97245  -2134147.04061
  23250609.3594   -4486866.79145  -3210661.15361
  22810387.8204    8925841.66945   7243838.29161
  20895319.055   -16871586.399 7  -7555085.67123
  21362818.602   -16326823.967 7 -12167609.87622
 91  3 23  0 59 45.0000000  0  5G15G13G19G 2G 6
  23808613.0554   -2845383.44045  -2148957.95261
  23239560.141    -4544938.970 5  -3255911.96321
  22816970.664     8960446.111 5   7270802.72521
  20894885.820   -16873866.052 7  -7556862.00723
  21357554.602   -16354486.210 7 -12189164.81722
 91  3 23  1  0  0.0000000  0  5G15G13G19G 2G 6
  23805017.531    -2864283.653 5  -2163685.28821
  23228518.242    -4602956.279 5  -3301120.03021
  22823570.359     8995115.184 5   7297817.51421
  20894460.0164  -16876098.88647  -7558601.86663
  21352298.5004  -16382105.92747 -12210686.61362
 91  3 23  1  0 15.0000000  0  5G15G13G19G 2G 6
  23801441.6724   -2883071.93645  -2178325.40561
  23217490.523    -4660914.042 5  -3346281.67021
  22830177.938     9029853.456 5   7324886.22621
  20894045.180   -16878280.106 7  -7560301.50823
  21347051.766   -16409678.243 7 -12232171.49022
 91  3 23  1  0 30.0000000  0  5G15G13G19G 2G 6
  23797884.828    -2901752.823 5  -2192881.83821
  23206469.727    -4718816.876 5  -3391400.58321
  22836802.219     9064655.965 5   7352004.99021
  20893639.273   -16880414.974 7  -7561965.02623
  21341813.992   -16437207.998 7 -12253623.20022
 91  3 23  1  0 45.0000000  0  5G15G13G19G 2G 6
  23794351.4064   -2920326.24345  -2207354.53761
  23195460.1724   -4776664.42145  -3436476.33161
  22843435.9304    9099522.31245   7379173.50561
  20893241.445   -16882503.759 7  -7563592.63523
  21336582.4064  -16464695.12947 -12275041.69062
 91  3 23  1  1  0.0000000  0  5G15G13G19G 2G 6
  23790839.8594   -2938786.05945  -2221738.70861
  23184466.883    -4834450.757 5  -3481504.40621
  22850086.727     9134458.171 5   7406396.17921
  20892852.875   -16884540.906 7  -7565180.01423
  21331361.680   -16492133.774 7 -12296422.40122
 91  3 23  1  1 15.0000000  0  5G15G13G19G 2G 6
  23787346.492    -2957136.182 5  -2236037.39921
  23173480.336    -4892179.243 5  -3526487.39721
  22856747.0394    9169459.52045   7433669.88661
  20892475.289   -16886530.362 7  -7566730.21723
  21326148.789   -16519527.712 7 -12317768.27922
 91  3 23  1  1 30.0000000  0  5G15G13G19G 2G 6
  23783876.703    -2975378.937 5  -2250252.44321
  23162505.477    -4949852.571 5  -3571427.44621
  22863420.508     9204523.421 5   7460992.33121
  20892105.633   -16888474.995 8  -7568245.49823
  21320942.898   -16546879.380 7 -12339081.22122
 91  3 23  1  1 45.0000000  0  5G15G13G19G 2G 6
  23780423.258    -2993511.450 5  -2264381.57121
  23151540.5944   -5007467.52645  -3616321.97061
  22870103.828     9239652.526 5   7488365.58121
  20891744.5864  -16890372.03348  -7569723.69963
  21315747.164   -16574185.751 7 -12360358.85922
 91  3 23  1  2  0.0000000  0  5G15G13G19G 2G 6
  23776995.469    -3011532.445 5  -2278423.80121
  23140588.828    -5065022.920 5  -3661170.11321
  22876799.789     9274847.840 5   7515790.43221
  20891392.391   -16892220.602 8  -7571164.12823
  21310559.125   -16601445.694 7 -12381600.32722
 91  3 23  1  2 15.0000000  0  5G15G13G19G 2G 6
  23773586.6024   -3029437.39945  -2292375.62461
  23129649.047    -5122514.140 5  -3705968.22421
  22883512.328     9310113.466 5   7543270.06321
  20891049.9614  -16894016.53748  -7572563.54863
  21305381.930   -16628654.795 7 -12402802.17522
 91  3 23  1  2 30.0000000  0  5G15G13G19G 2G 6
  23770202.4534   -3047231.58045  -2306241.10361
  23118719.1804   -5179946.21445  -3750720.24261
  22890235.172     9345443.962 5   7570800.24021
  20890717.4304  -16895765.23548  -7573926.15863
  21300213.352   -16655818.166 7 -12423968.39022
 91  3 23  1  2 45.0000000  0  5G15G13G19G 2G 6
  23766835.7734   -3064915.37645  -2320020.59961
  23107801.039    -5237319.593 5  -3795426.55521
  22896969.813     9380838.544 5   7598380.35921
  20890393.6414  -16897467.46948  -7575252.56563
  21295052.508   -16682936.282 7 -12445099.34622
 91  3 23  1  3  0.0000000  0  5G15G13G19G 2G 6
  23763491.422    -3082486.112 5  -2333711.98021
  23096894.9454   -5294631.37145  -3840084.84061
  22903720.648     9416299.118 5   7626011.90421
  20890079.6254  -16899121.27948  -7576541.23863
  21289901.531   -16710006.717 7 -12466193.14523
 91  3 23  1  3 15.0000000  0  5G15G13G19G 2G 6
  23760170.875    -3099944.574 5  -2347315.87721
  23086000.5164   -5351881.86945  -3884695.39861
  22910478.281     9451825.045 5   7653694.37321
  20889772.547   -16900727.289 8  -7577792.66123
  21284758.484   -16737029.813 7 -12487250.06022
 91  3 23  1  3 30.0000000  0  5G15G13G19G 2G 6
  23756869.3984   -3117291.73245  -2360833.04561
  23075116.805    -5409072.159 6  -3929259.05021
  22917251.711     9487415.065 5   7681426.77921
  20889476.2194  -16902286.95748  -7579007.97563
  21279624.523   -16764006.742 7 -12508270.98722
 91  3 23  1  3 45.0000000  0  5G15G13G19G 2G 6
  23753587.758    -3134525.172 6  -2374261.60321
  23064246.234    -5466199.770 5  -3973773.83521
  22924036.000     9523071.263 5   7709210.75621
  20889189.8054  -16903798.10148  -7580185.48163
  21274499.648   -16790935.076 7 -12529254.06023
 91  3 23  1  4  0.0000000  0  5G15G13G19G 2G 6
  23750331.781    -3151643.836 6  -2387600.72321
  23053387.789    -5523263.524 6  -4018238.88921
  22930835.7734    9558794.38545   7737046.88061
  20888911.2734  -16905259.91748  -7581324.54763
  21269384.664   -16817813.743 7 -12550198.42722
 91  3 23  1  4 15.0000000  0  5G15G13G19G 2G 6
  23747098.344    -3168647.967 6  -2400850.59721
  23042538.9304   -5580263.67746  -4062654.36261
  22937645.492     9594583.613 5   7764934.51521
  20888641.703   -16906673.016 8  -7582425.64823
  21264279.813   -16844642.968 7 -12571104.26322
 91  3 23  1  4 30.0000000  0  5G15G13G19G 2G 6
  23743882.8754   -3185535.91445  -2414009.93561
  23031705.7734   -5637198.46846  -4107018.89461
  22944468.094     9630440.249 5   7792874.67821
  20888382.938   -16908036.171 8  -7583487.83023
  21259184.148   -16871421.312 7 -12591970.45822
 91  3 23  1  4 45.0000000  0  5G15G13G19G 2G 6
  23740691.2034   -3202306.48846  -2427077.81761
  23020884.5784   -5694066.41246  -4151331.36461
  22951304.953     9666365.311 5   7820868.16421
  20888133.273   -16909348.394 8  -7584510.32523
  21254097.813   -16898147.352 7 -12612795.90122
 91  3 23  1  5  0.0000000  0  5G15G13G19G 2G 6
  23737520.8754   -3218959.94746  -2440054.44561
  23010074.992    -5750867.749 6  -4195591.92921
  22958156.7194    9702358.37945   7848914.63361
  20887892.820   -16910610.208 8  -7585493.53823
  21249022.578   -16924821.323 7 -12633580.77422
 91  3 23  1  5 15.0000000  0  5G15G13G19G 2G 6
  23734374.0554   -3235496.38546  -2452939.87861
  22999278.2274   -5807602.33346  -4239800.48661
  22965016.836     9738419.012 5   7877013.74921
  20887661.000   -16911821.891 7  -7586437.68623
  21243956.859   -16951443.210 7 -12654325.05922
 91  3 23  1  5 30.0000000  0  5G15G13G19G 2G 6
  23731250.5944   -3251917.66246  -2465735.58161
  22988494.3834   -5864272.16446  -4283958.57361
  22971893.633     9774544.926 5   7905163.73721
  20887440.344   -16912986.051 7  -7587344.80023
  21238899.586   -16978015.224 7 -12675030.47822
 91  3 23  1  5 45.0000000  0  5G15G13G19G 2G 6
  23728148.0554   -3268221.95845  -2478440.12261
  22977724.0554   -5920875.29846  -4328064.69061
  22978777.484     9810737.590 5   7933365.74021
  20887228.344   -16914101.089 8  -7588213.64723
  21233853.336   -17004535.480 7 -12695695.56822
 91  3 23  1  6  0.0000000  0  5G15G13G19G 2G 6
  23725065.641    -3284410.409 5  -2491054.40321
  22966964.4144   -5977412.64346  -4372119.53761
  22985678.906     9846995.403 5   7961618.50421
  20887026.039   -16915168.326 7  -7589045.24923
  21228815.695   -17031005.035 7 -12716321.14922
 91  3 23  1  6 15.0000000  0  5G15G13G19G 2G 6
  23722008.273    -3300484.470 5  -2503579.55721
  22956219.117    -6033885.287 6  -4416123.98921
  22992589.1174    9883316.86745   7989920.87761
  20886830.516   -16916189.417 7  -7589840.89123
  21223790.016   -17057425.288 7 -12736908.31422
 91  3 23  1  6 30.0000000  0  5G15G13G19G 2G 6
  23718969.4454   -3316442.09346  -2516013.97761
  22945483.273    -6090291.393 6  -4460076.58521
  22999515.6484    9919703.76745   8018274.23061
  20886644.164   -16917162.472 7  -7590599.09723
  21218771.6484  -17083794.12847 -12757455.42062
 91  3 23  1  6 45.0000000  0  5G15G13G19G 2G 6
  23715957.797    -3332283.392 5  -2528357.74121
  22934760.8754   -6146630.96946  -4503977.34261
  23006450.500     9956155.478 5   8046678.08921
  20886469.742   -16918088.186 7  -7591320.41523
  21213762.867   -17110111.686 7 -12777962.56622
 91  3 23  1  7  0.0000000  0  5G15G13G19G 2G 6
  23712965.023    -3348007.163 6  -2540609.94921
  22924055.156    -6202902.615 6  -4547825.16621
  23013398.7894    9992672.73845   8075133.02161
  20886302.359   -16918965.656 7  -7592004.14123
  21208764.680   -17136376.861 7 -12798428.89522
 91  3 23  1  7 15.0000000  0  5G15G13G19G 2G 6
  23709996.1724   -3363608.05846  -2552766.40261
  22913360.898    -6259101.087 6  -4591615.98321
  23020361.719    10029260.490 5   8103642.88421
  20886146.477   -16919790.047 7  -7592646.50323
  21203778.430   -17162584.371 7 -12818850.28022
 91  3 23  1  7 30.0000000  0  5G15G13G19G 2G 6
  23707049.5004   -3379092.82446  -2564832.36161
  22902677.4774   -6315232.88646  -4635354.84361
  23027339.945    10065911.871 5   8132202.32321
  20885999.086   -16920568.309 8  -7593252.92923
  21198799.609   -17188741.036 7 -12839232.04822
 91  3 23  1  7 45.0000000  0  5G15G13G19G 2G 6
  23704125.3594   -3394459.91346  -2576806.62261
  22892007.9224   -6371296.28546  -4679040.38661
  23034322.844    10102628.221 5   8160812.39221
  20885858.984   -16921299.103 8  -7593822.35823
  21193832.852   -17214845.117 7 -12859572.84422
 91  3 23  1  8  0.0000000  0  5G15G13G19G 2G 6
  23701224.195    -3409708.107 6  -2588688.25621
  22881351.555    -6427289.899 6  -4722671.57021
  23041323.711    10139410.442 5   8189473.78221
  20885728.617   -16921981.331 8  -7594353.94223
  21188875.484   -17240895.282 7 -12879871.62823
 91  3 23  1  8 15.0000000  0  5G15G13G19G 2G 6
  23698345.1484   -3424834.33046  -2600474.82661
  22870713.164    -6483210.708 6  -4766246.02521
  23048335.523    10176260.940 5   8218188.38321
  20885608.367   -16922612.426 8  -7594845.68623
  21183929.008   -17266888.701 7 -12900126.19122
 91  3 23  1  8 30.0000000  0  5G15G13G19G 2G 6
  23695490.063    -3439837.972 6  -2612165.90021
  22860084.953    -6539057.528 6  -4809762.81421
  23055363.586    10213180.335 5   8246956.66021
  20885497.719   -16923191.748 8  -7595297.08723
  21178993.797   -17292824.394 7 -12920335.77022
 91  3 23  1  8 45.0000000  0  5G15G13G19G 2G 6
  23692657.563    -3454723.337 6  -2623764.79721
  22849471.6334   -6594834.80846  -4853225.41961
  23062399.406    10250163.974 5   8275775.00821
  20885395.984   -16923724.032 8  -7595711.83723
  21174068.063   -17318706.786 7 -12940503.82523
 91  3 23  1  9  0.0000000  0  5G15G13G19G 2G 6
  23689848.086    -3469491.886 6  -2635272.68221
  22838869.5084   -6650543.89546  -4896634.90261
  23069452.414    10287210.133 5   8304642.06521
  20885305.602   -16924210.969 8  -7596091.25523
  21169152.023   -17344537.274 7 -12960631.43523
 91  3 23  1  9 15.0000000  0  5G15G13G19G 2G 6
  23687061.6724   -3484132.55746  -2646680.90861
  22828283.0784   -6706173.75846  -4939982.64661
  23076510.781    10324329.305 5   8333566.01721
  20885222.547   -16924641.950 8  -7596427.07023
  21164250.250   -17370304.848 7 -12980710.01923
 91  3 23  1  9 30.0000000  0  5G15G13G19G 2G 6
  23684295.578    -3498655.063 6  -2657997.07321
  22817710.6254   -6761733.75646  -4983275.95161
  23083588.008    10361511.630 5   8362539.18221
  20885149.484   -16925026.814 8  -7596726.94923
  21159356.773   -17396019.144 7 -13000747.08823
 91  3 23  1  9 45.0000000  0  5G15G13G19G 2G 6
  23681555.289    -3513069.622 6  -2669229.10921
  22807147.7894   -6817233.97846  -5026522.68261
  23090674.352    10398746.701 5   8391553.43921
  20885083.258   -16925375.908 8  -7596998.95323
  21154471.023   -17421690.266 7 -13020750.50923
 91  3 23  1 10  0.0000000  0  5G15G13G19G 2G 6
  23678834.6024   -3527363.02946  -2680366.76461
  22796601.164    -6872661.465 6  -5069712.71921
  23097773.234    10436047.237 5   8420618.71121
  20885024.055   -16925676.629 8  -7597233.26323
  21149597.008   -17447305.209 7 -13040710.15423
 91  3 23  1 10 15.0000000  0  5G15G13G19G 2G 6
  23676138.016    -3541534.627 6  -2691409.48821
  22786068.164    -6928015.263 6  -5112845.37321
  23104883.000    10473413.523 5   8449735.21721
  20884979.914   -16925928.625 8  -7597429.60923
  21144733.500   -17472863.184 7 -13060625.41123
 91  3 23  1 10 30.0000000  0  5G15G13G19G 2G 6
  23673461.516    -3555589.066 6  -2702360.93021
  22775549.273    -6983299.779 6  -5155924.01421
  23112007.813    10510840.729 5   8478899.19921
  20884939.813   -16926136.863 8  -7597591.85823
  21139879.359   -17498368.828 7 -13080499.88823
 91  3 23  1 10 45.0000000  0  5G15G13G19G 2G 6
  23670809.703    -3569527.425 6  -2713221.90721
  22765040.4694   -7038515.90246  -5198949.35361
  23119138.9304   10548327.54145   8508109.61961
  20884907.5164  -16926302.50748
  21135035.477   -17523823.027 7 -13100334.28523
 91  3 23  1 11  0.0000000  0  5G15G13G19G 2G 6
  23668182.0234   -3583342.62946  -2723986.93661
  22754546.508    -7093656.771 6  -5241916.06921
  23126286.227    10585880.510 5   8537371.59521
  20884882.375   -16926418.889 8
  21130203.813   -17549218.936 7 -13120123.26023
 91  3 23  1 11 15.0000000  0  5G15G13G19G 2G 6
  23665575.5704   -3597034.50846  -2734655.85461
  22744067.883    -7148722.099 6  -5284823.92321
  23133442.703    10623499.563 5   8566685.07221
  20884871.117   -16926486.184 8
  21125381.758   -17574556.361 7 -13139866.65423
 91  3 23  1 11 30.0000000  0  5G15G13G19G 2G 6
  23662994.508    -3610602.658 6  -2745228.35921
  22733604.8674   -7203710.86946  -5327672.12761
  23140617.703    10661184.795 5   8596050.10221
  20884867.336   -16926503.999 8
  21120570.984   -17599834.580 7 -13159563.91823
 91  3 23  1 11 45.0000000  0  5G15G13G19G 2G 6
  23660434.445    -3624049.554 6  -2755706.37321
  22723151.820    -7258625.639 6  -5370462.65321
  23147797.125    10698933.540 5   8625464.63221
  20884872.945   -16926475.242 8
  21115771.867   -17625056.240 7 -13179217.11123
 91  3 23  1 12  0.0000000  0  5G15G13G19G 2G 6
  23657899.313    -3637372.745 6  -2766088.00621
  22712717.484    -7313463.869 6  -5413193.54221
  23154992.938    10736747.724 5   8654930.15021
  20884889.828   -16926397.672 7
  21110983.117   -17650218.641 7 -13198824.12823
 91  3 23  1 12 15.0000000  0  5G15G13G19G 2G 6
  23655386.766    -3650572.045 6  -2776373.09121
  22702296.6414   -7368225.05846  -5455864.40861
  23162202.508    10774627.298 5   8684446.62721
  20884911.227   -16926271.308 8
  21106206.727   -17675321.535 7 -13218384.77823
 91  3 23  1 12 30.0000000  0  5G15G13G19G 2G 6
  23652898.188    -3663649.225 6  -2786563.01621
  22691890.414    -7422910.874 6  -5498476.54921
  23169423.609    10812570.330 5   8714012.53321
  20884944.680   -16926098.236 8
  21101440.227   -17700366.700 7 -13237900.44323
 91  3 23  1 12 45.0000000  0  5G15G13G19G 2G 6
  23650433.914    -3676604.504 6  -2796657.97621
  22681498.3984   -7477521.45846  -5541030.04861
  23176654.609    10850576.359 5   8743627.54221
  20884984.8364  -16925879.05248
  21096685.570   -17725354.312 7 -13257371.26722
 91  3 23  1 13  0.0000000  0  5G15G13G19G 2G 6
  23647990.922    -3689439.507 6  -2806659.19121
  22671120.305    -7532058.714 6  -5583526.42521
  23183900.117    10888643.074 5   8773289.83521
  20885036.625   -16925615.724 8  -7597185.64823
  21091940.305   -17750286.340 7 -13276798.77323
 91  3 23  1 13 15.0000000  0  5G15G13G19G 2G 6
  23645573.805    -3702151.751 6  -2816564.76621
  22660757.500    -7586519.671 6  -5625963.36021
  23191155.289    10926773.014 5   8803001.39721
  20885094.820   -16925305.803 8  -7596944.14023
  21087208.148   -17775159.883 7 -13296180.70023
 91  3 23  1 13 30.0000000  0  5G15G13G19G 2G 6
  23643176.195    -3714739.988 6  -2826373.70321
  22650409.250    -7640902.968 6  -5668339.75221
  23198424.0634   10964966.95545   8832762.81861
  20885164.469   -16924948.428 8  -7596665.65323
  21082484.789   -17799973.784 7 -13315516.16223
 91  3 23  1 13 45.0000000  0  5G15G13G19G 2G 6
  23640803.609    -3727205.248 6  -2836086.81821
  22640073.891    -7695209.419 6  -5710656.29621
  23205701.9304   11003223.77445   8862573.24461
  20885240.234   -16924544.749 8  -7596351.08824
  21077775.000   -17824728.910 7 -13334805.83123
 91  3 23  1 14  0.0000000  0  5G15G13G19G 2G 6
  23638456.1334   -3739545.46846  -2845702.48161
  22629755.703    -7749437.172 6  -5752911.50821
  23212996.781    11041544.788 5   8892433.69121
  20885326.1724  -16924093.32648  -7595999.32163
  21073075.688   -17849423.425 7 -13354048.26822
 91  3 23  1 14 15.0000000  0  5G15G13G19G 2G 6
  23636132.055    -3751759.249 6  -2855219.64621
  22619450.9694   -7803584.23646  -5795103.83261
  23220299.727    11079931.366 5   8922345.22421
  20885422.078   -16923592.745 8  -7595609.24723
  21068387.875   -17874055.555 7 -13373242.08723
 91  3 23  1 14 30.0000000  0  5G15G13G19G 2G 6
  23633831.961    -3763848.121 6  -2864639.46321
  22609161.6884   -7857652.17146  -5837234.49861
  23227616.945    11118381.629 5   8952306.38621
  20885527.0554  -16923044.81748  -7595182.28563
  21063712.406   -17898626.835 7 -13392388.49623
 91  3 23  1 14 45.0000000  0  5G15G13G19G 2G 6
  23631554.1954   -3775811.22046  -2873961.27361
  22598887.7814   -7911640.03546  -5879302.79061
  23234944.9224   11156896.18545   8982317.64161
  20885639.9694  -16922448.73348  -7594717.79763
  21059048.445   -17923136.234 7 -13411486.68723
 91  3 23  1 15  0.0000000  0  5G15G13G19G 2G 6
  23629300.984    -3787646.666 6  -2883183.61521
  22588630.3284   -7965545.72546  -5921307.03461
  23242288.164    11195476.598 5   9012380.22021
  20885761.5634  -16921802.79248  -7594214.45863
  21054395.891   -17947581.879 7 -13430535.19223
 91  3 23  1 15 15.0000000  0  5G15G13G19G 2G 6
  23627074.773    -3799356.271 6  -2892307.90921
  22578386.4774   -8019370.83846  -5963248.49961
  23249639.898    11234120.890 5   9042492.57221
  20885894.8444  -16921109.22348  -7593674.00863
  21049756.406   -17971965.481 7 -13449535.35823
 91  3 23  1 15 30.0000000  0  5G15G13G19G 2G 6
  23624869.211    -3810942.369 6  -2901335.95221
  22568159.367    -8073117.691 6  -6005128.99221
  23257009.867    11272826.343 5   9072652.57921
  20886036.1094  -16920370.70048  -7593098.52763
  21045126.7194  -17996289.47047 -13468489.07263
 91  3 23  1 15 45.0000000  0  5G15G13G19G 2G 6
  23622689.242    -3822398.899 6  -2910263.04521
  22557948.7664   -8126779.90946  -6046943.51261
  23264383.9064   11311598.65745   9102864.68461
  20886185.930   -16919581.348 8  -7592483.43923
  21040511.570   -18020547.422 7 -13487391.33623
 91  3 23  1 16  0.0000000  0  5G15G13G19G 2G 6
  23620530.563    -3833731.596 6  -2919093.64421
  22547750.875    -8180363.257 6  -6088696.60321
  23271776.500    11350431.669 5   9133124.09621
  20886342.906   -16918747.208 8  -7591833.44523
  21035907.320   -18044745.243 7 -13506246.73523
 91  3 23  1 16 15.0000000  0  5G15G13G19G 2G 6
  23618398.484    -3844941.096 6  -2927828.24121
  22537570.0234   -8233868.39346  -6130388.73761
  23279177.453    11389324.370 5   9163430.01521
  20886511.984   -16917869.277 8  -7591149.33623
  21031313.742   -18068883.713 7 -13525055.88923
 91  3 23  1 16 30.0000000  0  5G15G13G19G 2G 6
  23616289.6414   -3856028.97146  -2936468.07161
  22527401.5784   -8287296.36246  -6172020.75261
  23286589.547    11428275.144 5   9193781.18921
  20886686.664   -16916949.089 8  -7590432.28923
  21026731.141   -18092964.078 7 -13543819.76523
 91  3 23  1 16 45.0000000  0  5G15G13G19G 2G 6
  23614202.992    -3866990.120 6  -2945009.15021
  22517249.1644   -8340641.60546  -6213588.29061
  23294012.086    11467289.125 5   9224181.61121
  20886870.984   -16915981.629 8  -7589678.41423
  21022160.500   -18116980.810 7 -13562534.05623
 91  3 23  1 17  0.0000000  0  5G15G13G19G 2G 6
  23612141.703    -3877823.005 6  -2953450.27921
  22507115.398    -8393902.697 6  -6255090.27221
  23301449.6954   11506367.28445   9254632.03861
  20887063.969   -16914965.775 8  -7588886.82823
  21017602.3364  -18140932.59247 -13581197.74363
 91  3 23  1 17 15.0000000  0  5G15G13G19G 2G 6
  23610104.1024   -3888528.62746  -2961792.24661
  22496994.9384   -8447080.95746  -6296527.69161
  23308896.3204   11545507.96245   9285131.18861
  20887264.195   -16913903.053 8  -7588058.71823
  21013056.3594  -18164820.62047 -13599811.75063
 91  3 23  1 17 30.0000000  0  5G15G13G19G 2G 6
  23608092.469    -3899106.863 6  -2970034.95721
  22486891.1884   -8500175.98846  -6337900.28061
  23316357.188    11584711.174 5   9315679.06521
  20887476.047   -16912793.421 8  -7587194.05623
  21008523.9614  -18188644.50647 -13618375.77763
 91  3 23  1 17 45.0000000  0  5G15G13G19G 2G 6
  23606103.461    -3909558.404 6  -2978178.94521
  22476803.484    -8553188.548 6  -6379208.59221
  23323829.7274   11623975.90545   9346274.87461
  20887696.047   -16911638.074 8  -7586293.77323
  21004001.8364  -18212404.99647 -13636890.40363
 91  3 23  1 18  0.0000000  0  5G15G13G19G 2G 6
  23604138.5554   -3919877.96846  -2986220.07161
  22466732.8054   -8606112.90646  -6420448.17661
  23331316.578    11663307.112 5   9376922.48021
  20887925.750   -16910431.767 8  -7585353.78123
  20999492.9454  -18236096.78447 -13655351.50163
 91  3 23  1 18 15.0000000  0  5G15G13G19G 2G 6
  23602200.984    -3930071.970 6  -2994163.39521
  22456676.625    -8658955.456 6  -6461624.01421
  23338809.7424   11702698.09645   9407616.67061
  20888164.883   -16909181.025 8  -7584379.16323
  20994997.1484  -18259726.07647 -13673763.90063
 91  3 23  1 18 30.0000000  0  5G15G13G19G 2G 6
  23600283.9694   -3940134.21146  -3002004.03561
  22446638.648    -8711709.566 6  -6502730.95021
  23346320.5704   11742155.20045   9438362.38261
  20888412.281   -16907879.713 8  -7583365.14224
  20990513.6884  -18283286.33347 -13692122.50563
 91  3 23  1 18 45.0000000  0  5G15G13G19G 2G 6
  23598393.766    -3950064.713 6  -3009742.00121
  22436616.672    -8764375.272 6  -6543768.99421
  23353838.273    11781677.932 5   9469159.23321
  20888668.938   -16906528.257 8  -7582312.04524
  20986042.7974  -18306777.58347 -13710427.33563
 91  3 23  1 19  0.0000000  0  5G15G13G19G 2G 6
  23596528.547    -3959870.716 6  -3017382.97321
  22426608.3364   -8816959.50946  -6584743.55761
  23361373.023    11821258.709 5   9500001.31021
  20888934.836   -16905134.088 8  -7581225.66524
  20981584.6724  -18330207.05047 -13728684.02363
 91  3 23  1 19 15.0000000  0  5G15G13G19G 2G 6
  23594687.977    -3969548.925 6  -3024924.36421
  22416618.5634   -8869458.87046  -6625651.98561
  23368915.102    11860900.365 5   9530890.83921
  20889208.219   -16903694.274 8  -7580103.72124
  20977139.4924  -18353571.40747 -13746889.97363
 91  3 23  1 19 30.0000000  0  5G15G13G19G 2G 6
  23592869.5864   -3979094.55646  -3032362.45061
  22406645.4304   -8921868.47846  -6666490.47361
  23376468.922    11900607.543 5   9561831.41721
  20889491.719   -16902204.116 8  -7578942.54424
  20972705.711   -18376865.771 7 -13765041.38423
 91  3 23  1 19 45.0000000  0  5G15G13G19G 2G 6
  23591077.563    -3988509.184 6  -3039698.44221
  22396687.703    -8974189.548 6  -6707259.98021
  23384038.117    11940378.429 5   9592821.63621
  20889784.242   -16900665.252 8  -7577743.41424
  20968285.945   -18400091.458 7 -13783139.27923
 91  3 23  1 20  0.0000000  0  5G15G13G19G 2G 6
  23589310.070    -3997793.480 6  -3046932.89721
  22386748.9844   -9026422.64446  -6747960.92661
  23391621.328    11980212.144 5   9623860.81821
  20890086.594   -16899078.569 8  -7576507.01924
  20963879.953   -18423249.047 7 -13801184.11023
 91  3 23  1 20 15.0000000  0  5G15G13G19G 2G 6
  23587569.289    -4006947.788 6  -3054066.04321
  22376825.867    -9078568.129 6  -6788593.61921
  23399210.375    12020107.884 5   9654948.32721
  20890397.945   -16897444.810 8  -7575233.94024
  20959485.031   -18446338.833 7 -13819176.10923
 91  3 23  1 20 30.0000000  0  5G15G13G19G 2G 6
  23585850.3984   -4015976.67746  -3061101.48261
  22366918.750    -9130630.568 6  -6829161.59221
  23406814.0944   12060060.98345   9686080.52661
  20890716.516   -16895768.693 8  -7573927.85724
  20955103.172   -18469365.331 7 -13837118.78723
 91  3 23  1 20 45.0000000  0  5G15G13G19G 2G 6
  23584156.633    -4024874.219 6  -3068034.55221
  22357028.305    -9182604.066 6  -6869660.26021
  23414429.789    12100076.630 5   9717261.47221
  20891045.578   -16894044.786 8  -7572584.54124
  20950735.016   -18492322.813 7 -13855007.69423
 91  3 23  1 21  0.0000000  0  5G15G13G19G 2G 6
  23582488.727    -4033642.327 6  -3074866.77121
  22347155.0084   -9234490.06046  -6910090.75061
  23422056.7274   12140152.72145   9748489.52061
  20891380.672   -16892275.179 8  -7571205.61524
  20946378.750   -18515212.984 7 -13872844.14523
 91  3 23  1 21 15.0000000  0  5G15G13G19G 2G 6
  23580845.719    -4042279.725 6  -3081597.12921
  22337297.6954   -9286286.99846  -6950451.85661
  23429691.602    12180290.362 5   9779765.52321
  20891726.453   -16890458.747 8  -7569790.19724
  20942036.1484  -18538034.41947 -13890627.04363
 91  3 23  1 21 30.0000000  0  5G15G13G19G 2G 6
  23579225.8444   -4050787.32246  -3088226.35861
  22327457.766    -9337995.351 6  -6990743.91321
  23437345.367    12220488.582 5   9811088.73221
  20892081.250   -16888596.304 8  -7568338.92424
  20937707.000   -18560787.578 7 -13908356.73223
 91  3 23  1 21 45.0000000  0  5G15G13G19G 2G 6
  23577631.273    -4059167.494 6  -3094756.28221
  22317634.6954   -9389617.54846  -7030968.84461
  23445004.8284   12260744.63745   9842456.99661
  20892443.391   -16886690.457 8  -7566853.83324
  20933388.539   -18583474.845 7 -13926035.08023
 91  3 23  1 22  0.0000000  0  5G15G13G19G 2G 6
  23576062.016    -4067418.858 6  -3101185.84221
  22307827.2114   -9441152.20446  -7071125.56361
  23452676.469    12301059.768 5   9873871.31021
  20892813.930   -16884740.247 8  -7565334.17324
  20929085.0944  -18606094.86047 -13943661.02163
 91  3 23  1 22 15.0000000  0  5G15G13G19G 2G 6
  23574516.172    -4075538.751 6  -3107512.95921
  22298037.805    -9492596.664 6  -7111212.00021
  23460358.781    12341436.174 5   9905333.37021
  20893195.992   -16882743.256 8  -7563778.06224
  20924792.844   -18628644.975 7 -13961232.49723
 91  3 23  1 22 30.0000000  0  5G15G13G19G 2G 6
  23572996.359    -4083527.372 6  -3113737.78121
  22288265.133    -9543950.768 6  -7151228.02821
  23468054.273    12381873.384 5   9936842.80421
  20893583.813   -16880699.673 8  -7562185.64124
  20920514.6484  -18651125.04647 -13978749.39463
 91  3 23  1 22 45.0000000  0  5G15G13G19G 2G 6
  23571502.0784   -4091383.10646  -3119859.06061
  22278510.2114   -9595212.76146  -7191172.29061
  23475759.5314   12422372.77545   9968400.69361
  20893981.703   -16878608.173 8  -7560555.87924
  20916252.078   -18673533.532 7 -13996210.50623
 91  3 23  1 23  0.0000000  0  5G15G13G19G 2G 6
  23570033.0474   -4099110.23546  -3125880.12861
  22268772.7424   -9646386.73746  -7231047.95861
  23483478.2034   12462929.82545  10000003.50861
  20894387.953   -16876473.104 8  -7558892.16724
  20911999.5554  -18695874.43947 -14013618.96563
 91  3 23  1 23 15.0000000  0  5G15G13G19G 2G 6
  23568585.617    -4106708.842 6  -3131801.03621
  22259051.4614   -9697472.58646  -7270854.96361
  23491206.984    12503543.985 5  10031650.82721
  20894802.938   -16874294.850 8  -7557194.80724
  20907760.891   -18718147.876 7 -14030974.84623
 91  3 23  1 23 30.0000000  0  5G15G13G19G 2G 6
  23567163.539    -4114174.992 6  -3137618.75421
  22249346.602    -9748466.238 6  -7310590.11021
  23498945.609    12544218.965 5  10063345.53421
  20895225.680   -16872069.804 8  -7555460.99224
  20903537.055   -18740349.796 7 -14048274.99323
 91  3 23  1 23 45.0000000  0  5G15G13G19G 2G 6
  23565767.688    -4121514.102 6  -3143337.46021
  22239659.6334   -9799372.77146  -7350257.38861
  23506697.070    12584949.185 5  10095083.28221
  20895657.828   -16869803.390 8  -7553694.93624
  20899324.406   -18762485.345 7 -14065523.42623
 91  3 23  1 24  0.0000000  0  5G15G13G19G 2G 6
  23564395.9304   -4128720.39046  -3148952.68561
  22229990.4614   -9850186.18446  -7389852.11061
  23514463.055    12625740.389 5  10126868.55321
  20896097.977   -16867490.023 8  -7551892.30124
  20895126.336   -18784548.541 7 -14082715.48023
 91  3 23  1 24 15.0000000  0  5G15G13G19G 2G 6
  23563049.109    -4135794.572 6  -3154464.96421
  22220338.6884   -9900907.42046  -7429374.99661
  23522232.6024   12666591.28445  10158700.33761
  20896545.492   -16865130.772 8  -7550053.91124
  20890941.000   -18806540.309 7 -14099851.88023
 91  3 23  1 24 30.0000000  0  5G15G13G19G 2G 6
  23561728.758    -4142731.032 6  -3159869.92221
  22210703.469    -9951530.679 6  -7468821.53921
  23530018.2194   12707507.23744  10190582.80361
  20897005.891   -16862720.150 8  -7548175.48724
  20886770.461   -18828454.767 7 -14116928.03823
 91  3 23  1 24 45.0000000  0  5G15G13G19G 2G 6
  23560435.367    -4149537.642 6  -3165173.70421
  22201088.6334  -10002063.26246  -7508197.42861
  23537817.6724   12748480.12445  10222509.63861
  20897472.734   -16860266.116 8  -7546263.24124
  20882613.469   -18850299.700 7 -14133950.01823
 91  3 23  1 25  0.0000000  0  5G15G13G19G 2G 6
  23559167.273    -4156209.660 6  -3170372.60321
  22191489.6564  -10052500.37846  -7547498.93261
  23545627.7114   12789514.46244  10254484.36461
  20897947.930   -16857764.175 8  -7544313.66424
  20878470.7034  -18872070.14347 -14150913.95863
 91  3 23  1 25 15.0000000  0  5G15G13G19G 2G 6
  23557922.594    -4162746.333 6  -3175466.04821
  22181909.914   -10102841.151 6  -7586725.36721
  23553445.8134   12830610.62545  10286507.25561
  20898433.609   -16855213.685 8  -7542326.25724
  20874342.2344  -18893765.22647 -14167819.17863
 91  3 23  1 25 30.0000000  0  5G15G13G19G 2G 6
  23556701.172    -4169150.988 6  -3180456.61221
  22172350.0474  -10153089.03346  -7625879.41061
  23561276.8204   12871764.98544  10318575.49261
  20898927.094   -16852618.143 8  -7540303.74524
  20870228.250   -18915388.239 7 -14184668.23523
 91  3 23  1 25 45.0000000  0  5G15G13G19G 2G 6
  23555508.4774   -4175424.25746  -3185344.80461
  22162805.250   -10203244.232 6  -7664961.24121
  23569119.906    12912976.654 5  10350688.38421
  20899429.6414  -16849978.59147  -7538246.94264
  20866126.4384  -18936939.69647 -14201461.53863
 91  3 23  1 26  0.0000000  0  5G15G13G19G 2G 6
  23554339.063    -4181565.081 6  -3190129.78621
  22153278.3444  -10253305.59346  -7703969.93761
  23576974.4224   12954246.48844  10382846.60561
  20899941.203   -16847294.036 8  -7536155.06924
  20862039.594   -18958418.368 7 -14218198.12223
 91  3 23  1 26 15.0000000  0  5G15G13G19G 2G 6
  23553197.2194   -4187571.19146  -3194809.80161
  22143768.8204  -10303270.45246  -7742903.44961
  23584838.0634   12995576.73745  10415051.89861
  20900459.8834  -16844562.08448  -7534026.26464
  20857966.438   -18979821.630 7 -14234875.94323
 91  3 23  1 26 30.0000000  0  5G15G13G19G 2G 6
  23552080.3364   -4193443.19046  -3199385.31061
  22134279.3674  -10353139.23146  -7781762.09061
  23592716.5864   13036966.31144  10447303.42061
  20900989.055   -16841783.726 7  -7531861.29924
  20853908.078   -19001150.091 7 -14251495.47923
 91  3 23  1 26 45.0000000  0  5G15G13G19G 2G 6
  23550986.781    -4199184.921 6  -3203859.32021
  22124808.070   -10402915.603 6  -7820548.73121
  23600601.461    13078410.980 4  10479597.86521
  20901526.2504  -16838963.05048  -7529663.35764
  20849862.6644  -19022407.56947 -14268059.70863
 91  3 23  1 27  0.0000000  0  5G15G13G19G 2G 6
  23549918.8984   -4204794.86046  -3208230.64161
  22115353.422   -10452598.007 6  -7859262.14821
  23608497.2584   13119912.24344  10511936.42161
  20902070.945   -16836098.784 8  -7527431.45124
  20845831.0234  -19043592.32747 -14284567.27563
 91  3 23  1 27 15.0000000  0  5G15G13G19G 2G 6
  23548876.672    -4210268.931 6  -3212496.08021
  22105918.1804  -10502182.32746  -7897899.12761
  23616407.023    13161473.776 4  10544321.92921
  20902624.4534  -16833186.96648  -7525162.49864
  20841814.7504  -19064700.17847 -14301014.91163
 91  3 23  1 27 30.0000000  0  5G15G13G19G 2G 6
  23547861.2274   -4215605.05246  -3216654.03561
  22096501.109   -10551666.149 6  -7936457.80621
  23624327.5784   13203097.38444  10576755.81161
  20903188.4224  -16830225.70248  -7522855.01264
  20837812.5394  -19085728.97547 -14317400.94763
 91  3 23  1 27 45.0000000  0  5G15G13G19G 2G 6
  23546872.9064   -4220806.33346  -3220706.91261
  22087103.3204  -10601052.63046  -7974940.62961
  23632260.750    13244779.808 4  10609235.51821
  20903761.344   -16827218.193 8  -7520511.48824
  20833825.1334  -19106681.57147 -14333727.61663
 91  3 23  1 28  0.0000000  0  5G15G13G19G 2G 6
  23545908.2274   -4225871.89246  -3224654.04961
  22077724.7894  -10650340.77646  -8013346.83061
  23640205.9304   13286521.49444  10641761.40861
  20904341.8674  -16824163.66348  -7518131.32764
  20829853.7194  -19127557.09447 -14349994.21863
 91  3 23  1 28 15.0000000  0  5G15G13G19G 2G 6
  23544966.7894   -4230804.08446  -3228497.24261
  22068363.711   -10699532.109 6  -8051677.58621
  23648154.8524   13328320.10745  10674331.65561
  20904931.9144  -16821064.67948  -7515716.52864
  20825895.0164  -19148357.52147 -14366202.31163
 91  3 23  1 28 30.0000000  0  5G15G13G19G 2G 6
  23544056.523    -4235601.178 6  -3232235.17421
  22059021.8674  -10748624.93546  -8089931.59461
  23656122.7424   13370177.13045  10706947.42461
  20905529.7894  -16817919.57147  -7513265.78864
  20821950.6254  -19169081.03147 -14382350.46263
 91  3 23  1 28 45.0000000  0  5G15G13G19G 2G 6
  23543167.898    -4240260.571 6  -3235865.81221
  22049697.7584  -10797616.61446  -8128106.78661
  23664098.9144   13412094.79745  10739610.45661
  20906137.8754  -16814725.95947  -7510777.25264
  20818022.7424  -19189724.88547 -14398436.54463
 91  3 23  1 29  0.0000000  0  5G15G13G19G 2G 6
  23542308.7664   -4244787.03146  -3239392.85961
  22040393.7274  -10846511.63346  -8166206.65361
  23672087.172    13454068.135 5  10772316.83121
  20906754.0554  -16811488.74447  -7508254.73764
  20814108.8594  -19210293.65047 -14414464.12163
 91  3 23  1 29 15.0000000  0  5G15G13G19G 2G 6
  23541473.773    -4249177.484 6  -3242813.93621
  22031107.930   -10895306.747 6  -8204228.67121
  23680085.313    13496099.922 5  10805068.79021
  20907378.7344  -16808205.08347  -7505696.02964
  20810208.6414  -19230784.10347 -14430430.66763
 91  3 23  1 29 30.0000000  0  5G15G13G19G 2G 6
  23540662.1024   -4253434.85246  -3246131.29961
  22021839.3364  -10944004.90046  -8242175.13861
  23688095.547    13538187.012 5  10837863.82921
  20908011.3984  -16804877.98447  -7503103.47764
  20806324.8134  -19251199.13747 -14446338.44863
 91  3 23  1 29 45.0000000  0  5G15G13G19G 2G 6
  23539875.8284   -4257558.07646  -3249344.13261
  22012592.6564  -10992604.56046  -8280044.85761
  23696113.820    13580330.326 5  10870702.67521
  20908654.1804  -16801506.49747  -7500476.33664
  20802454.1414  -19271537.43147 -14462186.43263
 91  3 23  1 30  0.0000000  0  5G15G13G19G 2G 6
  23539119.6724   -4261544.35146  -3252450.26161
  22003363.969   -11041102.678 6  -8317835.45421
  23704144.8284   13622532.39945  10903587.31161
  20909305.5474  -16798087.90247  -7497812.48964
  20798599.5554  -19291795.96947 -14477972.27063
 91  3 23  1 30 15.0000000  0  5G15G13G19G 2G 6
  23538386.2664   -4265399.45046  -3255454.16061
  21994153.094   -11089505.179 6  -8355551.54121
  23712184.688    13664787.158 5  10936513.00621
  20909961.7424  -16794628.18347  -7495116.59964
  20794758.0004  -19311980.33747 -14493700.31363
 91  3 23  1 30 30.0000000  0  5G15G13G19G 2G 6
  23537679.078    -4269116.515 6  -3258350.51321
  21984961.648   -11137805.176 6  -8393187.75921
  23720241.0554   13707100.63145  10969484.44061
  20910628.773   -16791120.958 7  -7492383.68624
  20790932.3134  -19332083.95447 -14509365.43363
 91  3 23  1 30 45.0000000  0  5G15G13G19G 2G 6
  23536993.6644   -4272697.01346  -3261140.44861
  21975791.4774  -11186003.73046  -8430744.91961
  23728299.4144   13749471.47345  11002500.58161
  20911306.703   -16787567.640 7  -7489614.85324
  20787121.4694  -19352107.91347 -14524968.48763
 91  3 23  1 31  0.0000000  0  5G15G13G19G 2G 6
  23536342.4384   -4276141.98646  -3263824.78461
  21966637.000   -11234101.711 6  -8468223.72821
  23736374.922    13791898.664 5  11035560.62621
  20911990.4224  -16783969.22647  -7486810.89064
  20783327.0634  -19372052.96847 -14540510.06163
 91  3 23  1 31 15.0000000  0  5G15G13G19G 2G 6
  23535712.609    -4279446.608 6  -3266399.76421
  21957504.156   -11282093.874 6  -8505620.07921
  23744460.4694   13834386.65145  11068668.06361
  20912684.1884  -16780321.05147  -7483968.14564
  20779547.2664  -19391914.06947 -14555986.20863
 91  3 23  1 31 30.0000000  0  5G15G13G19G 2G 6
  23535109.9384   -4282618.22246  -3268871.08961
  21948390.492   -11329987.496 6  -8542939.63421
  23752558.2584   13876927.77045  11101816.90961
  20913386.2974  -16776630.77047  -7481092.59864
  20775782.1724  -19411698.65147 -14571402.73363
 91  3 23  1 31 45.0000000  0  5G15G13G19G 2G 6
  23534529.8754   -4285653.90846  -3271236.49161
  21939296.2344  -11377779.66846  -8580180.14261
  23760659.344    13919524.837 5  11135009.31621
  20914099.2664  -16772895.47548  -7478181.97064
  20772031.8594  -19431403.46547 -14586757.09763
 91  3 23  1 32  0.0000000  0  5G15G13G19G 2G 6
  23533978.4384   -4288554.42946  -3273496.57461
  21930220.016   -11425470.805 6  -8617341.92521
  23768778.844    13962176.816 5  11168244.53721
  20914817.680   -16769116.031 7  -7475236.93924
  20768297.5944  -19451028.98447 -14602049.67763
 91  3 23  1 32 15.0000000  0  5G15G13G19G 2G 6
  23533455.047    -4291315.822 6  -3275648.25121
  21921164.1484  -11473056.74746  -8654421.73661
  23776906.6564   14004887.30645  11201525.34361
  20915544.7274  -16765288.67448  -7472254.57564
  20764578.9224  -19470571.32747 -14617277.43763
 91  3 23  1 32 30.0000000  0  5G15G13G19G 2G 6
  23532954.789    -4293940.173 6  -3277693.13521
  21912128.945   -11520539.499 6  -8691421.14121
  23785046.2034   14047653.99544  11234849.95561
  20916282.844   -16761415.663 8  -7469236.63424
  20760875.9224  -19490032.25047 -14632441.76263
 91  3 23  1 32 45.0000000  0  5G15G13G19G 2G 6
  23532480.3054   -4296424.05046  -3279628.56861
  21903113.438   -11567915.544 6  -8728337.39721
  23793192.953    14090479.981 5  11268220.74121
  20917029.781   -16757493.934 7  -7466180.72924
  20757189.0234  -19509408.26147 -14647539.91663
 91  3 23  1 33  0.0000000  0  5G15G13G19G 2G 6
  23532033.695    -4298767.754 6  -3281454.77221
  21894118.031   -11615184.405 6  -8765170.13721
  23801355.3914   14133365.07744  11301637.60061
  20917784.8834  -16753523.45448  -7463086.84064
  20753517.8834  -19528699.29647 -14662571.85163
 91  3 23  1 33 15.0000000  0  5G15G13G19G 2G 6
  23531614.1334   -4300972.31146  -3283172.54961
  21885143.656   -11662347.207 6  -8801920.23421
  23809526.5864   14176307.83944  11335099.40361
  20918549.469   -16749505.573 7  -7459956.01624
  20749862.3054  -19547906.28147 -14677538.30163
 91  3 23  1 33 30.0000000  0  5G15G13G19G 2G 6
  23531220.6644   -4303040.62946  -3284784.15561
  21876188.8524  -11709406.76446  -8838589.87261
  23817709.1254   14219305.03944  11368603.62361
  20919322.992   -16745443.208 7  -7456790.52224
  20746223.2664  -19567032.00047 -14692441.42263
 91  3 23  1 33 45.0000000  0  5G15G13G19G 2G 6
  23530853.6884   -4304975.16346  -3286291.52261
  21867251.695   -11756365.129 6  -8875180.66821
  23825899.711    14262354.095 4  11402148.24921
  20920104.2974  -16741338.72847  -7453592.21764
  20742598.5164  -19586078.58647 -14707282.88463
 91  3 23  1 34  0.0000000  0  5G15G13G19G 2G 6
  23530511.7584   -4306768.88146  -3287689.15861
  21858335.6024  -11803215.27546  -8911687.14561
  23834103.961    14305461.734 3  11435738.53021
  20920893.8754  -16737185.46748  -7450355.90164
  20738990.0004  -19605038.88247 -14722057.10763
 91  3 23  1 34 15.0000000  0  5G15G13G19G 2G 6
  23530199.8364   -4308422.92646  -3288977.96261
  21849441.758   -11849958.180 6  -8948110.04921
  23842317.234    14348626.489 3  11469373.29521
  20921692.6484  -16732984.72147  -7447082.58264
  20735398.0864  -19623913.95247 -14736764.91963
 91  3 23  1 34 30.0000000  0  5G15G13G19G 2G 6
  23529910.086    -4309935.300 6  -3290156.37621
  21840567.1954  -11896591.40246  -8984447.48861
  23850541.7274   14391850.37443  11503054.14761
  20922501.266   -16728734.461 7  -7443770.67524
  20731823.0234  -19642701.47247 -14751404.51163
 91  3 23  1 34 45.0000000  0  5G15G13G19G 2G 6
  23529647.2814   -4311308.02946  -3291225.97661
  21831713.961   -11943116.850 6  -9020700.95521
  23858775.1094   14435131.19943  11536779.37961
  20923319.617   -16724437.046 8  -7440422.02824
  20728264.6564  -19661403.31147 -14765977.33763
 91  3 23  1 35  0.0000000  0  5G15G13G19G 2G 6
  23529415.6414   -4312543.69646  -3292188.77061
  21822880.6564  -11989537.11446  -9056872.46361
  23867025.8204   14478465.85043  11570546.54661
  20924144.5474  -16720095.24147  -7437038.79564
  20724721.1724  -19680022.00847 -14780485.37463
 91  3 23  1 35 15.0000000  0  5G15G13G19G 2G 6
  23529204.1334   -4313640.96746  -3293043.72961
  21814067.2424  -12035850.63446  -9092960.77961
  23875283.641    14521855.416 3  11604356.48121
  20924980.1254  -16715707.83447  -7433620.02764
  20721195.6644  -19698556.03647 -14794927.44063
 91  3 23  1 35 30.0000000  0  5G15G13G19G 2G 6
  23529020.1564   -4314600.28746  -3293791.18861
  21805274.5944  -12082057.37146  -9128965.89961
  23883550.641    14565299.422 3  11638208.85121
  20925822.6804  -16711275.22647  -7430166.03464
  20717685.0004  -19717005.60847 -14809303.69763
 91  3 23  1 35 45.0000000  0  5G15G13G19G 2G 6
  23528864.6724   -4315417.73146  -3294428.09461
  21796502.0554  -12128153.39346  -9164884.75461
  23891826.0314   14608801.42243  11672106.40761
  20926676.438   -16706793.504 7  -7426673.76923
  20714189.0394  -19735366.58247 -14823610.91863
 91  3 23  1 36  0.0000000  0  5G15G13G19G 2G 6
  23528739.0864   -4316095.99346  -3294956.55361
  21787750.891   -12174141.254 6  -9200719.31521
  23900115.930    14652358.538 3  11706046.91921
  20927538.3754  -16702265.36447  -7423145.34664
  20710712.3524  -19753641.45347 -14837851.04663
 91  3 23  1 36 15.0000000  0  5G15G13G19G 2G 6
  23528633.2664   -4316636.29946  -3295377.51161
  21779020.0394  -12220021.87146  -9236470.32161
  23908415.047    14695969.467 3  11740029.34921
  20928409.4384  -16697692.34348  -7419581.94264
  20707250.1954  -19771831.23047 -14852024.86163
 91  3 23  1 36 30.0000000  0  5G15G13G19G 2G 6
  23528557.461    -4317035.775 6  -3295688.73221
  21770309.680   -12265792.367 6  -9272135.51721
  23916726.617    14739636.836 3  11774055.76421
  20929288.2584  -16693071.48848  -7415981.27364
  20703806.0704  -19789932.73647 -14866129.89563
 91  3 23  1 36 45.0000000  0  5G15G13G19G 2G 6
  23528507.648    -4317295.104 6  -3295890.75321
  21761621.3984  -12311452.98246  -9307715.10061
  23925043.586    14783359.929 3  11808125.61021
  20930175.7734  -16688403.47948  -7412343.85363
  20700378.8444  -19807946.44247 -14880166.51863
 91  3 23  1 37  0.0000000  0  5G15G13G19G 2G 6
  23528490.7034   -4317411.02246
  21752953.6094  -12357000.37546  -9343206.44761
  23933374.1564   14827141.41343  11842240.94961
  20931073.6414  -16683685.63848  -7408667.60564
  20696967.1254  -19825869.13347 -14894132.21463
 91  3 23  1 37 15.0000000  0  5G15G13G19G 2G 6
  23528494.3834   -4317386.73046
  21744306.7424  -12402437.45346  -9378611.84561
  23941717.5314   14870977.91843  11876399.16561
  20931981.5084  -16678920.87948  -7404954.79864
  20693574.0164  -19843703.55747 -14908029.13263
 91  3 23  1 37 30.0000000  0  5G15G13G19G 2G 6
  23528526.969    -4317219.503 6
  21735681.9064  -12447761.44546  -9413929.12161
  23950073.125    14914872.109 3  11910602.32521
  20932896.563   -16674106.631 8  -7401203.42624
  20690197.7504  -19861447.00547 -14921855.16563
 91  3 23  1 37 45.0000000  0  5G15G13G19G 2G 6
  23528584.7344   -4316909.00046
  21727079.4144  -12492971.62146  -9449157.70461
  23958435.930    14958823.923 3  11944850.40021
  20933821.5554  -16669242.95747  -7397413.54064
  20686838.7034  -19879098.81647 -14935609.79163
 91  3 23  1 38  0.0000000  0  5G15G13G19G 2G 6
  23528671.8594   -4316458.05746  -3295238.20761
  21718496.3134  -12538070.61346  -9484299.66461
  23966810.2344   15002830.38843  11979141.04261
  20934755.9924  -16664332.60247  -7393587.28464
  20683497.0004  -19896661.79247 -14949295.19263
 91  3 23  1 38 15.0000000  0  5G15G13G19G 2G 6
  23528779.7664   -4315867.61946  -3294778.05261
  21709935.5314  -12583059.31346  -9519355.68061
  23975193.5314   15046890.37644  12013473.41661
  20935699.5704  -16659376.52347  -7389725.39664
  20680171.0164  -19914136.55047 -14962911.85463
 91  3 23  1 38 30.0000000  0  5G15G13G19G 2G 6
  23528914.9924   -4315140.92646  -3294211.74061
  21701395.313   -12627940.363 6  -9554327.80721
  23983587.1094   15091000.54343  12047844.87261
  20936651.563   -16654377.809 7  -7385830.28424
  20676861.8984  -19931525.89647 -14976461.95663
 91  3 23  1 38 45.0000000  0  5G15G13G19G 2G 6
  23529083.4924   -4314270.14546  -3293533.15561
  21692876.133   -12672706.258 6  -9589210.21421
  23991991.6254   15135168.27344  12082261.17061
  20937611.0634  -16649328.86347  -7381896.02763
  20673570.9774  -19948821.96847 -14989939.38063
 91  3 23  1 39  0.0000000  0  5G15G13G19G 2G 6
  23529276.9774   -4313260.15146  -3292746.08661
  21684378.672   -12717361.552 6  -9624006.43121
  24000408.727    15179388.563 3  12116718.44121
  20938580.758   -16644234.905 7  -7377926.69524
  20670295.0704  -19966029.66447 -15003347.93963
 91  3 23  1 39 15.0000000  0  5G15G13G19G 2G 6
  23529494.055    -4312108.609 6  -3291848.71521
  21675902.5004  -12761903.30746  -9658714.17561
  24008832.672    15223663.713 4  12151218.48721
  20939559.547   -16639093.489 7  -7373920.38524
  20667038.6724  -19983146.15447 -15016685.42763
 91  3 23  1 39 30.0000000  0  5G15G13G19G 2G 6
  23529743.4224   -4310818.38246  -3290843.28861
  21667447.703   -12806334.365 6  -9693335.67221
  24017270.6174   15267990.39244  12185758.66961
  20940545.9774  -16633907.46147  -7369879.31264
  20663798.4774  -20000174.24547 -15029954.03963
 91  3 23  1 39 45.0000000  0  5G15G13G19G 2G 6
  23530010.5084   -4309388.37646  -3289728.94261
  21659012.8204  -12850653.48546  -9727869.93761
  24025714.695    15312369.588 4  12220339.75521
  20941542.227   -16628675.801 7  -7365802.68424
  20660574.2424  -20017112.51147 -15043152.65163
 91  3 23  1 40  0.0000000  0  5G15G13G19G 2G 6
  23530313.1094   -4307821.77646  -3288508.15361
  21650600.500   -12894863.687 6  -9762319.33121
  24034168.570    15356797.952 4  12254959.15921
  20942544.844   -16623401.906 7  -7361693.14323
  20657369.0704  -20033964.00347 -15056283.64763
 91  3 23  1 40 15.0000000  0  5G15G13G19G 2G 6
  23530638.219    -4306110.393 6  -3287174.53921
  21642209.938   -12938956.719 6  -9796677.42221
  24042632.3444   15401283.13144  12289622.84561
  20943559.297   -16618077.817 7  -7357544.48724
  20654179.2664  -20050720.41947 -15069340.56063
 91  3 23  1 40 30.0000000  0  5G15G13G19G 2G 6
  23530987.242    -4304257.581 6  -3285730.74021
  21633841.492   -12982935.758 6  -9830946.69121
  24051111.8444   15445821.74944  12324328.17461
  20944581.805   -16612706.701 7  -7353359.18924
  20651007.5554  -20067384.78747 -15082325.74563
 91  3 23  1 40 45.0000000  0  5G15G13G19G 2G 6
  23531367.7194   -4302263.02646  -3284176.48861
  21625493.867   -13026799.956 6  -9865126.47021
  24059593.570    15490414.232 4  12359075.46221
  20945612.859   -16607288.275 7  -7349137.02224
  20647855.7814  -20083956.27447 -15095238.55463
 91  3 23  1 41  0.0000000  0  5G15G13G19G 2G 6
  23531779.0784   -4300124.80246  -3282510.27261
  21617169.016   -13070547.204 6  -9899215.13121
  24068090.078    15535062.266 4  12393866.05921
  20946651.945   -16601820.791 7  -7344876.63124
  20644719.2974  -20100433.03247 -15108077.54863
 91  3 23  1 41 15.0000000  0  5G15G13G19G 2G 6
  23532212.3594   -4297844.72446  -3280733.54061
  21608865.656   -13114179.170 6  -9933213.96221
  24076596.5704   15579763.71744  12428698.30861
  20947701.211   -16596305.921 7  -7340579.31324
  20641601.8134  -20116816.45447 -15120843.81263
 91  3 23  1 41 30.0000000  0  5G15G13G19G 2G 6
  23532672.9224   -4295424.01846  -3278847.22161
  21600585.633   -13157696.872 6  -9967123.74821
  24085112.5314   15624516.96444  12463570.89361
  20948760.023   -16590744.983 7  -7336246.10024
  20638502.1254  -20133107.72647 -15133538.26963
 91  3 23  1 41 45.0000000  0  5G15G13G19G 2G 6
  23533160.234    -4292861.231 6  -3276850.19621
  21592325.773   -13201098.947 6 -10000943.43721
  24093639.367    15669323.107 4  12498484.68521
  20949825.633   -16585137.055 7  -7331876.27124
  20635419.0004  -20149305.52547 -15146159.89363
 91  3 23  1 42  0.0000000  0  5G15G13G19G 2G 6
  23533674.6334   -4290153.95746  -3274740.57861
  21584088.406   -13244382.349 6 -10034670.65521
  24102175.586    15714184.583 3  12533441.58521
  20950904.477   -16579479.628 7  -7327467.87024
  20632355.6174  -20165406.78647 -15158706.29163
 91  3 23  1 42 15.0000000  0  5G15G13G19G 2G 6
  23534215.047    -4287306.885 6  -3272522.02021
  21575874.664   -13287551.572 7 -10068308.89821
  24110721.141    15759096.640 3  12568437.90221
  20951988.977   -16573777.216 8  -7323024.41723
  20629309.6254  -20181416.02547 -15171180.98363
 91  3 23  1 42 30.0000000  0  5G15G13G19G 2G 6
  23534780.9384   -4284314.91046  -3270190.55061
  21567682.070   -13330601.588 7 -10101854.26021
  24119282.3054   15804063.90143  12603477.27161
  20953083.805   -16568024.994 7  -7318542.14924
  20626280.9064  -20197327.95647 -15183579.85163
 91  3 23  1 42 45.0000000  0  5G15G13G19G 2G 6
  23535378.6644   -4281180.25946  -3267747.91361
  21559511.992   -13373534.186 7 -10135308.12921
  24127847.8674   15849084.18343  12638557.91861
  20954185.922   -16562225.004 7  -7314022.66223
  20623271.9774  -20213144.58647 -15195904.45763
 91  3 23  1 43  0.0000000  0  5G15G13G19G 2G 6
  23536005.063    -4277901.127 6  -3265192.68721
  21551365.547   -13416347.262 7 -10168668.86421
  24136426.3984   15894159.29142  12673681.30961
  20955299.156   -16556375.460 7  -7309464.55623
  20620279.6954  -20228863.66447 -15208153.04963
 91  3 23  1 43 15.0000000  0  5G15G13G19G 2G 6
  23536652.0784   -4274480.76646  -3262527.41161
  21543240.023   -13459044.158 7 -10201939.06621
  24145013.1414   15939285.39543  12708844.39861
  20956422.305   -16550479.827 7  -7304870.54123
  20617306.695   -20244488.595 7 -15220328.27823
 91  3 23  1 43 30.0000000  0  5G15G13G19G 2G 6
  23537332.844    -4270923.539 6  -3259755.49021
  21535136.328   -13501628.628 7 -10235121.66221
  24153611.8674   15984458.21843  12744043.92561
  20957550.813   -16544542.194 7  -7300243.79823
  20614350.977   -20260022.995 7 -15232432.96523
 91  3 23  1 43 45.0000000  0  5G15G13G19G 2G 6
  23538033.328    -4267230.004 6  -3256877.35621
  21527054.672   -13544101.306 7 -10268217.14621
  24162211.8834   16029676.90442  12779279.16661
  20958689.820   -16538563.444 7  -7295585.01023
  20611411.594   -20275467.475 7 -15244467.58023
 91  3 23  1 44  0.0000000  0  5G15G13G19G 2G 6
  23538767.313    -4263386.691 6  -3253882.51221
  21518994.9064  -13586448.41446 -10301214.78761
  24170827.9614   16074954.68242  12814560.46361
  20959837.070   -16532530.252 7  -7290883.80723
  20608492.672   -20290808.373 7 -15256421.48623
 91  3 23  1 44 15.0000000  0  5G15G13G19G 2G 6
  23539522.2194   -4259397.63046  -3250774.09161
  21510959.977   -13628673.639 6 -10334117.45521
  24179455.344    16120287.289 2  12849884.48521
  20960995.992   -16526446.581 7  -7286143.26523
  20605590.430   -20306049.465 7 -15268297.62023
 91  3 23  1 44 30.0000000  0  5G15G13G19G 2G 6
  23540309.023    -4255267.831 6  -3247556.01421
  21502946.328   -13670782.050 6 -10366929.10021
  24188090.711    16165669.550 2  12885247.19421
  20962162.203   -16520317.426 7  -7281367.28623
  20602709.0164  -20321195.52047 -15280099.70463
 91  3 23  1 44 45.0000000  0  5G15G13G19G 2G 6
  23541125.2584   -4250999.02946  -3244229.62261
  21494955.383   -13712774.984 7 -10399650.75821
  24196734.5084   16211099.77742  12920647.31061
  20963335.469   -16514144.567 7  -7276557.25124
  20599845.133   -20336248.016 7 -15291828.88223
 91  3 23  1 45  0.0000000  0  4G15G13G 2G 6
  23541966.2504   -4246584.59446  -3240789.73361
  21486988.523   -13754645.620 7 -10432277.12321
  20964520.094   -16507921.425 7  -7271708.03324
  20597000.5084  -20351200.11147 -15303479.82863
 91  3 23  1 45 15.0000000  0  4G15G13G 2G 6
  23542830.672    -4242026.021 6  -3237237.54621
  21479044.3524  -13796395.23347 -10464809.19061
  20965713.992   -16501649.661 7  -7266820.92924
  20594172.9844  -20366052.96547 -15315053.44263
 91  3 23  1 45 30.0000000  0  4G15G13G 2G 6
  23543725.3674   -4237323.91545  -3233573.52261
  21471122.070   -13838024.069 7 -10497247.13821
  20966916.289   -16495329.831 7  -7261896.36824
  20591365.5864  -20380806.90147 -15326549.97363
 91  3 23  1 45 45.0000000  0  4G15G13G 2G 6
  23544646.5314   -4232482.90545  -3229801.23461
  21463221.734   -13879536.580 6 -10529594.44121
  20968127.242   -16488966.381 8  -7256937.82323
  20588577.1334  -20395466.24847 -15337972.80263
 91  3 23  1 46  0.0000000  0  4G15G13G 2G 6
  23545596.359    -4227501.932 6  -3225919.91121
  21455344.031   -13920931.463 6 -10561850.09021
  20969347.398   -16482558.238 8  -7251944.45024
  20585803.0554  -20410029.74447 -15349320.94363
 91  3 23  1 46 15.0000000  0  5G15G13G19G 2G 6
  23546572.656    -4222376.154 5  -3221925.75021
  21447490.750   -13962204.031 6 -10594010.42921
  24248812.0944         -0.85353
  20970574.859   -16476100.911 8  -7246912.75223
  20583053.0634  -20424492.59047 -15360590.65863
 91  3 23  1 46 30.0000000  0  5G15G13G19G 2G 6
  23547574.3444   -4217103.45745  -3217817.09761
  21439661.5474  -14003351.58246 -10626073.35561
  24257527.2734      45789.26943
  20971813.672   -16469592.201 8  -7241841.02124
  20580319.6724  -20438852.24447 -15371779.96063
 91  3 23  1 46 45.0000000  0  5G15G13G19G 2G 6
  23548601.297    -4211683.647 6  -3213593.80921
  21431853.727   -14044373.796 6 -10658038.61021
  24266249.4694      91633.91643
  20973063.219   -16463031.985 8  -7236729.13823
  20577607.1884  -20453108.28547 -15382888.52463
 91  3 23  1 47  0.0000000  0  5G15G13G19G 2G 6
  23549661.852    -4206116.511 6  -3209255.74321
  21424072.094   -14085270.208 6 -10689905.84321
  24274986.039      137533.006 3
  20974320.7814  -16456419.99048  -7231576.92763
  20574913.9614  -20467260.19447 -15393915.95063
 91  3 23  1 47 15.0000000  0  4G15G13G 2G 6
  23550751.7974   -4200408.43746  -3204807.82961
  21416312.367   -14126046.833 6 -10721679.73621
  20975587.7034  -16449762.42148  -7226389.20263
  20572239.656   -20481313.981 7 -15404866.91323
 91  3 23  1 47 30.0000000  0  4G15G13G 2G 6
  23551861.6254   -4194556.01446  -3200247.43661
  21408574.359   -14166700.207 6 -10753357.58221
  20976864.688   -16443056.000 8  -7221163.39623
  20569583.3984  -20495266.15147 -15415738.69263
 91  3 23  1 47 45.0000000  0  4G15G13G 2G 6
  23553005.9924   -4188561.32545  -3195576.20861
  21400863.711   -14207232.196 6 -10784940.85021
  20978148.508   -16436302.918 8  -7215901.24523
  20566948.9774  -20509118.33947 -15426532.56763
 91  3 23  1 48  0.0000000  0  4G15G13G 2G 6
  23554170.3284   -4182421.22945  -3190791.65961
  21393173.8444  -14247639.45746 -10816426.92761
  20979444.055   -16429500.218 8  -7210600.42524
  20564331.7814  -20522867.49647 -15437246.16463
 91  3 23  1 48 15.0000000  0  4G15G13G 2G 6
  23555367.945    -4176135.568 6  -3185893.69121
  21385507.031   -14287921.589 6 -10847815.50521
  20980748.656   -16422647.608 8  -7205260.71624
  20561735.4924  -20536512.93447 -15447878.93563
 91  3 23  1 48 30.0000000  0  4G15G13G 2G 6
  23556594.031    -4169703.925 5  -3180881.97821
  21377866.7034  -14328077.89246 -10879106.02561
  20982059.7734  -16415744.56947  -7199881.71463
  20559158.9144  -20550053.82147 -15458430.23563
 91  3 23  1 48 45.0000000  0  4G15G13G 2G 6
  23557841.039    -4163129.978 5  -3175759.36621
  21370248.2424  -14368111.57646 -10910301.00561
  20983383.7974  -16408794.56348  -7194466.12163
  20556601.5864  -20563493.79347 -15468902.91163
 91  3 23  1 49  0.0000000  0  4G15G13G 2G 6
  23559120.305    -4156407.938 6  -3170521.35821
  21362654.711   -14408016.842 6 -10941395.92021
  20984715.977   -16401792.133 8  -7189009.66724
  20554064.0554  -20576826.65347 -15479292.11663
 91  3 23  1 49 15.0000000  0  4G15G13G 2G 6
  23560426.2814   -4149541.67446  -3165170.95161
  21355084.3444  -14447797.42046 -10972393.66861
  20986058.695   -16394741.264 8  -7183515.47124
  20551546.0474  -20590056.41147 -15489600.98363
 91  3 23  1 49 30.0000000  0  4G15G13G 2G 6
  23561762.7584   -4142529.57645
  21347537.758   -14487451.499 6 -11003292.84821
  20987409.813   -16387640.323 8
  20549048.6724  -20603181.04947 -15499827.94363
 91  3 23  1 49 45.0000000  0  4G15G13G 2G 6
  23563123.7194   -4135371.55845
  21340016.9144  -14526978.80346 -11034093.24561
  20988770.148   -16380489.313 8
  20546571.7584  -20616200.17247 -15509972.68063
 91  3 23  1 50  0.0000000  0  4G15G13G 2G 6
  23564514.7734   -4128066.17046  -3148436.63661
  21332518.953   -14566377.534 6 -11064793.45321
  20990140.9144  -16373286.65048  -7166797.56164
  20544114.0704  -20629111.99147 -15520033.80563
 91  3 23  1 50 15.0000000  0  4G15G13G 2G 6
  23565930.8524   -4120615.57745  -3142630.92061
  21325045.898   -14605649.667 6 -11095395.01821
  20991522.195   -16366034.325 8  -7161146.38324
  20541677.5554  -20641918.28547 -15530012.70363
 91  3 23  1 50 30.0000000  0  4G15G13G 2G 6
  23567378.9774   -4113022.43445  -3136714.12461
  21317596.211   -14644797.642 6 -11125899.83221
  20992910.414   -16358734.946 8  -7155458.54424
  20539260.0234  -20654621.60247 -15539911.35563
 91  3 23  1 50 45.0000000  0  4G15G13G 2G 6
  23568853.2504   -4105282.40045  -3130682.87361
  21310171.4694  -14683816.64446 -11156304.15361
  20994308.352   -16351384.043 8  -7149730.55324
  20536863.3054  -20667217.11947 -15549726.01163
 91  3 23  1 51  0.0000000  0  4G15G13G 2G 6
  23570351.781    -4097396.407 5  -3124537.90221
  21302769.4384  -14722707.71446 -11186608.78661
  20995717.773   -16343982.823 8  -7143963.35724
  20534486.0704  -20679705.66047 -15559457.31463
 91  3 23  1 51 15.0000000  0  4G15G13G 2G 6
  23571877.8674   -4089361.74945  -3118277.07561
  21295394.5474  -14761467.77347 -11216811.33561
  20997135.695   -16336528.775 8  -7138154.99823
  20532130.1254  -20692084.41747 -15569103.06763
 91  3 23  1 51 30.0000000  0  4G15G13G 2G 6
  23573438.5784   -4081179.17745  -3111900.98461
  21288042.4774  -14800097.26646 -11246912.14261
  20998563.375   -16329022.329 8  -7132305.80623
  20529795.7034  -20704353.62847 -15578663.46263
 91  3 23  1 51 45.0000000  0  4G15G13G 2G 6
  23575019.586    -4072855.833 5  -3105415.21621
  21280715.516   -14838603.072 7 -11276916.58121
  21000000.648   -16321470.744 8  -7126421.44023
  20527481.8364  -20716520.20547 -15588143.88163
 91  3 23  1 52  0.0000000  0  4G15G13G 2G 6
  23576634.3754   -4064387.15745  -3098816.18761
  21273412.4384  -14876980.43947 -11306820.92561
  21001447.148   -16313869.401 8  -7120498.30424
  20525186.7424  -20728579.42647 -15597540.64563
 91  3 23  1 52 15.0000000  0  4G15G13G 2G 6
  23578271.281    -4055776.115 5  -3092106.24021
  21266133.7894  -14915232.10547 -11336627.32661
  21002903.3054  -16306220.97648  -7114538.48163
  20522910.7344  -20740533.72847 -15606855.65763
 91  3 23  1 52 30.0000000  0  4G15G13G 2G 6
  23579934.359    -4047020.035 5  -3085283.26121
  21258878.914   -14953355.151 7 -11366333.50821
  21004367.680   -16298522.847 7  -7108539.92524
  20520656.5084  -20752380.23347 -15616086.67263
 91  3 23  1 52 45.0000000  0  4G15G13G 2G 6
  23581633.172    -4038117.729 5  -3078346.34721
  21251649.3134  -14991348.23147 -11395938.40961
  21005842.211   -16290774.089 7  -7102501.91523
  20518424.5474  -20764117.61147 -15625232.65163
 91  3 23  1 53  0.0000000  0  4G15G13G 2G 6
  23583355.680    -4029067.471 5  -3071294.14621
  21244444.0314  -15029209.54247 -11425440.64061
  21007326.609   -16282972.979 7  -7096423.11623
  20516210.1644  -20775744.03247 -15634292.16363
 91  3 23  1 53 15.0000000  0  4G15G13G 2G 6
  23585106.2344   -4019870.79845  -3064127.84961
  21237264.1884  -15066940.23347 -11454841.08461
  21008819.016   -16275120.730 7  -7090304.46724
  20514020.0704  -20787260.54947 -15643266.04463
 91  3 23  1 53 30.0000000  0  4G15G13G 2G 6
  23586883.016    -4010529.197 5  -3056848.63421
  21230109.0944  -15104541.47047 -11484140.66261
  21010323.266   -16267218.817 7  -7084147.12024
  20511849.1724  -20798668.20147 -15652155.09163
 91  3 23  1 53 45.0000000  0  4G15G13G 2G 6
  23588688.055    -4001043.948 5  -3049457.48121
  21222978.6094  -15142014.13647 -11513340.05361
  21011837.289   -16259268.598 7  -7077952.13324
  20509698.1254  -20809968.05447 -15660960.14363
 91  3 23  1 54  0.0000000  0  4G15G13G 2G 6
  23590521.188    -3991408.768 5  -3041949.49921
  21215872.7664  -15179351.90047 -11542434.32361
  21013360.047   -16251263.746 7  -7071714.57324
  20507569.1564  -20821153.54147 -15669676.07963
 91  3 23  1 54 15.0000000  0  4G15G13G 2G 6
  23592383.4924   -3981628.72845  -3034328.62961
  21208792.844   -15216559.674 7 -11571427.31021
  21014891.852   -16243209.604 7  -7065438.60524
  20505462.0234  -20832229.63447 -15678306.77563
 91  3 23  1 54 30.0000000  0  4G15G13G 2G 6
  23594268.7894   -3971704.20745  -3026595.20561
  21201737.2034  -15253637.60747 -11600319.11361
  21016435.781   -16235106.345 7  -7059124.36324
  20503373.9774  -20843196.36647 -15686852.24663
 91  3 23  1 54 45.0000000  0  4G15G13G 2G 6
  23596184.672    -3961631.107 5  -3018745.97621
  21194705.602   -15290581.590 7 -11629106.54821
  21017987.734   -16226949.921 7  -7052768.69224
  20501310.5784  -20854049.41147 -15695309.13763
 91  3 23  1 55  0.0000000  0  4G15G13G 2G 6
  23598130.016    -3951415.487 5  -3010785.70521
  21187700.4064  -15327396.96747 -11657793.76861
  21019547.758   -16218745.954 7  -7046375.98024
  20499265.9924  -20864794.38047 -15703681.81263
 91  3 23  1 55 15.0000000  0  4G15G13G 2G 6
  23600104.1804   -3941052.26345  -3002710.42061
  21180721.2664  -15364078.41547 -11686376.63161
  21021120.492   -16210489.476 7  -7039942.34624
  20497241.0474  -20875425.85947 -15711966.05263
 91  3 23  1 55 30.0000000  0  4G15G13G 2G 6
  23602102.828    -3930542.983 5  -2994521.31721
  21173765.523   -15400627.635 7 -11714856.45621
  21022699.828   -16202182.275 7  -7033469.18824
  20495239.8914  -20885945.33647 -15720163.01163
 91  3 23  1 55 45.0000000  0  4G15G13G 2G 6
  23604130.664    -3919890.718 5  -2986220.81121
  21166834.8984  -15437047.44547 -11743235.44061
  21024289.156   -16193827.020 7  -7026958.58024
  20493259.6484  -20896355.47347 -15728274.77563
 91  3 23  1 56  0.0000000  0  4G15G13G 2G 6
  23606183.188    -3909092.196 5  -2977806.32921
  21159929.5084  -15473334.24047 -11771510.77761
  21025888.914   -16185420.481 7  -7020408.01623
  20491300.3594  -20906652.57647 -15736298.46263
 91  3 23  1 56 15.0000000  0  4G15G13G 2G 6
  23608269.3984   -3898145.34045  -2969276.27061
  21153050.133   -15509485.704 7 -11799680.66521
  21027499.883   -16176960.625 7  -7013815.91224
  20489362.3754  -20916834.52247 -15744232.41163
 91  3 23  1 56 30.0000000  0  4G15G13G 2G 6
  23610379.586    -3887053.236 5  -2960633.02721
  21146196.1884  -15545504.40047 -11827747.08961
  21029118.438   -16168450.238 7  -7007184.42323
  20487445.3754  -20926903.79347 -15752078.56563
 91  3 23  1 56 45.0000000  0  4G15G13G 2G 6
  23612515.336    -3875816.876 5  -2951877.37121
  21139367.0554  -15581391.46047 -11855710.94961
  21030748.164   -16159890.368 7  -7000514.38224
  20485550.9224  -20936861.22947 -15759837.57163
 91  3 23  1 57  0.0000000  0  4G15G13G 2G 6
  23614679.5554   -3864430.67445  -2943004.96761
  21132564.5394  -15617140.85947 -11883567.53561
  21032387.070   -16151275.485 7  -6993801.47024
  20483679.3054  -20946701.02347 -15767504.90763
 91  3 23  1 57 15.0000000  0  4G15G13G 2G 6
  23616876.563    -3852905.775 5  -2934024.48621
  21125785.5784  -15652763.76647 -11911325.56061
  21034035.523   -16142616.687 7  -6987054.33624
  20481827.3284  -20956434.07847 -15775089.07263
 91  3 23  1 57 30.0000000  0  4G15G13G 2G 6
  23619097.430    -3841236.153 5  -2924931.22521
  21119032.2974  -15688253.73447 -11938979.99561
  21035692.453   -16133907.974 8  -6980268.30924
  20479996.6174  -20966053.97647 -15782585.06163
 91  3 23  1 57 45.0000000  0  4G15G13G 2G 6
  23621344.703    -3829421.606 5  -2915725.05521
  21112302.305   -15723610.098 7 -11966530.32421
  21037358.883   -16125148.829 8  -6973442.98023
  20478188.0394  -20975560.06847 -15789992.36863
 91  3 23  1 58  0.0000000  0  4G15G13G 2G 6
  23623619.391    -3817463.150 5  -2906406.72821
  21105600.820   -15758833.519 7 -11993977.05721
  21039035.602   -16116340.049 8  -6966578.98524
  20476398.8754  -20984952.99447 -15797311.49963
 91  3 23  1 58 15.0000000  0  4G15G13G 2G 6
  23625922.8524   -3805360.31845  -2896975.91561
  21098922.961   -15793923.371 7 -12021319.71521
  21040721.859   -16107481.152 7  -6959675.92724
  20474633.4224  -20994232.10647 -15804541.94263
 91  3 23  1 58 30.0000000  0  4G15G13G 2G 6
  23628254.047    -3793114.182 5  -2887433.42121
  21092270.6484  -15828881.07247 -12048559.39661
  21042416.406   -16098573.521 7  -6952734.90024
  20472889.4844  -21003398.47147 -15811684.52963
 91  3 23  1 58 45.0000000  0  4G15G13G 2G 6
  23630612.477    -3780723.201 5  -2877778.06121
  21085643.266   -15863704.625 7 -12075694.54621
  21044120.367   -16089615.431 7  -6945754.55424
  20471168.6174  -21012449.95547 -15818737.59763
 91  3 23  1 59  0.0000000  0  4G15G13G 2G 6
  23633000.070    -3768188.672 5  -2868010.86621
  21079041.9614  -15898394.92147 -12102725.85961
  21045835.211   -16080607.965 7  -6938735.73524
  20469465.5234  -21021387.59847 -15825701.95663
 91  3 23  1 59 15.0000000  0  4G15G13G 2G 6
  23635407.211    -3755509.453 5  -2858130.90721
  21072466.6254  -15932950.71447 -12129652.36861
  21047557.969   -16071550.122 7  -6931677.66524
  20467786.5084  -21030210.13047 -15832576.62463
 91  3 23  1 59 30.0000000  0  4G15G13G 2G 6
  23637850.500    -3742689.851 5  -2848141.55921
  21065915.4614  -15967375.73147 -12156476.96961
  21049290.672   -16062445.896 7  -6924583.44824
  20466129.6724  -21038921.21847 -15839364.44663
 91  3 23  1 59 45.0000000  0  4G15G13G 2G 6
  23640314.734    -3729725.846 5  -2838039.69321
  21059389.7034  -16001665.82647 -12183196.43561
  21051033.141   -16053291.146 7  -6917449.86024
  20464493.7584  -21047516.55347 -15846062.07163
 91  3 23  2  0  0.0000000  0  4G15G13G 2G 6
  23642809.719    -3716620.680 5  -2827827.83121
  21052889.500   -16035824.215 7 -12209813.27821
  21052784.328   -16044089.217 7  -6910279.51024
  20462879.4694  -21055999.21247 -15852671.90263
 91  3 23  2  0 15.0000000  0  4G15G13G 2G 6
  23645330.0634   -3703371.17345  -2817503.50061
  21046415.4924  -16069847.14747 -12236324.56561
  21054545.023   -16034836.652 7  -6903069.70024
  20461287.4384  -21064365.63847 -15859191.16263
 91  3 23  2  0 30.0000000  0  4G15G13G 2G 6
  23647880.781    -3689981.684 5  -2807070.08421
  21039965.648   -16103738.825 7 -12262733.58221
  21056314.938   -16025537.905 7  -6895823.90624
  20459715.9844  -21072619.94547 -15865623.05363
 91  3 23  2  0 45.0000000  0  4G15G13G 2G 6
  23650452.734    -3676450.712 5  -2796526.42621
  21033540.7344  -16137497.83247 -12289039.21261
  21058092.844   -16016191.626 8  -6888541.07224
  20458168.4844  -21080760.59947 -15871966.38963
 91  3 23  2  1  0.0000000  0  4G15G13G 2G 6
  23653054.0394   -3662776.15245  -2785870.89261
  21027142.133   -16171121.873 7 -12315239.67821
  21059881.281   -16006795.665 8  -6881219.52324
  20456639.9224  -21088785.09847 -15878219.21163
 91  3 23  2  1 15.0000000  0  4G15G13G 2G 6
  23655684.188    -3648960.560 5  -2775105.44421
  21020770.3444  -16204612.66947 -12341336.31661
  21061679.031   -15997351.996 8  -6873860.80524
  20455134.1254  -21096695.32147 -15884382.98763
 91  3 23  2  1 30.0000000  0  4G15G13G 2G 6
  23658339.7974   -3635004.74445  -2764230.74061
  21014421.7274  -16237971.19647 -12367329.88661
  21063484.164   -15987861.489 8  -6866465.58524
  20453651.3204  -21104491.94747 -15890458.24963
 91  3 23  2  1 45.0000000  0  4G15G13G 2G 6
  23661023.586    -3620906.870 5  -2753245.34321
  21008099.9774  -16271195.35547 -12393218.75361
  21065298.391   -15978322.046 8  -6859032.23424
  20452190.0314  -21112172.67047 -15896443.19363
 91  3 23  2  2  0.0000000  0  4G15G13G 2G 6
  23663729.930    -3606668.550 5  -2742150.50421
  21001802.719   -16304286.423 7 -12419003.91621
  21067123.531   -15968735.351 8  -6851562.06524
  20450750.9614  -21119739.01647 -15902339.01663
 91  3 23  2  2 15.0000000  0  4G15G13G 2G 6
  23666467.633    -3592288.447 5  -2730945.18921
  20995531.3204  -16337242.76347 -12444684.08861
  21068956.188   -15959100.041 8  -6844054.01424
  20449332.1954  -21127189.23047 -15908144.34963
 91  3 23  2  2 30.0000000  0  4G15G13G 2G 6
  23669230.398    -3577768.222 5  -2719630.67621
  20989285.3134  -16370065.98047 -12470260.53761
  21070799.250   -15949417.715 8  -6836509.32424
  20447936.3054  -21134524.66247 -15913860.23663
 91  3 23  2  2 45.0000000  0  4G15G13G 2G 6
  23672021.2504   -3563110.78645  -2708209.26561
  20983063.1254  -16402758.65747 -12495735.26361
  21072650.758   -15939691.236 8  -6828930.23724
  20446561.8444  -21141747.86347 -15919488.67363
 91  3 23  2  3  0.0000000  0  4G15G13G 2G 6
  23674840.8134   -3548313.43045  -2696678.81961
  20976868.3134  -16435317.72147 -12521105.87661
  21074509.625   -15929917.795 8  -6821314.54624
  20445209.1334  -21148855.91347 -15925027.38363
 91  3 23  2  3 15.0000000  0  4G15G13G 2G 6
  23677678.8444   -3533376.16645  -2685039.36661
  20970697.2734  -16467743.02947 -12546372.26161
  21076378.766   -15920097.308 8  -6813662.20124
  20443879.2034  -21155848.50747 -15930476.12363
 91  3 23  2  3 30.0000000  0  4G15G13G 2G 6
  23680545.8204   -3518301.64345  -2673292.94861
  20964552.9064  -16500037.12947 -12571536.41262
  21078255.047   -15910232.177 8  -6805975.06924
  20442570.7424  -21162728.06847 -15935836.79063
 91  3 23  2  3 45.0000000  0  4G15G13G 2G 6
  23683444.9534   -3503089.52445  -2661439.31461
  20958432.4844  -16532199.24947 -12596597.71761
  21080142.086   -15900321.842 8  -6798252.71124
  20441281.9064  -21169493.62647 -15941108.62363
 91  3 23  2  4  0.0000000  0  4G15G13G 2G 6
  23686362.3984   -3487738.61845  -2649477.53261
  20952336.5634  -16564227.95447 -12621555.06361
  21082036.570   -15890365.050 8  -6790494.15724
  20440016.0004  -21176143.72947 -15946290.49163
 91  3 23  2  4 15.0000000  0  4G15G13G 2G 6
  23689312.992    -3472244.288 5  -2637403.99021
  20946268.3594  -16596118.39847 -12646404.67362
  21083941.617   -15880357.227 8  -6782695.83124
  20438773.4304  -21182673.58647 -15951378.66263
 91  3 23  2  4 30.0000000  0  4G15G13G 2G 6
  23692287.6094   -3456615.34445  -2625225.55161
  20940224.438   -16627879.186 7 -12671153.25221
  21085853.672   -15870307.165 8  -6774864.59824
  20437552.6564  -21189091.69247 -15956379.75663
 91  3 23  2  4 45.0000000  0  4G15G13G 2G 6
  23695284.7894   -3440847.62645  -2612938.97861
  20934205.8914  -16659506.08147 -12695797.50461
  21087774.773   -15860210.532 8  -6766997.07324
  20436352.2734  -21195393.66347 -15961290.35063
 91  3 23  2  5  0.0000000  0  4G15G13G 2G 6
  23698313.5634   -3424946.62445  -2600548.55161
  20928212.8364  -16691004.28447 -12720341.46861
  21089704.008   -15850072.757 8  -6759097.48824
  20435174.227   -21201584.472 7 -15966114.32923
 91  3 23  2  5 15.0000000  0  4G15G13G 2G 6
  23701366.992    -3408910.439 5  -2588052.77821
  20922244.031   -16722371.562 7 -12744783.41921
  21091640.461   -15839891.610 8  -6751164.10724
  20434018.7894  -21207662.02747 -15970850.05063
 91  3 23  2  5 30.0000000  0  4G15G13G 2G 6
  23704445.281    -3392735.719 5  -2575449.06721
  20916300.648   -16753604.397 7 -12769120.61022
  21093587.500   -15829663.680 8  -6743194.26424
  20432883.7814  -21213622.57347 -15975494.60363
 91  3 23  2  5 45.0000000  0  4G15G13G 2G 6
  23707548.508    -3376422.022 5  -2562737.07521
  20910382.500   -16784702.020 7 -12793352.43921
  21095543.352   -15819388.348 8  -6735187.50024
  20431772.5704  -21219465.26747 -15980047.31963
 91  3 23  2  6  0.0000000  0  4G15G13G 2G 6
  23710677.125    -3359974.346 5  -2549920.66221
  20904489.250   -16815669.046 7 -12817482.50521
  21097505.656   -15809070.307 8  -6727147.44824
  20430681.7424  -21225194.57747 -15984511.68563
 91  3 23  2  6 15.0000000  0  4G15G13G 2G 6
  23713833.3984   -3343392.88145  -2537000.01161
  20898620.273   -16846505.500 7 -12841510.82721
  21099478.063   -15798710.178 8  -6719074.60224
  20429613.3674  -21230810.73347 -15988887.88163
 91  3 23  2  6 30.0000000  0  4G15G13G 2G 6
  23717015.266    -3326670.094 5  -2523969.24121
  20892779.367   -16877203.366 7 -12865431.16222
  21101459.656   -15788299.886 8  -6710962.67424
  20428567.6564  -21236305.67247 -15993169.61763
 91  3 23  2  6 45.0000000  0  4G15G13G 2G 6
  23720223.6174   -3309809.06645  -2510830.74361
  20886962.664   -16907765.760 7 -12889245.93021
  21103448.086   -15777842.513 8  -6702814.04924
  20427544.4064  -21241682.18647 -15997359.08063
 91  3 23  2  7  0.0000000  0  4G15G13G 2G 6
  23723454.9614   -3292813.82745  -2497587.66861
  20881172.758   -16938196.354 7 -12912958.00622
  21105447.859   -15767341.814 8  -6694631.66824
  20426542.7114  -21246943.80647 -16001459.00963
 91  3 23  2  7 15.0000000  0  4G15G13G 2G 6
  23726715.5164   -3275681.71145  -2484237.92961
  20875408.172   -16968492.342 7 -12936565.18821
  21107454.406   -15756794.941 8  -6686413.30824
  20425563.7584  -21252087.80547 -16005467.28663
 91  3 23  2  7 30.0000000  0  4G15G13G 2G 6
  23730005.8984   -3258411.95445  -2470780.94561
  20869668.227   -16998652.770 7 -12960066.73422
  21109469.281   -15746201.299 8  -6678158.50924
  20424608.1024  -21257113.15947 -16009383.11563
 91  3 23  2  7 45.0000000  0  4G15G13G 2G 6
  23733313.7424   -3241004.50945  -2457216.67361
  20863954.430   -17028677.599 7 -12983462.63021
  21111495.445   -15735560.691 8  -6669867.11124
  20423674.6884  -21262019.50447 -16013206.20963
 91  3 23  2  8  0.0000000  0  4G15G13G 2G 6
  23736654.188    -3223462.157 5  -2443547.27921
  20858266.242   -17058569.169 7 -13006754.68221
  21113527.656   -15724875.761 8  -6661541.17024
  20422763.4304  -21266809.11047 -16016938.33463
 91  3 23  2  8 15.0000000  0  4G15G13G 2G 6
  23740020.0554   -3205783.42745  -2429771.61061
  20852604.086   -17088325.488 7 -13029941.34121
  21115570.750   -15714144.763 8  -6653179.33024
  20421874.7194  -21271480.15647 -16020578.08063
 91  3 23  2  8 30.0000000  0  4G15G13G 2G 6
  23743406.7034   -3187972.90045  -2415893.24761
  20846965.805   -17117951.248 7 -13053026.27421
  21117620.508   -15703372.127 8  -6644785.04723
  20421006.5864  -21276036.96947 -16024128.81263
 91  3 23  2  8 45.0000000  0  4G15G13G 2G 6
  23746820.8204   -3170026.91945  -2401909.32961
  20841353.750   -17147442.353 7 -13076006.27622
  21119679.023   -15692554.065 8  -6636355.37623
  20420161.9844  -21280475.62247 -16027587.47063
 91  3 23  2  9  0.0000000  0  4G15G13G 2G 6
  23750265.0084   -3151943.75445  -2387818.53761
  20835768.297   -17176796.946 7 -13098879.90822
  21121747.016   -15681688.877 8  -6627888.97824
  20419339.3984  -21284793.99047 -16030952.40363
 91  3 23  2  9 15.0000000  0  4G15G13G 2G 6
  23753731.1094   -3133724.11145  -2373621.37961
  20830207.281   -17206015.338 7 -13121647.40621
  21123823.406   -15670777.025 8  -6619386.21723
  20418540.3284  -21288992.33347 -16034223.80263
 91  3 23  2  9 30.0000000  0  4G15G13G 2G 6
  23757225.273    -3115365.121 5  -2359315.64521
  20824673.852   -17235094.663 7 -13144306.54321
  21125908.711   -15659815.733 8  -6610844.93323
  20417765.3134  -21293067.79347 -16037399.45563
 91  3 23  2  9 45.0000000  0  4G15G13G 2G 6
  23760744.1724   -3096870.95945  -2344904.58161
  20819166.398   -17264038.752 7 -13166860.30322
  21128003.680   -15648808.940 8  -6602268.18823
  20417013.2504  -21297023.93447 -16040482.13263
 91  3 23  2 10  0.0000000  0  4G15G13G 2G 6
  23764286.1564   -3078239.25345  -2330386.33961
  20813684.953   -17292844.769 7 -13189306.47022
  21130107.258   -15637753.962 8  -6593653.89923
  20416282.8674  -21300858.02247 -16043469.70163
 91  3 23  2 10 15.0000000  0  4G15G13G 2G 6
  23767858.2664   -3059471.51045  -2315762.08561
  20808229.109   -17321514.259 7 -13211646.25822
  21132220.023   -15626652.058 8  -6585003.04224
  20415576.8284  -21304571.29947 -16046363.12663
 91  3 23  2 10 30.0000000  0  4G15G13G 2G 6
  23771454.4844   -3040573.09345  -2301036.01861
  20802798.531   -17350052.008 7 -13233883.39022
  21134339.063   -15615508.311 8  -6576319.58723
  20414892.1094  -21308168.60447 -16049166.19763
 91  3 23  2 10 45.0000000  0  4G15G13G 2G 6
  23775076.3834   -3021538.38645  -2286203.73961
  20797393.789   -17378452.069 7 -13256013.22922
  21136469.2504  -15604316.89348  -6567598.97963
  20414230.4924  -21311643.93247 -16051874.20663
 91  3 23  2 11  0.0000000  0  4G15G13G 2G 6
  23778726.719    -3002367.229 5  -2271265.14721
  20792015.563   -17406714.318 7 -13278035.68622
  21138608.805   -15593077.955 8  -6558841.33824
  20413592.3984  -21314996.93747 -16054486.90863
 91  3 23  2 11 15.0000000  0  4G15G13G 2G 6
  23782403.047    -2983062.377 5  -2256222.37421
  20786664.438   -17434840.982 7 -13299952.49022
  21140755.352   -15581793.897 8  -6550048.54724
  20412977.4924  -21318230.13147 -16057006.24663
 91  3 23  2 11 30.0000000  0  4G15G13G 2G 6
  23786100.9224   -2963618.69645  -2241071.42761
  20781337.578   -17462826.874 7 -13321759.60722
  21142912.453   -15570459.424 8  -6541216.47223
  20412385.9384  -21321338.01247 -16059427.94163
 91  3 23  2 11 45.0000000  0  4G15G13G 2G 6
  23789823.6804   -2944038.47145  -2225814.07761
  20776038.711   -17490674.191 7 -13343458.73922
  21145078.828   -15559076.671 8  -6532346.77524
  20411817.8594  -21324322.52047 -16061753.50163
 91  3 23  2 12  0.0000000  0  4G15G13G 2G 6
  23793578.7814   -2924323.44845  -2210451.69561
  20770765.008   -17518384.405 7 -13365051.03922
  21147252.422   -15547647.201 8  -6523440.67923
  20411273.6644  -21327185.01747 -16063983.98463
 91  3 23  2 12 15.0000000  0  4G15G13G 2G 6
  23797354.992    -2904473.422 5  -2194984.12821
  20765518.820   -17545957.058 7 -13386536.15322
  21149437.289   -15536170.758 8  -6514497.97623
  20410751.3754  -21329924.98947 -16066118.99663
 91  3 23  2 12 30.0000000  0  4G15G13G 2G 6
  23801158.5474   -2884487.11245  -2179410.33961
  20760298.086   -17573390.643 7 -13407912.89322
  21151630.6094  -15524645.86548  -6505517.51563
  20410253.8834  -21332540.84947 -16068157.29463
 91  3 23  2 12 45.0000000  0  4G15G13G 2G 6
  23804985.5864   -2864367.54445  -2163732.72461
  20755102.813   -17600687.786 7 -13429183.32022
  21153832.508   -15513075.127 8  -6496501.33223
  20409779.3134  -21335035.18647 -16070100.90363
 91  3 23  2 13  0.0000000  0  4G15G13G 2G 6
  23808842.6174   -2844110.31545  -2147947.84061
  20749935.891   -17627844.042 7 -13450343.96822
  21156042.906   -15501454.192 8  -6487446.03223
  20409330.0004  -21337403.39247 -16071946.23263
 91  3 23  2 13 15.0000000  0  4G15G13G 2G 6
  23812723.7114   -2823713.79545  -2132054.40861
  20744795.516   -17654857.464 7 -13471393.31122
  21158264.461   -15489781.387 8  -6478350.32223
  20408902.0394  -21339643.36447 -16073691.63363
 91  3 23  2 13 30.0000000  0  4G15G13G 2G 6
  23816630.3594   -2803182.99145  -2116056.35261
  20739680.6724  -17681732.87047 -13492335.11862
  21160494.773   -15478061.404 8  -6469217.84923
  20408499.3054  -21341759.93947 -16075340.88163
 91  3 23  2 13 45.0000000  0  4G15G13G 2G 6
  23820563.4384   -2782518.66145  -2099954.25761
  20734593.359   -17708470.619 7 -13513169.65422
  21162733.328   -15466294.804 8  -6460049.04523
  20408120.6334  -21343753.39747 -16076894.19463
 91  3 23  2 14  0.0000000  0  4G15G13G 2G 6
  23824520.6094   -2761723.14545  -2083749.93161
  20729530.656   -17735073.022 7 -13533898.72822
  21164981.258   -15454483.916 8  -6450845.73323
  20407763.8284  -21345625.85447 -16078353.22063
 91  3 23  2 14 15.0000000  0  4G15G13G 2G 6
  23828505.078    -2740791.179 5  -2067439.29321
  20724494.977   -17761534.071 7 -13554517.65522
  21167238.453   -15442622.955 8  -6441603.40523
  20407431.7814  -21347371.39447 -16079713.35363
 91  3 23  2 14 30.0000000  0  4G15G13G 2G 6
  23832512.1024   -2719721.77845  -2051021.55461
  20719487.031   -17787852.652 7 -13575025.57422
  21169506.164   -15430710.919 8  -6432321.27523
  20407123.3054  -21348988.88447 -16080973.70363
 91  3 23  2 14 45.0000000  0  4G15G13G 2G 6
  23836546.734    -2698516.734 5  -2034498.10221
  20714504.680   -17814030.972 7 -13595424.19322
  21171781.273   -15418749.780 8  -6423000.88223
  20406839.2504  -21350480.00247 -16082135.58463
 91  3 23  2 15  0.0000000  0  4G15G13G 2G 6
  23840607.969    -2677178.736 5  -2017871.08221
  20709549.7194  -17840070.94147 -13615715.00662
  21174065.5164  -15406741.69848  -6413643.91163
  20406580.1644  -21351846.72447 -16083200.53363
 91  3 23  2 15 15.0000000  0  4G15G13G 2G 6
  23844695.242    -2655705.391 5  -2001138.57621
  20704621.6334  -17865970.14347 -13635896.13162
  21176361.102   -15394683.985 8  -6404248.26923
  20406345.2974  -21353086.33947 -16084166.43763
 91  3 23  2 15 30.0000000  0  4G15G13G 2G 6
  23848805.938    -2634094.836 5  -1984299.13521
  20699719.6254  -17891726.51347 -13655965.96162
  21178664.7894  -15382574.76148  -6394812.48663
  20406133.4844  -21354196.87147 -16085031.75263
 91  3 23  2 15 45.0000000  0  4G15G13G 2G 6
  23852942.883    -2612349.305 5  -1967354.53221
  20694845.500   -17917341.851 7 -13675925.89922
  21180979.852   -15370416.000 8  -6385338.10023
  20405946.3134  -21355180.04447 -16085797.83363
 91  3 23  2 16  0.0000000  0  4G15G13G 2G 6
  23857107.094    -2590467.433 5  -1950303.69821
  20689998.4774  -17942814.51447 -13695774.66262
  21183302.531   -15358206.133 8  -6375823.90223
  20405781.6724  -21356034.08447 -16086463.28763
 91  3 23  2 16 15.0000000  0  4G15G13G 2G 6
  23861295.781    -2568449.819 5  -1933147.13421
  20685178.1334  -17968145.00847 -13715512.63962
  21185635.617   -15345945.721 8  -6366270.31523
  20405645.6644  -21356759.38447 -16087028.42463
 91  3 23  2 16 30.0000000  0  4G15G13G 2G 6
  23865512.7504   -2546296.92745  -1915885.08561
  20680384.8364  -17993333.32847 -13735139.83762
  21187978.477   -15333634.843 8  -6356677.40523
  20405531.5164  -21357355.94047 -16087493.24263
 91  3 23  2 16 45.0000000  0  4G15G13G 2G 6
  23869755.7424   -2524008.72645  -1898517.61861
  20675618.5084  -18018379.44147 -13754656.21962
  21190330.602   -15321273.453 8  -6347045.13223
  20405441.6484  -21357823.53947 -16087857.57763
 91  3 23  2 17  0.0000000  0  4G15G13G 2G 6
  23874020.1884   -2501586.62045  -1881045.82861
  20670879.3284  -18043284.31947 -13774062.55662
  21192691.961   -15308862.587 8  -6337374.31123
  20405375.8524  -21358162.99647 -16088122.05763
 91  3 23  2 17 15.0000000  0  4G15G13G 2G 6
  23878314.289    -2479032.941 5  -1863471.50021
  20666166.4614  -18068050.10647 -13793360.50662
  21195062.016   -15296404.611 8  -6327666.77523
  20405336.8284  -21358376.48547 -16088288.38263
 91  3 23  2 17 30.0000000  0  4G15G13G 2G 6
  23882631.7194   -2456340.92345  -1845789.38261
  20661481.2734  -18092669.91447 -13812544.70662
  21197443.602   -15283892.419 8  -6317916.99623
  20405322.133   -21358456.861 7
 91  3 23  2 17 45.0000000  0  4G15G13G 2G 6
  23886975.133    -2433513.549 5  -1828001.78021
  20656823.5784  -18117146.71247 -13831617.47062
  21199834.445   -15271329.033 7  -6308127.32623
  20405330.953   -21358406.996 7
 91  3 23  2 18  0.0000000  0  4G15G13G 2G 6
  23891344.672    -2410554.208 5  -1810111.36521
  20652191.9454  -18141483.41647 -13850581.07062
  21202234.398   -15258717.478 7  -6298300.12323
  20405364.477   -21358229.695 7
 91  3 23  2 18 15.0000000  0  4G15G13G 2G 6
  23895739.2424   -2387457.95645  -1792114.25961
  20647588.6484  -18165674.87847 -13869431.49562
  21204644.313   -15246052.591 7  -6288431.36423
  20405425.0084  -21357919.69747
 91  3 23  2 18 30.0000000  0  4G15G13G 2G 6
  23900157.008    -2364234.339 5  -1774017.91621
  20643010.3594  -18189730.25047 -13888175.87862
  21207063.047   -15233343.500 7  -6278528.15923
  20405508.0394  -21357485.93647 -16087594.30463
 91  3 23  2 18 45.0000000  0  4G15G13G 2G 6
  23904602.2114   -2340881.76145  -1755821.06361
  20638458.7814  -18213647.64647 -13906812.74462
  21209490.125   -15220588.406 7  -6268589.10723
  20405614.4924  -21356926.48847 -16087158.34063
 91  3 23  2 19  0.0000000  0  4G15G13G 2G 6
  23909072.3834   -2317394.78945  -1737519.50461
  20633934.4924  -18237421.53547 -13925337.79062
  21211927.016   -15207781.758 7  -6258609.88323
  20405743.1804  -21356235.82247 -16086620.12963
 91  3 23  2 19 15.0000000  0  4G15G13G 2G 6
  23913565.8914   -2293772.71745  -1719112.66961
  20629438.5164  -18261050.89047 -13943750.21062
  21214374.086   -15194922.721 8  -6248589.83423
  20405901.4614  -21355412.77147 -16085978.76263
 91  3 23  2 19 30.0000000  0  4G15G13G 2G 6
  23918086.359    -2270015.881 5  -1700600.82821
  20624970.0784  -18284535.85647 -13962050.11962
  21216831.281   -15182011.543 8  -6238529.15923
  20406083.5864  -21354457.41947 -16085234.30363
 91  3 23  2 19 45.0000000  0  4G15G13G 2G 6
  23922634.398    -2246121.731 5  -1681981.97121
  20620528.5394  -18307873.63747 -13980235.34062
  21219298.914   -15169045.495 8  -6228425.72623
  20406289.5084  -21353366.74947 -16084384.40363
 91  3 23  2 20  0.0000000  0  4G15G13G 2G 6
  23927207.7274   -2222091.73145  -1663257.27261
  20616115.3594  -18331065.53347 -13998306.88462
  21221776.195   -15156025.603 8  -6218280.34623
  20406524.3754  -21352142.04047 -16083430.05163
 91  3 23  2 20 15.0000000  0  4G15G13G 2G 6
  23931805.3984   -2197930.26345  -1644430.12761
  20611728.9774  -18354115.66747 -14016267.96462
  21224263.961   -15142956.108 8  -6208096.30523
  20406781.0234  -21350787.16947 -16082374.28163
 91  3 23  2 20 30.0000000  0  4G15G13G 2G 6
  23936430.211    -2173637.135 5  -1625500.40121
  20607369.9224  -18377023.44147 -14034118.11462
  21226759.352   -15129836.680 8  -6197873.35723
  20407063.2664  -21349301.58247 -16081216.64963
 91  3 23  2 20 45.0000000  0  4G15G13G 2G 6
  23941075.766    -2149211.513 5  -1606467.41721
  20603038.0474  -18399787.76347 -14051856.48262
  21229266.094   -15116665.980 8  -6187610.45523
  20407371.6024  -21347684.01247 -16079956.17463
 91  3 23  2 21  0.0000000  0  4G15G13G 2G 6
  23945747.7344   -2124653.73845  -1587331.46361
  20598733.7114  -18422408.96247 -14069483.33062
  21231782.109   -15103444.334 8  -6177307.85523
  20407704.7664  -21345934.61047 -16078592.97163
 91  3 23  2 21 15.0000000  0  4G15G13G 2G 6
  23950448.6954   -2099960.67745  -1568090.10461
  20594456.4064  -18444883.54647 -14086995.93062
  21234308.258   -15090168.467 8  -6166963.00623
  20408062.9694  -21344049.88547 -16077124.32963
 91  3 23  2 21 30.0000000  0  4G15G13G 2G 6
  23955169.2894   -2075133.83845  -1548744.48361
  20590206.9144  -18467212.95347 -14104395.40362
  21236844.570   -15076839.617 8  -6156576.87023
  20408447.2664  -21342031.01547 -16075551.14963
 91  3 23  2 21 45.0000000  0  4G15G13G 2G 6
  23959922.594    -2050178.132 5  -1529298.46621
  20585984.4304  -18489401.94547 -14121685.46462
  21239389.625   -15063462.617 8  -6146153.21823
  20408856.3754  -21339882.68147 -16073877.09863
 91  3 23  2 22  0.0000000  0  4G15G13G 2G 6
  23964694.7814   -2025092.13245  -1509750.88861
  20581789.1954  -18511448.91647 -14138864.86062
  21241944.906   -15050035.878 7  -6135690.81223
  20409288.9614  -21337603.07147 -16072100.74863
 91  3 23  2 22 15.0000000  0  4G15G13G 2G 6
  23969492.0634   -1999873.54345  -1490100.02561
  20577621.5084  -18533351.17547 -14155931.49162
  21244510.086   -15036556.681 7  -6125187.52123
  20409748.7114  -21335189.49647 -16070220.01263
 91  3 23  2 22 30.0000000  0  4G15G13G 2G 6
  23974320.117    -1974519.894 5  -1470343.92021
  20573480.9304  -18555105.80247 -14172883.08562
  21247084.633   -15023022.204 7  -6114641.16223
  20410234.8204  -21332638.97247 -16068232.56463
 91  3 23  2 22 45.0000000  0  4G15G13G 2G 6
  23979168.453    -1949034.391 5  -1450485.06521
  20569368.5704  -18576716.06347 -14189722.19062
  21249670.398   -15009435.609 7  -6104054.19023
  20410746.2734  -21329954.41447 -16066140.67663
 91  3 23  2 23  0.0000000  0  4G15G13G 2G 6
  23984043.008    -1923415.493 5  -1430522.26521
  20565284.0944  -18598179.99547 -14206447.26462
  21252266.641   -14995794.978 7  -6093425.10323
  20411282.531   -21327133.930 7 -16063942.87423
 91  3 23  2 23 15.0000000  0  4G15G13G 2G 6
  23988944.9614   -1897662.13545  -1410454.67161
  20561228.2344  -18619496.04947 -14223057.11362
  21254871.563   -14982099.022 7  -6082752.91923
  20411844.4224  -21324176.04147 -16061638.00063
 91  3 23  2 23 30.0000000  0  4G15G13G 2G 6
  23993869.414    -1871777.914 5  -1390285.13221
  20557199.3524  -18640667.89147 -14239554.58962
  21257489.227   -14968351.131 7  -6072040.25823
  20412433.719   -21321084.120 7 -16059228.69023
 91  3 23  2 23 45.0000000  0  4G15G13G 2G 6
  23998819.1564   -1845764.09945  -1370014.59561
  20553197.7034  -18661696.37447 -14255940.35762
  21260115.734   -14954552.145 7  -6061287.78423
  20413047.8134  -21317858.79747 -16056715.42663
 91  3 23  2 24  0.0000000  0  4G15G13G 2G 6
  24003797.5474   -1819616.47645  -1349639.80361
  20549223.6954  -18682577.27847 -14272211.12962
  21262750.813   -14940698.060 7  -6050492.37723
  20413685.6884  -21314495.83847 -16054094.91163
 91  3 23  2 24 15.0000000  0  4G15G13G 2G 6
  24008795.7584   -1793340.01645  -1329164.61061
  20545278.3594  -18703315.17547 -14288370.46662
  21265397.742   -14926793.347 7  -6039657.51823
  20414351.945   -21310999.622 7 -16051370.56523
 91  3 23  2 24 30.0000000  0  4G15G13G 2G 6
  24013819.8984   -1766929.50945  -1308584.95461
  20541360.0634  -18723904.61847 -14304414.12762
  21268053.531   -14912832.678 7  -6028779.05523
  20415044.422   -21307364.871 7 -16048538.26523
 91  3 23  2 24 45.0000000  0  4G15G13G 2G 6
  24018873.063    -1740384.713 5  -1287900.67521
  20537470.1414  -18744345.02047 -14320341.65062
  21270721.422   -14898815.065 7  -6017856.22323
  20415761.852   -21303590.373 7 -16045597.07523
 91  3 23  2 25  0.0000000  0  4G15G13G 2G 6
  24023949.156    -1713712.494 5  -1267117.11921
  20533607.2664  -18764643.33047 -14336158.45862
  21273399.039   -14884747.629 7  -6006894.56723
  20416504.773   -21299683.308 7 -16042552.59023
 91  3 23  2 25 15.0000000  0  4G15G13G 2G 6
  24029048.1804   -1686908.34345  -1246230.73461
  20529772.5474  -18784794.94847 -14351860.95262
  21276084.883   -14870625.655 7  -5995890.40923
  20417275.477   -21295638.746 7 -16039400.96123
 91  3 23  2 25 30.0000000  0  4G15G13G 2G 6
  24034175.6254   -1659968.47345  -1225238.60661
  20525967.0314  -18804795.63647 -14367445.84062
  21278783.602   -14856445.325 7  -5984840.78623
  20418072.023   -21291452.682 7 -16036139.07323
 91  3 23  2 25 45.0000000  0  4G15G13G 2G 6
  24039327.539    -1632895.081 5  -1204142.44621
  20522189.2194  -18824647.41447 -14382914.69762
  21281492.289   -14842208.404 7  -5973747.05923
  20418894.750   -21287126.835 7 -16032768.26023
 91  3 23  2 26  0.0000000  0  4G15G13G 2G 6
  24044506.039    -1605685.205 5  -1182939.91621
  20518439.3054  -18844347.06147 -14398265.01162
  21284213.242   -14827911.611 7  -5962606.68123
  20419745.836   -21282657.775 7 -16029285.85523
 91  3 23  2 26 15.0000000  0  3G13G 2G 6
  20514717.5784  -18863903.17547 -14413503.48162
  21286944.172   -14813563.724 7  -5951426.49423
  20420620.781   -21278054.215 7 -16025698.64623
 91  3 23  2 26 30.0000000  0  3G13G 2G 6
  20511024.7504  -18883312.27547 -14428627.39862
  21289684.453   -14799161.155 7  -5940203.69423
  20421523.3134  -21273312.32947 -16022003.64363
 91  3 23  2 26 45.0000000  0  3G13G 2G 6
  20507359.5394  -18902574.05547 -14443636.51462
  21292434.359   -14784703.543 7  -5928938.00223
  20422453.336   -21268431.756 7 -16018200.58023
 91  3 23  2 27  0.0000000  0  3G13G 2G 6
  20503722.1334  -18921688.38347 -14458530.73862
  21295197.266   -14770190.642 7  -5917629.22723
  20423408.398   -21263412.177 7 -16014289.19523
 91  3 23  2 27 15.0000000  0  3G13G 2G 6
  20500112.0474  -18940661.33347 -14473314.79262
  21297967.258   -14755628.329 7  -5906281.95323
  20424388.289   -21258259.450 7 -16010274.06723
 91  3 23  2 27 30.0000000  0  3G13G 2G 6
  20496529.1644  -18959487.69447 -14487984.61962
  21300750.859   -14741011.445 7  -5894892.15623
  20425394.188   -21252968.167 7 -16006150.97023
 91  3 23  2 27 45.0000000  0  3G13G 2G 6
  20492974.3524  -18978168.37347 -14502540.94062
  21303541.227   -14726341.212 7  -5883460.78523
  20426427.164   -21247539.219 7 -16001920.60023
 91  3 23  2 28  0.0000000  0  3G13G 2G 6
  20489447.6644  -18996701.99447 -14516982.66162
  21306343.781   -14711616.076 8  -5871986.63223
  20427487.375   -21241971.264 7 -15997581.91023
 91  3 23  2 28 15.0000000  0  3G13G 2G 6
  20485947.9924  -19015090.31647 -14531311.16261
  21309155.180   -14696837.531 8  -5860470.86023
  20428573.070   -21236265.735 7 -15993136.02222
 91  3 23  2 28 30.0000000  0  3G13G 2G 6
  20482476.4454  -19033334.67447 -14545527.48562
  21311977.406   -14682007.067 7  -5848914.63323
  20429685.297   -21230424.003 7 -15988584.00623
 91  3 23  2 28 45.0000000  0  3G13G 2G 6
  20479032.3444  -19051429.60947 -14559627.37862
  21314811.352   -14667119.209 7  -5837313.68723
  20430823.727   -21224440.467 7 -15983921.48823
